[[{"header":{"parameterUnit":"m.s-1","parameterCategory":1,"la1":30.6,"la2":29.2853,"lo1":-89.7004,"lo2":-87.6739,"dy":0.0162,"dx":0.0183,"nx":112,"ny":82,"refTime":"2023-07-04T12:00:00:Z","depth":0,"parameterNumber":2,"parameterNumberName":"U-component_of_WINDS"},"data":[0.0,0.0,0.0,0.0,0.0,0.0,0.0,0.0,0.0,0.0,0.0,0.0,0.0,0.0,0.0,0.0,0.0,0.0,0.0,0.0,0.0,0.0,0.0,0.0,0.0,0.0,0.0,0.0,0.0,0.0,0.0,0.0,0.0,0.0,0.0,0.0,0.0,0.0,0.0,0.0,0.0,0.0,0.0,0.0,0.0,0.0,0.0,0.0,0.0,0.0,0.0,0.0,0.0,0.0,0.0,0.0,0.0,0.0,0.0,0.0,0.0,0.0,0.0,0.0,0.0,0.0,0.0,0.0,0.0,0.0,0.0,0.0,0.0,0.0,0.0,0.0,0.0,0.0,0.0,0.0,0.0,0.0,0.0,0.0,0.0,0.0,0.0,0.0,0.0,0.0,-1.2341,-1.3955,-1.5521,-1.5968,-1.4768,-1.4786,-1.4122,-1.2464,0.0,0.0,0.0,0.0,0.0,0.0,0.0,0.0,0.0,0.0,0.0,0.0,0.0,0.0,0.0,0.0,0.0,0.0,0.0,0.0,0.0,0.0,0.0,0.0,0.0,0.0,0.0,0.0,0.0,0.0,0.0,0.0,0.0,0.0,0.0,0.0,0.0,0.0,0.0,0.0,0.0,0.0,0.0,0.0,0.0,0.0,0.0,0.0,0.0,0.0,0.0,0.0,0.0,0.0,0.0,0.0,0.0,0.0,0.0,0.0,0.0,0.0,0.0,0.0,0.0,0.0,0.0,0.0,0.0,0.0,0.0,0.0,0.0,0.0,0.0,0.0,0.0,0.0,0.0,0.0,0.0,0.0,0.0,0.0,0.0,0.0,0.0,0.0,0.0,0.0,0.0,0.0,0.0,0.0,0.0,0.0,0.0,0.0,0.0,0.0,0.0,0.0,0.0,0.0,-1.1039,-1.3467,-1.3921,-1.4328,-1.5058,-1.3972,-1.2814,-1.172,0.0,0.0,0.0,0.0,0.0,0.0,0.0,0.0,0.0,0.0,0.0,0.0,0.0,0.0,0.0,0.0,0.0,0.0,0.0,0.0,0.0,0.0,0.0,0.0,0.0,0.0,0.0,0.0,0.0,0.0,0.0,0.0,0.0,0.0,0.0,0.0,0.0,0.0,0.0,0.0,0.0,0.0,0.0,0.0,0.0,0.0,0.0,0.0,0.0,0.0,0.0,0.0,0.0,0.0,0.0,0.0,0.0,0.0,0.0,0.0,0.0,0.0,0.0,0.0,0.0,0.0,0.0,0.0,0.0,0.0,0.0,0.0,0.0,0.0,0.0,0.0,0.0,0.0,0.0,0.0,0.0,0.0,0.0,0.0,0.0,0.0,0.0,0.0,0.0,0.0,0.0,0.0,0.0,0.0,0.0,0.0,0.0,0.0,0.0,0.0,0.0,0.0,0.0,-1.0824,-1.1281,-1.2753,-1.3282,-1.3639,-1.3932,-1.3293,-1.2389,-1.1207,-1.1592,0.0,0.0,0.0,0.0,0.0,0.0,0.0,0.0,0.0,0.0,0.0,0.0,0.0,0.0,0.0,0.0,0.0,0.0,0.0,0.0,0.0,0.0,0.0,0.0,0.0,0.0,0.0,0.0,0.0,0.0,0.0,0.0,0.0,0.0,0.0,0.0,0.0,0.0,0.0,0.0,0.0,0.0,0.0,0.0,0.0,0.0,0.0,0.0,0.0,0.0,0.0,0.0,0.0,0.0,0.0,0.0,0.0,0.0,0.0,0.0,0.0,0.0,0.0,0.0,0.0,0.0,0.0,0.0,0.0,0.0,0.0,0.0,0.0,0.0,0.0,0.0,0.0,0.0,0.0,0.0,0.0,0.0,0.0,0.0,0.0,0.0,0.0,0.0,0.0,0.0,0.0,0.0,0.0,0.0,0.0,0.0,0.0,0.0,0.0,0.0,0.0,0.0,-1.1247,-1.1705,-1.2146,-1.2884,-1.3232,-1.291,-1.2881,-1.2363,-1.1116,-1.0864,0.0,0.0,0.0,0.0,0.0,0.0,0.0,0.0,0.0,0.0,0.0,0.0,0.0,0.0,0.0,0.0,0.0,0.0,0.0,0.0,0.0,0.0,0.0,0.0,0.0,0.0,0.0,0.0,0.0,0.0,0.0,0.0,0.0,0.0,0.0,0.0,0.0,0.0,0.0,0.0,0.0,0.0,0.0,0.0,0.0,0.0,0.0,0.0,0.0,0.0,0.0,0.0,0.0,0.0,0.0,0.0,0.0,0.0,0.0,0.0,0.0,0.0,0.0,0.0,0.0,0.0,0.0,0.0,0.0,0.0,0.0,0.0,0.0,0.0,0.0,0.0,0.0,0.0,0.0,0.0,0.0,0.0,0.0,0.0,0.0,0.0,0.0,0.0,0.0,0.0,0.0,0.0,0.0,0.0,0.0,0.0,0.0,0.0,0.0,0.0,0.0,0.0,-1.0989,-1.181,-1.181,-1.2499,-1.291,-1.2881,-1.2881,-1.2559,-1.1765,-1.1166,0.0,0.0,0.0,0.0,0.0,0.0,0.0,0.0,0.0,0.0,0.0,0.0,0.0,0.0,0.0,0.0,0.0,0.0,0.0,0.0,0.0,0.0,0.0,0.0,0.0,0.0,0.0,0.0,0.0,0.0,0.0,0.0,0.0,0.0,0.0,0.0,0.0,0.0,0.0,0.0,0.0,0.0,0.0,0.0,0.0,0.0,0.0,0.0,0.0,0.0,0.0,0.0,0.0,0.0,0.0,0.0,0.0,0.0,0.0,0.0,0.0,0.0,0.0,0.0,0.0,0.0,0.0,0.0,0.0,0.0,0.0,0.0,0.0,0.0,0.0,0.0,0.0,0.0,0.0,0.0,0.0,0.0,0.0,0.0,0.0,0.0,0.0,0.0,0.0,0.0,0.0,0.0,0.0,0.0,0.0,0.0,0.0,0.0,0.0,0.0,0.0,0.0,-1.1412,-1.2063,-1.2802,-1.287,-1.2881,-1.2881,-1.2881,-1.2608,-1.1864,0.0,0.0,0.0,0.0,0.0,0.0,0.0,0.0,0.0,0.0,0.0,0.0,0.0,0.0,0.0,0.0,0.0,0.0,0.0,0.0,0.0,0.0,0.0,0.0,0.0,0.0,0.0,0.0,0.0,0.0,0.0,0.0,0.0,0.0,0.0,0.0,0.0,0.0,0.0,0.0,0.0,0.0,0.0,0.0,0.0,0.0,0.0,0.0,0.0,0.0,0.0,0.0,0.0,0.0,0.0,0.0,0.0,0.0,0.0,0.0,0.0,0.0,0.0,0.0,0.0,0.0,0.0,0.0,0.0,0.0,0.0,0.0,0.0,0.0,0.0,0.0,0.0,0.0,0.0,0.0,0.0,0.0,0.0,0.0,0.0,0.0,0.0,0.0,0.0,0.0,0.0,0.0,0.0,0.0,0.0,0.0,0.0,0.0,0.0,0.0,0.0,0.0,-1.1535,-1.2157,-1.2833,-1.362,-1.333,-1.3076,-1.3076,-1.2959,-1.2666,-1.2187,0.0,0.0,0.0,0.0,0.0,0.0,0.0,0.0,0.0,0.0,0.0,0.0,0.0,0.0,0.0,0.0,0.0,0.0,0.0,0.0,0.0,0.0,0.0,0.0,0.0,0.0,0.0,0.0,0.0,0.0,0.0,0.0,0.0,0.0,0.0,0.0,0.0,0.0,0.0,0.0,0.0,0.0,0.0,0.0,0.0,0.0,0.0,0.0,0.0,0.0,0.0,0.0,0.0,0.0,0.0,0.0,0.0,0.0,0.0,0.0,0.0,0.0,0.0,0.0,0.0,0.0,0.0,0.0,0.0,0.0,0.0,0.0,0.0,0.0,0.0,0.0,0.0,0.0,0.0,0.0,0.0,0.0,0.0,0.0,0.0,0.0,0.0,0.0,0.0,0.0,0.0,0.0,0.0,0.0,0.0,0.0,0.0,0.0,0.0,0.0,0.0,0.0,-1.1853,-1.3186,-1.4077,-1.4087,-1.3769,-1.3516,-1.3506,-1.3125,-1.2891,0.0,0.0,0.0,0.0,0.0,0.0,0.0,0.0,0.0,0.0,0.0,0.0,0.0,0.0,0.0,0.0,0.0,0.0,0.0,0.0,0.0,0.0,0.0,0.0,0.0,0.0,0.0,0.0,0.0,0.0,0.0,0.0,0.0,0.0,0.0,0.0,0.0,0.0,0.0,0.0,0.0,0.0,0.0,0.0,0.0,0.0,0.0,0.0,0.0,0.0,0.0,0.0,0.0,0.0,0.0,0.0,0.0,0.0,0.0,0.0,0.0,0.0,0.0,0.0,0.0,0.0,0.0,0.0,0.0,0.0,0.0,0.0,0.0,0.0,0.0,0.0,0.0,0.0,0.0,0.0,0.0,0.0,0.0,0.0,0.0,0.0,0.0,0.0,0.0,0.0,0.0,0.0,0.0,0.0,0.0,0.0,0.0,0.0,0.0,0.0,0.0,0.0,0.0,-1.2315,-1.3369,-1.4248,-1.4561,-1.4209,-1.3828,-1.3525,-1.3389,-1.332,-1.332,0.0,0.0,0.0,0.0,0.0,0.0,0.0,0.0,0.0,0.0,0.0,0.0,0.0,0.0,0.0,0.0,0.0,0.0,0.0,0.0,0.0,0.0,0.0,0.0,0.0,0.0,0.0,0.0,0.0,0.0,0.0,0.0,0.0,0.0,0.0,0.0,0.0,0.0,0.0,0.0,0.0,0.0,0.0,0.0,0.0,0.0,0.0,0.0,0.0,0.0,0.0,0.0,0.0,0.0,0.0,0.0,0.0,0.0,0.0,0.0,0.0,0.0,0.0,0.0,0.0,0.0,0.0,0.0,0.0,0.0,0.0,0.0,0.0,0.0,0.0,0.0,0.0,0.0,0.0,0.0,0.0,0.0,0.0,0.0,0.0,0.0,0.0,0.0,0.0,0.0,0.0,0.0,0.0,0.0,0.0,0.0,0.0,0.0,0.0,0.0,0.0,0.0,-1.3373,-1.4361,-1.5078,-1.5508,-1.501,-1.4473,-1.4053,-1.3701,-1.3437,-1.3271,0.0,0.0,0.0,0.0,0.0,0.0,0.0,0.0,0.0,0.0,0.0,0.0,0.0,0.0,0.0,0.0,0.0,0.0,0.0,0.0,0.0,0.0,0.0,0.0,0.0,0.0,0.0,0.0,0.0,0.0,0.0,0.0,0.0,0.0,0.0,0.0,0.0,0.0,0.0,0.0,0.0,0.0,0.0,0.0,0.0,0.0,0.0,0.0,0.0,0.0,0.0,0.0,0.0,0.0,0.0,0.0,0.0,0.0,0.0,0.0,0.0,0.0,0.0,0.0,0.0,0.0,0.0,0.0,0.0,0.0,0.0,0.0,0.0,0.0,0.0,0.0,0.0,0.0,0.0,0.0,0.0,0.0,0.0,0.0,0.0,0.0,0.0,0.0,0.0,0.0,0.0,0.0,0.0,0.0,0.0,0.0,0.0,0.0,0.0,0.0,0.0,0.0,-1.4718,-1.5657,-1.6279,-1.6689,-1.5977,-1.5303,-1.4873,-1.4062,-1.3348,-1.2968,0.0,0.0,0.0,0.0,0.0,0.0,0.0,0.0,0.0,0.0,0.0,0.0,0.0,0.0,0.0,0.0,0.0,0.0,0.0,0.0,0.0,0.0,0.0,0.0,0.0,0.0,0.0,0.0,0.0,0.0,0.0,0.0,0.0,0.0,0.0,0.0,0.0,0.0,0.0,0.0,0.0,0.0,0.0,0.0,0.0,0.0,0.0,0.0,0.0,0.0,0.0,0.0,0.0,0.0,0.0,0.0,0.0,0.0,0.0,0.0,-1.6238,-1.5566,0.0,0.0,0.0,0.0,0.0,0.0,0.0,0.0,0.0,0.0,0.0,0.0,0.0,0.0,0.0,0.0,0.0,0.0,0.0,0.0,0.0,0.0,0.0,0.0,0.0,0.0,0.0,0.0,0.0,0.0,0.0,0.0,0.0,0.0,0.0,0.0,0.0,0.0,0.0,0.0,-1.4852,-1.586,-1.6621,-1.6719,-1.625,-1.5752,-1.5312,-1.4492,-1.3691,-1.3118,-1.2759,0.0,0.0,0.0,0.0,0.0,0.0,0.0,0.0,0.0,0.0,0.0,0.0,0.0,0.0,0.0,0.0,0.0,0.0,0.0,0.0,0.0,0.0,0.0,0.0,0.0,0.0,0.0,0.0,0.0,0.0,0.0,0.0,0.0,0.0,0.0,0.0,0.0,0.0,0.0,0.0,0.0,0.0,0.0,0.0,0.0,0.0,0.0,0.0,0.0,0.0,0.0,0.0,0.0,0.0,0.0,0.0,0.0,0.0,0.0,-1.7066,-1.6554,0.0,0.0,0.0,0.0,0.0,0.0,0.0,0.0,0.0,0.0,0.0,0.0,0.0,0.0,0.0,0.0,0.0,0.0,0.0,0.0,0.0,0.0,0.0,0.0,0.0,0.0,0.0,0.0,0.0,0.0,0.0,0.0,0.0,0.0,0.0,0.0,0.0,0.0,0.0,0.0,-1.6252,-1.6764,-1.7197,-1.7541,-1.6894,-1.6079,-1.5213,-1.4354,-1.3369,-1.2277,-1.1864,0.0,0.0,0.0,0.0,0.0,0.0,0.0,0.0,0.0,0.0,0.0,0.0,0.0,0.0,0.0,0.0,0.0,0.0,0.0,0.0,0.0,0.0,0.0,0.0,0.0,0.0,0.0,0.0,0.0,0.0,0.0,0.0,0.0,0.0,0.0,0.0,0.0,0.0,0.0,0.0,0.0,0.0,0.0,0.0,0.0,0.0,0.0,0.0,0.0,0.0,0.0,0.0,0.0,-1.9775,-1.9541,-1.8975,-1.9053,-1.8896,-1.8555,-1.7987,-1.7664,-1.7519,-1.6924,0.0,0.0,0.0,0.0,0.0,0.0,0.0,0.0,0.0,0.0,0.0,0.0,0.0,0.0,0.0,0.0,0.0,0.0,0.0,0.0,0.0,0.0,-1.7666,-1.7432,-1.7705,-1.7541,-1.5917,0.0,0.0,0.0,0.0,0.0,0.0,0.0,0.0,0.0,0.0,0.0,-1.7803,-1.7773,-1.7794,-1.8273,-1.7283,-1.6071,-1.4881,-1.3948,-1.2845,-1.138,-1.0892,-1.0531,0.0,0.0,0.0,0.0,0.0,0.0,0.0,0.0,0.0,0.0,0.0,0.0,0.0,0.0,0.0,0.0,0.0,0.0,0.0,0.0,0.0,0.0,0.0,0.0,0.0,0.0,0.0,0.0,0.0,0.0,0.0,0.0,-2.073,-2.1863,0.0,0.0,0.0,0.0,0.0,0.0,0.0,0.0,0.0,0.0,0.0,0.0,0.0,-1.9814,-2.0303,-2.1133,-2.1357,-2.0986,-2.1728,-2.1465,-2.0322,-2.0713,-2.0859,-2.0722,-1.9589,0.0,-1.6611,-1.662,0.0,0.0,0.0,0.0,0.0,0.0,0.0,0.0,0.0,0.0,0.0,0.0,0.0,0.0,0.0,0.0,0.0,0.0,0.0,0.0,0.0,0.0,-1.876,-1.7646,-1.7705,-1.7658,-1.651,-1.5453,-1.4262,-1.2641,-1.1731,-1.1525,0.0,0.0,0.0,0.0,0.0,0.0,-1.7988,-1.8281,-1.8155,-1.7458,-1.6551,-1.5539,-1.4303,-1.3418,-1.2462,-1.1343,-1.0714,-1.0284,-1.0152,-0.9852,0.0,0.0,0.0,0.0,0.0,0.0,0.0,0.0,0.0,0.0,0.0,0.0,0.0,0.0,0.0,0.0,0.0,0.0,0.0,0.0,0.0,0.0,0.0,0.0,0.0,0.0,0.0,0.0,0.0,-2.0576,-2.1329,-2.0924,-2.1518,-2.1581,0.0,0.0,0.0,0.0,0.0,0.0,0.0,0.0,0.0,-2.0703,-2.1152,-2.1807,-2.2725,-2.3115,-2.333,-2.3389,-2.3281,-2.2812,-2.2021,-2.1277,-2.0773,-2.0467,-1.9274,-1.7888,-1.6532,-1.6539,-1.588,-1.4856,0.0,0.0,0.0,0.0,-1.7701,-1.7968,-1.8165,-1.8118,-1.776,-1.6525,0.0,0.0,0.0,0.0,0.0,0.0,0.0,-1.8068,-1.8172,-1.8906,-1.9345,-1.8197,-1.8238,-1.8081,-1.6188,-1.5423,-1.4615,-1.3189,-1.2564,-1.2367,-1.2733,-1.349,0.0,0.0,0.0,-1.8271,-1.8984,-1.8309,-1.7784,-1.7642,-1.6097,-1.4688,-1.3726,-1.2952,-1.2032,-1.0979,-1.0422,-1.0117,-0.9866,-0.9907,-1.0047,0.0,0.0,0.0,0.0,0.0,0.0,0.0,0.0,0.0,0.0,0.0,0.0,0.0,0.0,0.0,0.0,0.0,0.0,0.0,0.0,0.0,0.0,0.0,0.0,0.0,0.0,0.0,0.0,-2.17,-2.2349,-2.1016,-2.2566,-2.3043,0.0,0.0,0.0,0.0,0.0,0.0,-2.164,-2.1225,-2.169,-2.3148,-2.328,-2.3848,-2.4912,-2.5029,-2.4937,-2.4727,-2.3999,-2.3186,-2.2288,-2.0961,-2.0175,-1.9817,-1.8608,-1.7648,-1.6862,-1.6518,-1.5873,-1.5026,-1.5318,-1.5431,-1.5647,-1.7346,-1.8013,-1.8171,-1.8644,-1.8617,-1.8231,-1.6588,-1.5709,-1.4994,-1.3745,0.0,0.0,0.0,0.0,-1.7712,-1.8892,-1.9307,-1.9242,-1.8864,-1.8798,-1.8168,-1.6021,-1.5532,-1.5167,-1.3657,-1.3231,-1.3181,-1.336,-1.4206,0.0,-1.6669,-1.7549,-1.8361,-1.9266,-1.799,-1.6958,-1.7003,-1.5375,-1.3964,-1.2987,-1.2465,-1.1694,-1.0759,-1.0394,-1.0134,-0.992,-1.004,-1.0154,-1.0227,0.0,0.0,0.0,0.0,0.0,0.0,0.0,0.0,0.0,0.0,0.0,0.0,0.0,0.0,0.0,0.0,0.0,0.0,0.0,0.0,0.0,0.0,0.0,0.0,0.0,0.0,0.0,0.0,0.0,-2.384,-2.6038,0.0,0.0,0.0,0.0,-2.4847,-2.3875,-2.4192,-2.6368,-2.493,-2.4893,-2.6564,-2.5894,-2.5801,-2.6279,-2.668,-2.5853,-2.3755,-2.3444,-2.2152,-2.0077,-1.972,-1.9546,-1.9439,-1.8272,-1.7732,-1.7557,-1.6548,-1.5455,-1.4568,-1.5264,-1.5464,-1.5629,-1.6627,-1.7269,-1.7621,-1.7204,-1.7001,-1.6926,-1.6556,-1.5405,-1.4337,-1.509,-1.4776,0.0,0.0,-1.6374,-1.7066,-1.8637,-1.8455,-1.8246,-1.9605,-1.9033,-1.783,-1.6375,-1.6297,-1.5796,-1.3311,-1.2829,-1.3134,-1.3976,0.0,-1.6133,-1.7436,-1.8037,-1.8239,-1.7997,-1.6992,-1.5853,-1.4666,-1.4079,-1.3237,-1.2104,-1.1915,-1.1653,-1.1009,-1.0759,-1.0598,-1.0577,-1.0254,-1.0247,-1.0598,-1.0618,0.0,0.0,0.0,0.0,0.0,0.0,0.0,0.0,0.0,0.0,0.0,0.0,0.0,0.0,0.0,0.0,0.0,0.0,0.0,0.0,0.0,0.0,0.0,0.0,0.0,0.0,0.0,0.0,-2.6099,-2.8119,0.0,-2.6148,-2.6606,-2.6686,-2.5823,-2.6074,-2.6392,-2.6486,-2.5706,-2.5748,-2.6951,-2.6674,-2.6343,-2.5785,-2.5674,-2.4729,-2.3082,-2.246,-2.1475,-2.0268,-1.917,-1.8528,-1.8226,-1.703,-1.648,-1.6452,-1.6026,-1.5602,-1.5057,-1.5191,-1.5154,-1.535,-1.6643,-1.7231,-1.7363,-1.7374,-1.7259,-1.6862,-1.5573,-1.4654,-1.4166,-1.4489,-1.4476,-1.4641,-1.5786,-1.6308,-1.693,-1.8162,-1.8886,-1.9184,-1.8982,-1.9264,-1.9075,-1.7616,-1.7048,-1.6297,-1.4969,-1.4075,-1.3709,-1.3826,-1.4462,-1.5265,-1.6006,-1.6577,-1.7005,-1.7192,-1.5951,-1.4878,-1.4471,-1.3431,-1.2618,-1.2151,-1.1977,-1.1697,-1.1296,-1.1002,-1.0755,-1.0631,-1.0517,-1.0454,-1.0618,-1.0624,-1.0301,0.0,0.0,0.0,0.0,0.0,0.0,0.0,0.0,0.0,0.0,0.0,0.0,0.0,0.0,0.0,0.0,0.0,0.0,0.0,0.0,0.0,0.0,0.0,0.0,0.0,-2.78,-2.9187,-2.8092,-3.0095,-3.0607,-2.8142,-2.9365,-2.9707,-2.8163,-2.8824,-2.8807,-2.7873,-2.7168,-2.7063,-2.7792,-2.7432,-2.6674,-2.5649,-2.5396,-2.4164,-2.1993,-2.1402,-2.0553,-1.9382,-1.8191,-1.7548,-1.7347,-1.6395,-1.5979,-1.5972,-1.5872,-1.5718,-1.5524,-1.5331,-1.5257,-1.5369,-1.6359,-1.6699,-1.6728,-1.6958,-1.6886,-1.6543,-1.5348,-1.4763,-1.4529,-1.4529,-1.4596,-1.4838,-1.551,-1.617,-1.6969,-1.8216,-1.9117,-1.9661,-1.9444,-1.9644,-1.954,-1.8051,-1.7739,-1.7427,-1.6322,-1.5043,-1.4142,-1.3841,-1.4413,-1.5048,-1.5425,-1.5818,-1.6094,-1.6363,-1.4964,-1.3994,-1.3877,-1.2919,-1.2305,-1.2305,-1.2124,-1.185,-1.145,-1.1243,-1.0962,-1.0638,-1.0719,-1.0701,-1.0701,-1.0701,-1.0399,-0.9722,0.0,0.0,0.0,0.0,0.0,0.0,0.0,0.0,0.0,0.0,0.0,0.0,0.0,0.0,0.0,0.0,0.0,0.0,0.0,0.0,0.0,0.0,0.0,-2.8615,-3.0071,-3.0773,-3.0017,-3.2206,-3.2969,-3.0926,-3.2202,-3.2721,-3.1928,-3.1872,-3.1437,-3.0693,-2.9447,-2.8974,-2.933,-2.8271,-2.7102,-2.5927,-2.5936,-2.4224,-2.0614,-2.0399,-1.9179,-1.7154,-1.6847,-1.67,-1.6673,-1.6386,-1.6259,-1.6239,-1.5945,-1.5832,-1.5832,-1.5832,-1.5832,-1.5832,-1.5832,-1.5832,-1.5832,-1.5832,-1.5832,-1.5832,-1.5832,-1.5732,-1.5497,-1.5497,-1.5393,-1.517,-1.517,-1.5938,-1.7221,-1.8709,-1.9154,-1.9504,-2.0935,-2.0387,-1.9191,-1.7658,-1.8494,-1.8986,-1.7221,-1.5661,-1.4536,-1.4233,-1.4977,-1.5613,-1.5613,-1.5606,0.0,-1.5262,-1.4092,-1.31,-1.2882,-1.2512,-1.2331,-1.2331,-1.2311,-1.2051,-1.1463,-1.1416,-1.1156,-1.0651,-1.0828,-1.0982,-1.0982,-1.0975,-1.0848,-1.0638,0.0,0.0,0.0,0.0,0.0,0.0,0.0,0.0,0.0,0.0,0.0,0.0,0.0,0.0,0.0,0.0,0.0,0.0,0.0,0.0,0.0,-2.7754,-2.9722,-3.1174,-3.2241,-3.3256,-3.4216,-3.47,-3.4621,-3.367,-3.3502,-3.29,-3.1672,-3.082,-2.9949,-2.9021,-2.8344,-2.7731,-2.704,-2.6667,-2.5401,-2.2806,-2.2806,-2.1714,-1.9339,-1.9147,-1.8468,-1.7442,-1.6934,-1.6587,-1.638,-1.6079,-1.5952,-1.5945,-1.5865,-1.5832,-1.5832,-1.5832,-1.5832,-1.5832,-1.5832,-1.5832,-1.5832,-1.5832,-1.6386,-1.7225,-1.7225,-1.7702,-1.8347,-1.8347,-1.8284,-1.8304,-1.8304,-1.8478,-1.8856,-1.9323,-2.0061,-2.0802,-2.1176,-2.1447,-2.15,-2.0741,-2.0521,-2.0027,-1.9005,-1.7581,-1.6286,-1.5818,-1.5043,-1.4573,-1.4573,-1.4296,-1.4131,-1.4049,-1.3547,-1.326,-1.3387,-1.3133,-1.2959,-1.2959,-1.2559,-1.2051,-1.1463,-1.1229,-1.0949,-1.0638,-1.0698,-1.0681,-1.0681,-1.0091,-1.0154,0.0,0.0,0.0,0.0,0.0,0.0,0.0,0.0,0.0,0.0,0.0,0.0,0.0,0.0,0.0,0.0,0.0,0.0,0.0,0.0,0.0,0.0,-2.951,-3.151,-3.3733,-3.3781,-3.418,-3.5643,-3.5463,-3.4933,-3.4232,-3.3994,-3.311,-3.1116,-3.0317,-2.9445,-2.8388,-2.8057,-2.737,-2.6145,-2.6063,-2.4608,-2.1586,-2.1586,-2.0651,-1.8918,-1.8631,-1.8237,-1.7762,-1.7288,-1.6914,-1.6627,-1.6326,-1.6126,-1.6005,-1.5879,-1.5832,-1.5832,0.0,0.0,0.0,0.0,-1.5832,-1.5927,-1.6386,-1.7037,-1.7755,-1.8064,-1.8736,-1.9464,-1.9307,-1.9373,-1.9497,-1.9497,-1.9852,-2.0215,-2.0215,-2.1123,-2.1994,-2.1817,-2.215,-2.2213,-2.1267,-2.1325,-2.12,-2.0205,-1.935,0.0,-1.7613,-1.572,-1.4229,-1.4108,-1.3941,-1.3828,-1.3828,-1.3574,-1.3615,-1.4258,-1.4078,-1.3839,-1.3712,-1.336,0.0,0.0,0.0,-1.1042,-1.0755,-1.0742,0.0,0.0,0.0,-1.0533,-1.1176,-1.0814,0.0,0.0,-1.1844,-1.1937,0.0,0.0,0.0,0.0,0.0,0.0,0.0,0.0,0.0,0.0,0.0,0.0,0.0,0.0,0.0,0.0,-3.1178,-3.3254,-3.5538,-3.4405,-3.4018,-3.5489,-3.4933,-3.4287,-3.3708,-3.3797,-3.2967,-3.0514,-3.011,-2.9503,-2.8165,-2.8067,0.0,0.0,0.0,-2.4258,-2.1365,-2.1358,-2.0558,-1.8971,-1.8677,-1.8384,-1.8083,-1.7742,-1.7402,-1.7081,-1.6787,-1.6493,-1.6206,-1.5939,-1.5832,-1.5832,-1.5832,-1.5832,-1.5832,-1.5832,-1.592,-1.6204,-1.7318,0.0,0.0,-1.8799,-1.9468,-1.9785,-1.9326,-1.9558,-1.9951,-1.9951,-2.0666,-2.148,-2.148,-2.2306,-2.296,-2.2494,-2.2425,-2.1976,-2.0201,-2.1156,-2.2015,-2.0848,-2.0616,-2.0288,-1.9196,-1.6585,-1.4609,-1.4215,-1.4128,-1.4095,-1.4128,-1.3958,-1.426,-1.5242,-1.511,0.0,-1.4577,-1.4374,-1.3534,-1.2022,-1.161,-1.1309,-1.1049,-1.1042,-1.1162,-1.1423,-1.1423,-1.1443,-1.1476,-1.177,-1.2071,-1.2345,-1.2084,-1.2124,0.0,0.0,0.0,0.0,0.0,0.0,0.0,0.0,0.0,0.0,0.0,0.0,0.0,0.0,0.0,-2.9315,-3.1021,-3.2671,-3.3979,-3.2735,-3.2921,-3.6371,-3.4632,-3.3373,-3.4136,-3.2286,-3.0824,-3.0317,-2.9303,-2.8038,-2.6599,-2.649,-2.5261,-2.2589,-2.2476,-2.1593,-1.9815,-1.9815,-1.9673,-1.9279,-1.8978,0.0,-1.839,-1.7836,-1.7295,-1.6774,-1.648,-1.6192,-1.5912,-1.5852,-1.5832,-1.5832,-1.5832,-1.5832,-1.5832,-1.5832,-1.648,-1.7412,-1.7598,-1.8948,-2.0604,-2.0395,-2.1259,-2.2328,-2.1921,-2.2082,0.0,-2.2403,-2.2589,-2.2765,-2.2765,-2.296,-2.2843,-2.1752,-2.1779,-2.137,-1.9204,-2.0125,-2.114,-2.0026,-1.9338,-1.8768,-1.8312,-1.6955,-1.567,-1.494,-1.4389,-1.4168,-1.4402,-1.4916,-1.5462,-1.5881,-1.5703,-1.5479,-1.5419,-1.4002,-1.2893,-1.2238,-1.1717,-1.1403,-1.1343,-1.1343,-1.1369,-1.1423,-1.1423,-1.1543,-1.1784,-1.2078,-1.2371,-1.2735,-1.2681,-1.2746,0.0,0.0,0.0,0.0,0.0,0.0,0.0,0.0,0.0,0.0,0.0,-2.5812,-2.6364,0.0,-2.9353,-3.0599,-3.161,-3.239,-3.2807,-3.1916,-3.2051,-3.4295,-3.2942,-3.1519,-3.0996,-2.9964,-2.8769,-2.7375,-2.6655,-2.6011,-2.5216,-2.5034,-2.3933,-2.1699,-2.1586,-2.0923,-1.9366,-1.9366,-1.9366,-1.9366,-1.9065,-1.8771,-1.847,-1.7856,-1.7261,-1.6693,-1.64,-1.6106,-1.5832,-1.5832,-1.5832,-1.5825,-1.648,-1.6763,-1.6763,-1.6763,-1.7584,-1.8688,-1.9314,-2.0305,-2.1318,-2.1565,-2.2255,-2.3057,-2.2637,-2.2812,-2.3135,-2.3135,-2.3135,-2.3135,-2.3135,-2.2677,-2.2161,-2.1964,-2.108,-2.0296,-2.0192,-2.0568,-2.094,-2.0743,-2.0762,-2.0252,-1.8654,-1.783,-1.6806,-1.4797,-1.4767,-1.479,-1.4368,-1.4663,-1.5195,-1.5844,-1.5793,-1.5636,-1.5472,-1.386,-1.2694,-1.2318,-1.1891,-1.1583,-1.143,-1.1423,-1.1496,-1.1643,-1.165,-1.1864,-1.2378,-1.2452,-1.2516,-1.2374,-1.2942,-1.328,0.0,0.0,0.0,0.0,0.0,0.0,0.0,-2.3914,-2.4013,-2.545,-2.6577,-2.757,-2.8561,-2.9412,-3.035,-3.1655,-3.1771,-3.1612,-3.1565,-3.0945,-3.0545,-3.0755,-3.0376,-2.9215,-2.7156,-2.7368,-2.6664,-2.4472,-2.4195,-2.4065,-2.391,-2.3569,-2.271,-2.1252,-2.1137,-2.0587,-1.9366,-1.9366,-1.9366,-1.9366,-1.9065,-1.8771,-1.847,-1.7856,-1.7261,-1.6687,-1.6339,-1.6052,-1.5832,-1.5832,-1.592,-1.6292,-1.7318,-1.7963,-1.8411,-1.8141,-1.8772,-1.9943,-2.0935,-2.1471,-2.178,-2.2284,-2.2793,-2.3057,-2.2637,-2.2812,-2.3135,-2.3135,-2.3135,-2.3135,-2.3135,-2.2217,-2.1398,-2.1814,-2.0517,-1.9485,-2.0762,-2.0967,-2.104,-2.1508,-2.2072,-2.1677,-1.9067,-1.8556,-1.7642,-1.474,-1.493,-1.5075,-1.4247,-1.4284,-1.4734,-1.5621,-1.5696,-1.5487,-1.5006,-1.3731,-1.2792,-1.2498,-1.2204,-1.1931,-1.169,-1.1623,-1.1737,-1.2031,-1.2037,-1.2305,-1.2916,-1.2893,-1.2679,-1.2282,-1.3276,-1.3556,-1.713,-1.9629,-2.2396,-2.3935,-2.3711,-2.4008,0.0,-2.6669,-2.6015,-2.8545,-2.9628,-3.0331,-3.0922,-3.066,-3.0419,-3.0587,-3.0113,-2.9727,-2.9658,-2.8713,-2.7547,-2.6355,-2.6695,-2.6739,-2.5665,-2.4889,-2.434,-2.4342,-2.4069,-2.3344,-2.2281,-2.1987,-2.1145,-1.97,-1.9707,-1.9591,-1.9366,-1.9366,-1.9366,-1.9366,-1.9065,-1.8771,-1.847,-1.7856,-1.7261,-1.6673,-1.6119,-1.5858,-1.5832,-1.5832,-1.648,-1.7505,-1.7591,-1.9047,-2.0755,-1.967,-2.0034,-2.1114,-2.1293,-2.2031,-2.2882,-2.2561,-2.2793,-2.3057,-2.2637,-2.2812,-2.3135,-2.3135,-2.3135,-2.3135,-2.3135,-2.2217,-2.1016,-2.0073,-2.0164,-1.9992,-1.8087,-1.9885,-2.1499,-2.0568,-2.0446,-2.0045,-1.8398,-1.8234,-1.7715,-1.5575,-1.467,-1.4345,-1.4436,-1.5064,-1.5538,-1.5703,-1.5696,-1.5165,-1.3906,-1.3662,-1.342,-1.3126,-1.2819,-1.2708,-1.2674,-1.2345,-1.2345,-1.2721,-1.2721,-1.2819,-1.316,-1.3414,-1.3492,-1.3395,-1.3831,-1.351,-2.1127,-2.262,-2.3875,-2.5664,-2.578,-2.5863,-2.7475,-2.6804,-2.6382,-2.8094,-2.9044,-2.9526,-2.9726,-2.9834,-2.9814,-2.9814,-2.9545,-2.9131,-2.8412,-2.7222,-2.5555,-2.3277,-2.2935,-2.2711,-2.2543,-2.2648,-2.2498,-2.1737,-2.1503,-2.1256,-2.0704,-2.0424,-2.0033,-1.9366,-1.9366,-1.9366,-1.9366,-1.9366,-1.9366,-1.9366,-1.9065,-1.8677,-1.821,-1.7609,-1.7007,-1.6433,-1.6012,-1.5925,-1.6169,-1.6651,-1.7225,-1.787,-1.9222,-2.0395,-2.1203,-2.0747,-2.1302,-2.2306,-2.2306,-2.2677,-2.3105,-2.293,-2.2998,-2.3105,-2.293,-2.2998,-2.296,-2.2217,-2.2031,-2.1854,-2.1221,-2.0133,-1.9222,-1.9488,-1.9199,-1.9093,-1.9519,-2.0659,-2.1549,-2.157,-2.1722,-2.113,-1.8824,-1.863,-1.7992,-1.5732,-1.53,-1.5042,-1.4589,-1.4675,-1.4734,-1.4734,-1.4734,-1.4518,-1.3908,-1.3741,-1.3512,-1.3467,-1.318,-1.2933,-1.2829,-1.2799,-1.2806,-1.2822,-1.2926,-1.3166,-1.346,-1.3587,-1.3302,-1.2859,-1.3678,-1.3464,-2.3367,-2.4514,-2.5264,-2.7039,-2.7167,-2.6976,-2.7174,-2.6689,-2.6378,-2.7424,-2.8154,-2.8623,-2.8757,-2.8898,-2.8866,-2.8866,-2.8588,-2.8038,-2.722,-2.5796,-2.4013,-2.1517,-2.0366,-1.9775,-1.9671,-2.0562,-2.0748,-1.9905,-1.9726,-1.9746,-1.9913,-1.9646,-1.9519,-1.9599,-1.9606,-1.9606,-1.9606,-1.9526,-1.9486,-1.9479,-1.9025,-1.8584,-1.815,-1.7462,-1.6827,-1.6259,-1.6046,-1.6025,-1.6229,-1.7225,-1.787,-1.8411,-2.0486,-2.148,-2.1756,-2.1756,-2.2306,-2.3135,-2.3135,-2.3135,-2.3135,-2.3135,-2.3135,-2.3135,-2.3135,-2.3135,-2.2862,-2.1658,-2.1293,-2.1025,-1.9852,-1.8596,-1.7963,-1.8772,-1.8319,-1.8226,-2.0395,-2.1025,-2.1575,-2.2476,-2.293,-2.228,-1.9806,-1.9309,-1.8449,-1.6211,-1.5892,-1.5545,-1.4623,-1.4269,-1.4088,-1.4088,-1.4088,-1.4088,-1.4088,-1.3895,-1.3768,-1.3768,-1.3494,-1.3227,-1.3006,-1.3133,-1.314,-1.2999,-1.3213,-1.3474,-1.3768,-1.3768,-1.3438,-1.2851,-1.373,-1.3646,-2.1798,-2.3781,-2.6,-2.767,-2.7221,-2.6601,-2.7453,-2.6831,-2.6424,-2.7358,-2.8093,-2.8735,-2.9295,-2.8402,-2.7683,-2.7683,-2.6668,-2.583,-2.5732,-2.4369,-2.2814,-2.1402,-2.0045,-1.8804,-1.7786,-1.8534,-1.9185,-1.976,-1.9539,-1.9626,-2.0187,-1.9947,-1.9913,-2.0194,-2.0207,-2.0207,-2.0207,-1.9927,-1.9786,-1.978,-1.8918,-1.8497,-1.845,-1.7555,-1.6827,-1.6273,-1.6259,-1.6099,-1.5933,-1.7131,-1.8411,-1.9588,-2.0845,-2.2031,-2.3047,-2.3047,-2.3047,-2.3135,-2.3135,-2.3135,-2.3135,-2.3135,-2.3135,-2.3135,-2.3135,-2.3135,-2.2862,-2.1658,-2.1293,-2.1025,-1.9852,-1.8596,-1.7692,-1.7785,-1.7692,-1.8048,-1.9314,-2.0486,-2.1658,-2.2853,-2.3125,-2.264,-2.1135,-2.0047,-1.8993,-1.7387,-1.6176,-1.5164,-1.4596,-1.4269,-1.4088,-1.4088,-1.4088,-1.4088,-1.4088,-1.4082,-1.4075,-1.4075,-1.3794,-1.3546,-1.3621,-1.3353,-1.334,-1.3614,-1.3546,-1.3774,-1.4075,-1.4075,-1.4075,-1.4082,-1.4088,-1.4088,-2.4052,-2.5886,-2.7482,-2.8411,-2.8252,-2.7877,-2.776,-2.7122,-2.6465,-2.6355,-2.606,-2.5839,-2.6074,-2.5756,-2.5488,-2.5488,-2.5628,-2.5742,-2.5742,-2.3673,-2.1892,-2.1003,-1.9287,-1.7908,-1.7405,-1.7929,-1.8584,-1.9178,-1.9132,-1.9332,-1.9913,-1.9853,-1.9933,-2.0221,-2.0234,-2.0234,-2.0234,-1.9947,-1.98,-1.9786,-1.8711,-1.7989,-1.7582,-1.7081,-1.6854,-1.684,-1.6647,-1.6986,-1.7635,-1.8737,-1.9795,-2.0845,-2.2031,-2.2765,-2.3135,-2.3135,-2.3135,-2.3135,-2.3135,-2.3135,-2.3135,-2.3135,-2.3135,-2.3135,-2.3135,-2.3135,-2.2862,-2.1658,-2.0755,-1.9852,-1.8588,-1.7404,-1.648,-1.648,-1.7669,-1.9047,-1.9397,-2.1042,-2.2589,-2.3047,-2.3135,-2.2726,-2.1396,-2.0219,-1.8816,-1.66,-1.5783,-1.5257,-1.4863,-1.473,-1.4596,-1.4396,-1.4376,-1.4295,-1.4108,-1.4088,-1.4088,-1.4088,-1.4175,-1.4048,-1.3661,-1.4115,-1.4142,-1.3572,-1.4028,-1.4182,-1.4088,-1.4088,-1.4088,-1.4088,-1.4088,-1.4088,-2.5827,-2.7156,-2.8047,-2.9001,-2.8674,-2.8084,-2.7794,-2.6881,-2.5966,-2.5526,-2.4922,-2.4375,-2.4219,-2.4072,-2.3916,-2.376,-2.4336,-2.4675,-2.4336,-2.2461,-2.0892,-2.0305,-1.8492,-1.7281,-1.7301,-1.7655,-1.817,-1.8871,-1.9118,-1.9446,-1.9927,-2.0054,-2.0247,-2.0535,-2.0548,-2.0494,-2.0394,-2.01,-1.98,-1.9472,-1.9042,-1.8673,-1.8268,-1.8448,-1.8549,-1.8622,-1.8411,-1.8587,-1.9124,-2.0226,-2.0924,-2.1391,-2.2589,-2.3135,-2.3135,-2.3135,-2.3135,-2.3135,-2.3135,-2.3135,-2.3135,-2.3135,-2.3135,-2.3135,-2.3135,-2.3135,-2.2862,-2.1658,-2.0755,-1.9761,-1.8141,-1.7131,-1.648,-1.648,-1.7669,-1.9131,-1.9943,-2.1391,-2.2589,-2.3047,-2.3135,-2.2862,-2.212,-2.0576,-1.8856,-1.6756,-1.5946,-1.5444,-1.5157,-1.503,-1.489,-1.4696,-1.4676,-1.4603,-1.4416,-1.4402,-1.4355,-1.4249,-1.4416,-1.4349,-1.3975,-1.4502,-1.4589,-1.4122,-1.4382,-1.4429,-1.4242,-1.4135,-1.4088,-1.4088,-1.4088,-1.4088,-2.6687,-2.7533,-2.7745,-2.9352,-2.8476,-2.7363,-2.7674,-2.6386,-2.5189,-2.5094,-2.4629,-2.4189,-2.3769,-2.3389,-2.3008,-2.2607,-2.2843,-2.2837,-2.1969,-2.0781,-1.9702,-1.929,-1.7722,-1.6994,-1.7549,-1.7635,-1.8003,-1.8858,-1.9439,-1.9887,-2.0194,-2.0494,-2.0788,-2.1076,-2.1102,-2.0975,-2.0702,-2.0388,-1.9786,-1.8898,-2.001,-2.0327,-2.0091,-2.1194,-2.1553,-2.123,-2.123,-2.0823,-2.0364,-2.1516,-2.1817,-2.1507,-2.2715,-2.3154,-2.3135,-2.3135,-2.3135,-2.3135,-2.3135,-2.3135,-2.3135,-2.3135,-2.3135,-2.3135,-2.3135,-2.3135,-2.2862,-2.1756,-2.1382,-2.0755,-1.8503,-1.787,-1.7777,-1.7777,-1.787,-1.8503,-2.0845,-2.1382,-2.1756,-2.2862,-2.3047,-2.296,-2.296,-2.1042,-1.9039,-1.7777,-1.6662,-1.5913,-1.5544,-1.5268,-1.5003,-1.499,-1.4983,-1.4977,-1.4963,-1.4963,-1.4843,-1.4563,-1.4556,-1.4556,-1.4543,-1.4569,-1.4703,-1.4957,-1.4703,-1.4549,-1.4522,-1.4242,-1.4102,-1.4088,-1.4088,-1.4088,-2.6648,-2.7677,-2.8612,-2.9038,-2.909,-2.904,-2.8621,-2.7554,-2.6365,-2.5502,-2.4115,-2.2871,-2.2451,-2.2539,-2.2744,-2.2949,-2.3032,-2.3067,-2.3187,-2.1147,-1.9611,-1.9485,-1.8429,-1.7756,-1.7889,-1.831,-1.8677,-1.8905,-1.9065,-1.9372,-1.988,-2.0187,-2.0481,-2.0775,-2.0995,-2.1076,-2.1002,-2.0488,-1.9686,-1.8604,-1.9909,-2.0201,-1.9754,-2.1081,-2.1694,-2.1603,-2.1603,-2.1849,-2.2302,-2.2599,-2.2861,-2.3156,-2.3524,-2.3428,-2.3135,-2.3135,-2.3135,-2.3135,-2.3135,-2.3135,-2.3135,-2.3135,-2.3135,-2.3135,-2.3135,-2.3135,-2.3047,-2.2775,-2.2031,-2.1203,-2.0576,-1.967,-1.9039,-1.9039,-1.9761,-2.0567,-2.1203,-2.2031,-2.2765,-2.3047,-2.2394,-2.148,-2.0584,-1.9951,-1.8764,-1.6567,-1.7576,-1.8187,-1.7208,-1.6206,-1.5524,-1.5311,-1.5284,-1.5197,-1.4983,-1.4963,-1.493,-1.4856,-1.5057,-1.5077,-1.4863,-1.5271,-1.5324,-1.497,-1.5104,-1.4957,-1.4522,-1.4442,-1.4302,-1.4088,-1.4088,-1.4088,-2.7157,-2.778,-2.8323,-2.88,-2.8771,-2.8512,-2.7649,-2.679,-2.5658,-2.4193,-2.2983,-2.2109,-2.168,-2.1797,-2.1963,-2.2002,-2.2463,-2.276,-2.2582,-2.1072,-1.9899,-1.9598,-1.8562,-1.7889,-1.8016,-1.8457,-1.8784,-1.8911,-1.9158,-1.9452,-1.978,-2.0074,-2.0368,-2.0668,-2.0835,-2.0855,-2.0728,-2.0267,-1.9586,-1.8677,-2.0471,-2.1191,-2.0773,-2.2653,-2.3484,-2.3484,-2.3484,-2.3654,-2.3877,-2.3877,-2.3879,-2.3789,-2.3789,-2.3525,-2.3135,-2.3135,-2.3135,-2.3135,-2.3135,-2.3135,-2.3135,-2.3135,-2.3135,-2.3135,-2.3135,-2.3135,-2.3135,-2.3135,-2.2589,-2.1943,-2.14,-2.0764,-2.0305,-2.0305,-2.0845,-2.148,-2.1943,-2.2589,-2.295,-2.2403,-2.1756,-2.0755,-1.9047,-1.9131,-1.9039,-1.7662,-1.858,-1.9222,-1.8596,-1.7404,-1.6324,-1.5698,-1.5585,-1.5518,-1.5357,-1.5344,-1.5291,-1.5164,-1.5304,-1.5324,-1.5164,-1.5464,-1.5545,-1.5344,-1.5378,-1.517,-1.4716,-1.4583,-1.4369,-1.4088,-1.4088,-1.4088,-2.765,-2.7798,-2.7507,-2.8473,-2.7959,-2.6948,-2.6029,-2.5169,-2.419,-2.2513,-2.1994,-2.1732,-2.1302,-2.1183,-2.1055,-2.0791,-2.1564,-2.1996,-2.1455,-2.072,-2.0047,-1.9776,-1.8485,-1.7782,-1.813,-1.8397,-1.8651,-1.8905,-1.9432,-1.974,-1.974,-2.0013,-2.0327,-2.0668,-2.0675,-2.0535,-2.0234,-1.9987,-1.9636,-1.919,-2.1395,-2.2429,-2.2336,-2.4622,-2.5684,-2.5732,-2.5674,-2.5459,-2.5156,-2.5156,-2.4678,-2.3955,-2.3896,-2.3613,-2.3213,-2.3164,-2.3135,-2.3135,-2.3135,-2.3135,-2.3135,-2.3135,-2.3135,-2.3135,-2.3135,-2.3135,-2.3135,-2.3135,-2.3135,-2.2872,-2.1784,-2.1498,-2.1569,-2.1569,-2.1569,-2.1845,-2.2862,-2.3135,-2.2765,-2.1569,-2.1293,-2.0666,-1.8503,-1.9047,-1.967,-1.9497,-1.9761,-1.977,-1.9314,-1.8326,-1.7225,-1.592,-1.5832,-1.5832,-1.5832,-1.5832,-1.5718,-1.5471,-1.5451,-1.5451,-1.5451,-1.5451,-1.5571,-1.5825,-1.5578,-1.5311,-1.5023,-1.4763,-1.4469,-1.4142,-1.4142,-1.4122,-2.6709,-2.7056,-2.7331,-2.7519,-2.7127,-2.6625,-2.6048,-2.4803,-2.3631,-2.347,-2.2315,-2.1332,-2.1401,-2.1034,-2.0898,-2.1553,-2.125,-2.1291,-2.2488,-2.0655,-1.9505,-2.0223,-1.8947,-1.8176,-1.8718,-1.8818,-1.8871,-1.8918,-1.9245,-1.9446,-1.9446,-1.972,-2.012,-2.0661,-2.0675,-2.0535,-2.0234,-2.018,-2.0186,-2.0267,-2.1818,-2.282,-2.3473,-2.4678,-2.5391,-2.5713,-2.5352,-2.5352,-2.5625,-2.5625,-2.5312,-2.4814,-2.4453,-2.4053,-2.3633,-2.3271,-2.3135,-2.3135,-2.3135,-2.3135,-2.3135,-2.3135,-2.3135,-2.3135,-2.3135,-2.3135,-2.3135,-2.3135,-2.3135,-2.3047,-2.2872,-2.2775,-2.2775,-2.2775,-2.2775,-2.2862,-2.3047,-2.3135,-2.2765,-2.1569,-2.1293,-2.1203,-2.0755,-2.0845,-2.0666,-1.967,-2.1221,-2.1409,-1.8419,-1.787,-1.7225,-1.592,-1.5832,-1.5832,-1.5832,-1.5832,-1.5805,-1.5758,-1.5752,-1.5752,-1.5752,-1.5752,-1.5778,-1.5832,-1.5778,-1.5611,-1.5317,-1.5271,-1.497,-1.4442,-1.4442,-1.4315,-2.7018,-2.6972,-2.6917,-2.7205,-2.7157,-2.6602,-2.5408,-2.4672,-2.3877,-2.239,-2.1998,-2.1665,-2.0785,-2.1004,-2.1215,-2.0899,-2.1091,-2.1633,-2.285,-2.1761,-2.1081,-2.2072,-2.0891,-1.9783,-1.9254,-1.958,-1.9445,-1.8698,-1.9112,-1.9366,-1.9366,-1.9639,-2.0,-2.0434,-2.0595,-2.0608,-2.0468,-2.0307,-2.0399,-2.0751,-2.1981,-2.2891,-2.3782,-2.4908,-2.5537,-2.5723,-2.5508,-2.541,-2.541,-2.5644,-2.5205,-2.4404,-2.4414,-2.4014,-2.3428,-2.3213,-2.3135,-2.3135,-2.3135,-2.3135,-2.3135,-2.3135,-2.3135,-2.3135,-2.3135,-2.3135,-2.3135,-2.3135,-2.3135,-2.3135,-2.3135,-2.3135,-2.3135,-2.3135,-2.3135,-2.3135,-2.3135,-2.3135,-2.2765,-2.1569,-2.1293,-2.1114,-2.0486,-2.0845,-2.1114,-2.0486,-2.1952,-2.2227,-1.9861,-1.9047,-1.7948,-1.6015,-1.5832,-1.5832,-1.5832,-1.5832,-1.5832,-1.5832,-1.5832,-1.5832,-1.5832,-1.5832,-1.5832,-1.5832,-1.5832,-1.5685,-1.5398,-1.5398,-1.509,-1.4522,-1.4522,-1.4362,-2.7406,-2.7126,-2.6828,-2.7062,-2.6951,-2.6371,-2.4542,-2.4294,-2.3849,-2.168,-2.2017,-2.2347,-2.1052,-2.1426,-2.1507,-2.0522,-2.1076,-2.1992,-2.3125,-2.2722,-2.2766,-2.3827,-2.2808,-2.1401,-2.0039,-2.0297,-2.0077,-1.8695,-1.9072,-1.9366,-1.9366,-1.9586,-1.9867,-2.0221,-2.0461,-2.0581,-2.0581,-2.0706,-2.0904,-2.1311,-2.2452,-2.341,-2.4196,-2.513,-2.5596,-2.5586,-2.5498,-2.5254,-2.4951,-2.5312,-2.4853,-2.3945,-2.4189,-2.3867,-2.3271,-2.3174,-2.3135,-2.3135,-2.3135,-2.3135,-2.3135,-2.3135,-2.3135,-2.3135,-2.3135,-2.3135,-2.3135,-2.3135,-2.3135,-2.3135,-2.3135,-2.3135,-2.3135,-2.3135,-2.3135,-2.3047,-2.2775,-2.295,-2.2765,-2.1569,-2.148,-2.1391,-2.0395,-2.1033,-2.1667,-2.1667,-2.2492,-2.2677,-2.148,-2.0215,-1.8672,-1.648,-1.592,-1.5832,-1.5832,-1.5832,-1.5832,-1.5832,-1.5832,-1.5832,-1.5832,-1.5832,-1.5832,-1.5832,-1.5832,-1.5718,-1.5491,-1.5491,-1.5217,-1.4703,-1.4643,-1.4496,-2.6969,-2.7184,-2.743,-2.6709,-2.5877,-2.4943,-2.3811,-2.3202,-2.299,-2.3206,-2.2937,-2.2917,-2.3746,-2.2584,-2.1544,-2.1761,-2.1195,-2.1396,-2.3447,-2.2991,-2.2973,-2.4481,-2.359,-2.2338,-2.1031,-2.1003,-2.0395,-1.8991,-1.9185,-1.9366,-1.9366,-1.9392,-1.9659,-2.0214,-2.0261,-2.0274,-2.0274,-2.1548,-2.2283,-2.2371,-2.3825,-2.4876,-2.5518,-2.5312,-2.5127,-2.5107,-2.4707,-2.4512,-2.4482,-2.4521,-2.4473,-2.4326,-2.3984,-2.3799,-2.3682,-2.3291,-2.3135,-2.3135,-2.3135,-2.3135,-2.3135,-2.3135,-2.3135,-2.3135,-2.3135,-2.3135,-2.3135,-2.3135,-2.3135,-2.3135,-2.3135,-2.3135,-2.3135,-2.3135,-2.3135,-2.2775,-2.1658,-2.2306,-2.2765,-2.1569,-2.2217,-2.2862,-2.2775,-2.2862,-2.295,-2.295,-2.3047,-2.2677,-2.148,-2.0215,-1.8948,-1.7684,-1.648,-1.5832,-1.5832,-1.5832,-1.5832,-1.5832,-1.5832,-1.5832,-1.5832,-1.5832,-1.5832,-1.5832,-1.5832,-1.5812,-1.5792,-1.5792,-1.5625,-1.5311,-1.5044,-1.491,-2.7516,-2.7597,-2.7484,-2.6714,-2.5382,-2.4218,-2.4296,-2.3073,-2.2071,-2.2446,-2.2648,-2.2501,-2.176,-2.1491,-2.1272,-2.0797,-2.0688,-2.1143,-2.2793,-2.2926,-2.3438,-2.5107,-2.4894,-2.3891,-2.2253,-2.2283,-2.1516,-1.9401,-1.9299,-1.9366,-1.9366,-1.9366,-1.9553,-1.996,-2.014,-2.0234,-2.0234,-2.1773,-2.2598,-2.2863,-2.4131,-2.4951,-2.5332,-2.543,-2.5176,-2.4678,-2.4775,-2.4658,-2.4414,-2.4414,-2.4268,-2.4023,-2.3857,-2.3633,-2.3379,-2.3203,-2.3135,-2.3135,-2.3135,-2.3135,-2.3135,-2.3135,-2.3135,-2.3135,-2.3135,-2.3135,-2.3135,-2.3135,-2.3135,-2.3135,-2.3135,-2.3135,-2.3135,-2.3135,-2.3135,-2.296,-2.2492,-2.2765,-2.296,-2.2492,-2.2775,-2.3135,-2.3135,-2.3135,-2.3135,-2.3135,-2.3135,-2.2677,-2.148,-2.0215,-1.9039,-1.787,-1.6574,-1.5832,-1.5832,-1.5832,-1.5832,-1.5832,-1.5832,-1.5832,-1.5832,-1.5832,-1.5832,-1.5832,-1.5832,-1.5832,-1.5832,-1.5832,-1.5678,-1.5391,-1.5277,-1.513,-2.7436,-2.7773,-2.7815,-2.6566,-2.514,-2.4136,-2.4478,-2.3119,-2.1864,-2.2219,-2.2509,-2.2319,-2.1164,-2.1269,-2.1385,-2.0787,-2.0779,-2.1221,-2.2519,-2.3066,-2.3887,-2.5361,-2.5664,-2.5045,-2.352,-2.2953,-2.1834,-1.9699,-1.9412,-1.9366,-1.9366,-1.9366,-1.9499,-1.9786,-2.0,-2.0107,-2.0107,-2.209,-2.2965,-2.292,-2.4579,-2.528,-2.5078,-2.54,-2.5059,-2.4248,-2.4551,-2.4443,-2.4043,-2.4043,-2.3867,-2.3594,-2.3594,-2.3408,-2.3135,-2.3135,-2.3135,-2.3135,-2.3135,-2.3135,-2.3135,-2.3135,-2.3135,-2.3135,-2.3135,-2.3135,-2.3135,-2.3135,-2.3135,-2.3135,-2.3135,-2.3135,-2.3135,-2.3135,-2.3135,-2.3135,-2.3135,-2.3135,-2.3135,-2.3135,-2.3135,-2.3135,-2.3135,-2.3135,-2.3135,-2.3135,-2.3135,-2.2677,-2.148,-2.0215,-1.9039,-1.787,-1.6574,-1.5832,-1.5832,-1.5832,-1.5832,-1.5832,-1.5832,-1.5832,-1.5832,-1.5832,-1.5832,-1.5832,-1.5832,-1.5832,-1.5832,-1.5832,-1.5725,-1.5524,-1.5438,-1.5291,-2.651,-2.7487,-2.847,-2.6176,-2.5209,-2.4682,-2.413,-2.3186,-2.2651,-2.3171,-2.2995,-2.286,-2.3341,-2.2691,-2.2174,-2.2569,-2.1819,-2.168,-2.2978,-2.3516,-2.4102,-2.4971,-2.5469,-2.5452,-2.4792,-2.2844,-2.1161,-1.9885,-1.9533,-1.9366,-1.9366,-1.9366,-1.9499,-1.9786,-1.9806,-1.9806,-1.9806,-2.2783,-2.3718,-2.2544,-2.5515,-2.6328,-2.5068,-2.5068,-2.4609,-2.3799,-2.3799,-2.3555,-2.3154,-2.3154,-2.3154,-2.3144,-2.3144,-2.3144,-2.3135,-2.3135,-2.3135,-2.3135,-2.3135,-2.3135,-2.3135,-2.3135,-2.3135,-2.3135,-2.3135,-2.3135,-2.3135,-2.3135,-2.3135,-2.3135,-2.3135,-2.3135,-2.3135,-2.3135,-2.3135,-2.3135,-2.3135,-2.3135,-2.3135,-2.3135,-2.3135,-2.3135,-2.3135,-2.3135,-2.3135,-2.3135,-2.3135,-2.2677,-2.148,-2.0215,-1.9039,-1.787,-1.6574,-1.5832,-1.5832,-1.5832,-1.5832,-1.5832,-1.5832,-1.5832,-1.5832,-1.5832,-1.5832,-1.5832,-1.5832,-1.5832,-1.5832,-1.5832,-1.5832,-1.5818,-1.5531,-1.5398,-2.5185,-2.5714,-2.614,-2.4313,-2.2837,-2.1946,-2.2456,-2.133,-2.0445,-2.1261,-2.1355,-2.1504,-2.2307,-2.1669,-2.1474,-2.2908,-2.2281,-2.2021,-2.3008,-2.376,-2.4648,-2.583,-2.6409,-2.6664,-2.658,-2.374,-2.194,-2.1831,-2.033,-1.9452,-1.9653,-1.9472,-1.9499,-1.9786,-1.98,-2.0253,-2.127,-2.2993,-2.3904,-2.4123,-2.5767,-2.5898,-2.4639,-2.4932,-2.4434,-2.3359,-2.3662,-2.3711,-2.3555,-2.3262,-2.332,-2.3555,-2.3262,-2.3135,-2.3135,-2.3135,-2.3135,-2.3135,-2.3135,-2.3135,-2.3135,-2.3135,-2.3135,-2.3135,-2.3135,-2.3135,-2.3135,-2.3135,-2.3135,-2.3135,-2.3135,-2.3135,-2.3135,-2.3135,-2.3135,-2.3135,-2.3135,-2.3135,-2.3135,-2.3135,-2.3135,-2.3135,-2.3135,-2.3135,-2.3135,-2.3135,-2.2403,-2.1391,-2.0215,-1.9039,-1.777,-1.6574,-1.6015,-1.5832,-1.5832,-1.5832,-1.5832,-1.5832,-1.5832,-1.5832,-1.5832,-1.5832,-1.5832,-1.5832,-1.5832,-1.5832,-1.5832,-1.5832,-1.5832,-1.5825,-1.5732,-1.5691,0.0,-2.4299,-2.4657,-2.3145,-2.1947,-2.1195,-2.1486,-2.0572,-1.9807,-2.0485,-2.0484,-2.0592,-2.1344,-2.1151,-2.1273,-2.2524,-2.2396,-2.2422,-2.3271,-2.4121,-2.5146,-2.6465,-2.7195,-2.7306,-2.6197,-2.4384,-2.281,-2.1872,-2.0378,-1.9559,-1.9633,-1.9466,-1.9499,-1.9786,-1.9693,-2.0254,-2.1583,-2.2839,-2.3803,-2.4535,-2.561,-2.5537,-2.4424,-2.4541,-2.4062,-2.3154,-2.3428,-2.3545,0.0,-2.3252,-2.3301,-2.3516,-2.3242,-2.3135,-2.3135,-2.3135,-2.3135,-2.3135,-2.3135,-2.3135,-2.3135,-2.3135,-2.3135,-2.3135,-2.3135,-2.3135,-2.3135,-2.3135,-2.3135,-2.3135,-2.3135,-2.3135,-2.3135,-2.3135,-2.3135,-2.3135,-2.3135,-2.3135,-2.3135,-2.3135,-2.3135,-2.3135,-2.3135,-2.3135,-2.296,-2.2492,-2.1756,-2.0666,-1.9039,-1.8141,-1.7225,-1.592,-1.5832,-1.5832,-1.5832,-1.5832,-1.5832,-1.5832,-1.5832,-1.5832,-1.5832,-1.5832,-1.5832,-1.5832,-1.5832,-1.5832,-1.5832,-1.5832,-1.5832,-1.5832,-1.5832,-1.5832,0.0,-2.3184,-2.3826,-2.2528,-2.2196,-2.1965,-2.1176,-2.0722,0.0,-2.0555,-2.0252,-2.02,-2.075,-2.1105,-2.1458,-2.2093,-2.233,-2.2812,-2.3672,-2.4629,-2.5703,-2.6914,-2.7785,-2.7241,-2.4578,-2.4598,-2.3551,-2.0645,-1.9987,-1.9693,-1.9446,-1.9392,-1.9492,-1.976,-1.9506,-1.9894,-2.113,-2.2512,-2.353,-2.4224,-2.5172,-2.5225,-2.4355,-2.3965,-2.3555,-2.3135,-2.3135,-2.3135,-2.3135,-2.3135,-2.3135,-2.3135,-2.3135,-2.3135,-2.3135,-2.3135,-2.3135,-2.3135,-2.3135,-2.3135,-2.3135,-2.3135,-2.3135,-2.3135,-2.3135,-2.3135,-2.3135,-2.3135,-2.3135,-2.3135,-2.3135,-2.3135,-2.3135,-2.3135,-2.3135,-2.3135,-2.3135,-2.3135,-2.3135,-2.3135,-2.3135,-2.3047,-2.296,-2.296,-2.258,-2.1382,-2.1114,-2.0215,-1.7963,-1.7591,-1.7131,-1.592,-1.5832,-1.5832,-1.5832,-1.5832,-1.5832,-1.5832,-1.5832,-1.5832,-1.5832,-1.5832,-1.5832,-1.5832,-1.5832,-1.5832,-1.5832,-1.5832,-1.5832,-1.5832,-1.5832,-1.5832,-2.0256,0.0,-2.1524,-2.1183,-2.1054,-2.1033,0.0,0.0,-2.0468,-2.0555,0.0,0.0,-2.3167,-2.2812,-2.2845,-2.446,-2.3494,-2.2812,-2.3672,-2.5674,-2.7168,-2.748,-2.7986,-2.7782,-2.6056,-2.4485,-2.3301,-2.2835,-2.0925,-1.9867,-2.002,-1.9606,-1.9399,-1.9466,-1.9406,-2.0558,-2.2919,-2.2719,-2.3566,-2.536,-2.5237,-2.4775,-2.3935,-2.3838,-2.3555,-2.3135,-2.3135,-2.3135,-2.3135,-2.3135,-2.3135,-2.3135,-2.3135,-2.3135,-2.3135,-2.3135,-2.3135,-2.3135,-2.3135,-2.3135,-2.3135,-2.3135,-2.3135,-2.3135,-2.3135,-2.3135,-2.3135,-2.3135,-2.3135,-2.3135,-2.3135,-2.3135,-2.3135,-2.3135,-2.3135,-2.3135,-2.3135,-2.3135,-2.3135,-2.3135,-2.3135,-2.2775,-2.1845,-2.1747,-2.1302,-2.0124,-1.9131,-1.8319,-1.7777,-1.685,-1.6109,-1.5832,-1.5832,-1.5832,-1.5832,-1.5832,-1.5832,-1.5832,-1.5832,-1.5832,-1.5832,-1.5832,-1.5832,-1.5832,-1.5832,-1.5832,-1.5832,-1.5832,-1.5832,-1.5832,-1.5832,-1.5832,-1.9592,-1.9837,-1.9888,-2.024,-2.0652,-2.0958,-2.0698,0.0,0.0,0.0,0.0,0.0,0.0,0.0,-2.3361,-2.433,-2.3586,-2.3164,-2.4228,-2.5352,-2.6286,-2.7018,-2.6843,-2.6274,-2.5252,-2.4049,-2.3074,-2.2377,-2.0821,-2.0067,-2.0227,-1.9679,-1.9432,-1.9559,-1.9432,-2.0573,-2.3116,-2.2732,-2.3444,-2.543,-2.498,-2.4424,-2.3779,-2.3584,-2.3359,-2.3135,-2.3135,-2.3135,-2.3135,-2.3135,-2.3135,-2.3135,-2.3135,-2.3135,-2.3135,-2.3135,-2.3135,-2.3135,-2.3135,-2.3135,-2.3135,-2.3135,-2.3135,-2.3135,-2.3135,-2.3135,-2.3135,-2.3135,-2.3135,-2.3135,-2.3135,-2.3135,-2.3135,-2.3135,-2.3135,-2.3135,-2.3135,-2.3135,-2.3135,-2.3135,-2.3135,-2.2862,-2.2217,-2.1667,-2.0935,-1.967,-1.8503,-1.7505,-1.6943,-1.6204,-1.5832,-1.5832,-1.5832,-1.5832,-1.5832,-1.5832,-1.5832,-1.5832,-1.5832,-1.5832,-1.5832,-1.5832,-1.5832,-1.5832,-1.5832,-1.5832,-1.5832,-1.5832,-1.5832,-1.5832,-1.5832,-1.5832,-1.9423,-1.9158,-1.8845,-1.9611,-2.054,-2.1144,-2.0507,0.0,0.0,0.0,0.0,0.0,0.0,-2.3101,-2.3363,-2.351,-2.3478,-2.3767,-2.4793,-2.4585,-2.472,-2.5847,-2.5142,-2.4218,-2.3397,-2.3237,-2.2477,-2.0886,-2.0421,-2.0234,-2.0234,-1.9679,-1.9479,-1.9726,-1.9499,-2.0408,-2.2437,-2.2487,-2.3253,-2.4961,-2.4531,-2.4102,-2.3682,-2.3301,-2.3135,-2.3135,-2.3135,-2.3135,-2.3135,-2.3135,-2.3135,-2.3135,-2.3135,-2.3135,-2.3135,-2.3135,-2.3135,-2.3135,-2.3135,-2.3135,-2.3135,-2.3135,-2.3135,-2.3135,-2.3135,-2.3135,-2.3135,-2.3135,-2.3135,-2.3135,-2.3135,-2.3135,-2.3135,-2.3135,-2.3135,-2.3135,-2.3135,-2.3135,-2.3135,-2.3135,-2.3135,-2.296,-2.2589,-2.1667,-2.0567,-1.9131,-1.8041,-1.7037,-1.592,-1.5832,-1.5832,-1.5832,-1.5832,-1.5832,-1.5832,-1.5832,-1.5832,-1.5832,-1.5832,-1.5832,-1.5832,-1.5832,-1.5832,-1.5832,-1.5832,-1.5832,-1.5832,-1.5832,-1.5832,-1.5832,-1.5832,-1.5832,-1.8501,-1.8721,-1.8724,-1.9459,-2.0025,-2.0531,-2.0926,0.0,0.0,0.0,0.0,0.0,0.0,-2.3619,-2.3583,-2.4441,-2.4655,-2.4698,-2.4272,-2.5315,-2.5516,-2.372,-2.3653,-2.3308,-2.2024,-2.1628,-2.1335,-2.1049,-2.0541,-2.0234,-2.0234,-1.9679,-1.9392,-1.9432,-1.9392,-2.0408,-2.2437,-2.2136,-2.2863,-2.4512,-2.4092,-2.3662,-2.3242,-2.3164,-2.3135,-2.3135,-2.3135,-2.3135,-2.3135,-2.3135,-2.3135,-2.3135,-2.3135,-2.3135,-2.3135,-2.3135,-2.3135,-2.3135,-2.3135,-2.3135,-2.3135,-2.3135,-2.3135,-2.3135,-2.3135,-2.3135,-2.3135,-2.3135,-2.3135,-2.3135,-2.3135,-2.3135,-2.3135,-2.3135,-2.3135,-2.3135,-2.3135,-2.3135,-2.3135,-2.3135,-2.3135,-2.2413,-2.0404,-1.9861,-1.9031,-1.6749,-1.6197,-1.6015,-1.5832,-1.5832,-1.5832,-1.5832,-1.5832,-1.5832,-1.5832,-1.5832,-1.5832,-1.5832,-1.5832,-1.5832,-1.5832,-1.5832,-1.5832,-1.5832,-1.5832,-1.5832,-1.5832,-1.5832,-1.5832,-1.5832,-1.5832,-1.5832,-1.8501,-1.8947,-1.9275,-1.9507,-2.013,-2.0594,-2.0396,-2.0483,0.0,0.0,0.0,0.0,0.0,-2.3044,-2.3545,-2.4145,-2.3866,-2.3469,-2.3449,-2.2987,-2.2538,-2.21,-2.1591,-2.1314,-2.1303,-2.1087,-2.0875,-2.0875,-2.0327,-2.0067,-2.0227,-1.9833,-1.9599,-1.9599,-1.9599,-2.058,-2.2437,-2.1884,-2.2559,-2.4414,-2.3984,-2.3555,-2.3135,-2.3135,-2.3135,-2.3135,-2.3135,-2.3135,-2.3135,-2.3135,-2.3135,-2.3135,-2.3135,-2.3135,-2.3135,-2.3135,-2.3135,-2.3135,-2.3135,-2.3135,-2.3135,-2.3135,-2.3135,-2.3135,-2.3135,-2.3135,-2.3135,-2.3135,-2.3135,-2.3135,-2.3135,-2.3135,-2.3135,-2.3135,-2.3135,-2.3135,-2.3135,-2.3135,-2.3135,-2.3135,-2.258,-2.1756,-2.0666,-1.9405,-1.8133,-1.7037,-1.6197,-1.5832,-1.5832,-1.5832,-1.5832,-1.5832,-1.5832,-1.5832,-1.5832,-1.5832,-1.5832,-1.5832,-1.5832,-1.5832,-1.5832,-1.5832,-1.5832,-1.5832,-1.5832,-1.5832,-1.5832,-1.5832,-1.5832,-1.5832,-1.5832,-1.5832,-1.8661,-1.9088,-1.9495,-1.9526,0.0,-2.0398,-2.0014,-1.9995,0.0,0.0,0.0,0.0,0.0,-2.2267,-2.3183,-2.3306,-2.2888,-2.247,-2.2235,-2.0924,-2.0063,-2.0305,-1.9586,-1.9305,-1.9846,-2.0071,-2.0035,-2.0035,-1.9886,-1.9927,-2.0221,-1.9893,-1.9733,-1.98,-2.0006,-2.075,-2.2307,-2.189,-2.2593,-2.4414,-2.3887,-2.3467,-2.3135,-2.3135,-2.3135,-2.3135,-2.3135,-2.3135,-2.3135,-2.3135,-2.3135,-2.3135,-2.3135,-2.3135,-2.3135,-2.3135,-2.3135,-2.3135,-2.3135,-2.3135,-2.3135,-2.3135,-2.3135,-2.3135,-2.3135,-2.3135,-2.3135,-2.3135,-2.3135,-2.3135,-2.3135,-2.3135,-2.3135,-2.3135,-2.3135,-2.3135,-2.3135,-2.3135,-2.3135,-2.3135,-2.2129,-2.1212,-2.0935,-1.9131,-1.7598,-1.7318,-1.6386,-1.5832,-1.5832,-1.5832,-1.5832,-1.5832,-1.5832,-1.5832,-1.5832,-1.5832,-1.5832,-1.5832,-1.5832,-1.5832,-1.5832,-1.5832,-1.5832,-1.5832,-1.5832,-1.5832,-1.5832,-1.5832,-1.5832,-1.5832,-1.5832,-1.5832,-1.8501,-1.8646,-1.8748,-1.9277,-1.9229,0.0,-2.0322,-1.9463,0.0,-2.0431,0.0,-2.0391,-2.069,-2.1724,-2.239,-2.198,-2.2775,-2.2748,-2.0941,-2.1302,-2.0861,-1.8125,-1.8019,-1.7656,-1.6405,-1.7511,-1.8256,-1.8256,-1.9261,-1.9927,-2.0221,-1.97,-1.9519,-1.9793,-2.0487,-2.1152,-2.1916,-2.2421,-2.3308,-2.4404,-2.3584,-2.3164,-2.3135,-2.3135,-2.3135,-2.3135,-2.3135,-2.3135,-2.3135,-2.3135,-2.3135,-2.3135,-2.3135,-2.3135,-2.3135,-2.3135,-2.3135,-2.3135,-2.3135,-2.3135,-2.3135,-2.3135,-2.3135,-2.3135,-2.3135,-2.3135,-2.3135,-2.3135,-2.3135,-2.3135,-2.3135,-2.3135,-2.3135,-2.3135,-2.3135,-2.3135,-2.3135,-2.3135,-2.3135,-2.3135,-2.2148,-2.0962,-1.9861,-1.8596,-1.7318,-1.6109,-1.5832,-1.5832,-1.5832,-1.5832,-1.5832,-1.5832,-1.5832,-1.5832,-1.5832,-1.5832,-1.5832,-1.5832,-1.5832,-1.5832,-1.5832,-1.5832,-1.5832,-1.5832,-1.5832,-1.5832,-1.5832,-1.5832,-1.5832,-1.5832,-1.5832,-1.5832,-1.8768,-1.9521,-2.0294,-1.9999,-1.9907,0.0,0.0,-1.8666,-1.8036,-1.8767,-1.8797,-1.8901,-2.0035,-1.9835,-1.9932,-2.1302,-2.1092,-2.024,-1.897,-1.8704,-1.7941,-1.6227,-1.6113,-1.6011,-1.5741,-1.692,-1.7643,-1.7643,-1.8896,-1.9214,-1.822,-1.9168,-1.9031,-1.7824,-1.9765,-2.1109,-2.1661,-2.2132,-2.3017,-2.4014,-2.3428,-2.3135,-2.3135,-2.3135,-2.3135,-2.3135,-2.3135,-2.3135,-2.3135,-2.3135,-2.3135,-2.3135,-2.3135,-2.3135,-2.3135,-2.3135,-2.3135,-2.3135,-2.3135,-2.3135,-2.3135,-2.3135,-2.3135,-2.3135,-2.3135,-2.3135,-2.3135,-2.3135,-2.3135,-2.3135,-2.3135,-2.3135,-2.3135,-2.3135,-2.3135,-2.3135,-2.3135,-2.3135,-2.3135,-2.3135,-2.1498,-2.0042,-1.9588,-1.7855,-1.6386,-1.5825,-1.5832,-1.5832,-1.5832,-1.5832,-1.5832,-1.5832,-1.5832,-1.5832,-1.5832,-1.5832,-1.5832,-1.5832,-1.5832,-1.5832,-1.5832,-1.5832,-1.5832,-1.5832,-1.5832,-1.5832,-1.5832,-1.5832,-1.5832,-1.5832,-1.5832,-1.5832,-1.947,-2.0074,-2.076,-2.0103,0.0,0.0,-1.9619,-1.8313,-1.7252,-1.7567,-1.7531,-1.7862,-1.9307,-1.8726,-1.8394,-1.9379,-1.8882,-1.7922,-1.6658,-1.6113,-1.5451,-1.428,-1.4202,-1.4038,-1.3876,-1.4988,-1.5811,-1.5766,-1.7044,-1.74,-1.6363,-1.7947,-1.8286,-1.7262,-1.9715,-2.1301,-2.1887,-2.2423,-2.2971,-2.3584,-2.3281,-2.3135,-2.3135,-2.3135,-2.3135,-2.3135,-2.3135,-2.3135,-2.3135,-2.3135,-2.3135,-2.3135,-2.3135,-2.3135,-2.3135,-2.3135,-2.3135,-2.3135,-2.3135,-2.3135,-2.3135,-2.3135,-2.3135,-2.3135,-2.3135,-2.3135,-2.3135,-2.3135,-2.3135,-2.3135,-2.3135,-2.3135,-2.3135,-2.3135,-2.3135,-2.3135,-2.3135,-2.3135,-2.3135,-2.3135,-2.1132,-1.9497,-1.9497,-1.7483,-1.5832,-1.5832,-1.5832,-1.5832,-1.5832,-1.5832,-1.5832,-1.5832,-1.5832,-1.5832,-1.5832,-1.5832,-1.5832,-1.5832,-1.5832,-1.5832,-1.5832,-1.5832,-1.5832,-1.5832,-1.5832,-1.5832,-1.5832,-1.5832,-1.5832,-1.5832,-1.5832,-1.5832,-2.0677,-2.0165,-1.9602,0.0,0.0,0.0,-2.0296,-1.8405,-1.6621,-1.6884,-1.698,-1.7334,-1.8588,-1.8774,-1.8076,-1.6039,-1.6367,-1.6279,-1.4194,-1.4316,-1.4086,-1.2593,-1.2373,-1.1833,-1.0383,-1.146,-1.2289,-1.2356,-1.3684,-1.4575,-1.4902,-1.5915,-1.7244,-1.8859,-2.056,-2.187,-2.2788,-2.3445,-2.3564,-2.3135,-2.3135,-2.3135,-2.3135,-2.3135,-2.3135,-2.3135,-2.3135,-2.3135,-2.3135,-2.3135,-2.3135,-2.3135,-2.3135,-2.3135,-2.3135,-2.3135,-2.3135,-2.3135,-2.3135,-2.3135,-2.3135,-2.3135,-2.3135,-2.3135,-2.3135,-2.3135,-2.3135,-2.3135,-2.3135,-2.3135,-2.3135,-2.3135,-2.3135,-2.3135,-2.3135,-2.3135,-2.3135,-2.3135,-2.3135,-2.3057,-2.1132,-1.9497,-1.9497,-1.7483,-1.5832,-1.5832,-1.5832,-1.5832,-1.5832,-1.5832,-1.5832,-1.5832,-1.5832,-1.5832,-1.5832,-1.5832,-1.5832,-1.5832,-1.5832,-1.5832,-1.5832,-1.5832,-1.5832,-1.5832,-1.5832,-1.5832,-1.5832,-1.5832,-1.5832,-1.5832,-1.5832,-1.5832,-2.0523,-2.0792,0.0,-1.9544,0.0,0.0,0.0,-1.8311,0.0,-1.58,-1.5611,-1.6027,-1.7296,-1.6406,-1.5434,-1.5465,-1.4742,-1.3671,-1.2096,-1.2361,-1.209,-1.0712,-1.0517,-1.0233,-0.9805,-1.1039,-1.2021,-1.2086,-1.3517,-1.404,-1.3125,-1.5237,-1.6421,-1.6291,-1.9324,-2.1374,-2.2098,-2.2877,-2.3271,-2.3135,-2.3135,-2.3135,-2.3135,-2.3135,-2.3135,-2.3135,-2.3135,-2.3135,-2.3135,-2.3135,-2.3135,-2.3135,-2.3135,-2.3135,-2.3135,-2.3135,-2.3135,-2.3135,-2.3135,-2.3135,-2.3135,-2.3135,-2.3135,-2.3135,-2.3135,-2.3135,-2.3135,-2.3135,-2.3135,-2.3135,-2.3135,-2.3135,-2.3135,-2.3135,-2.3135,-2.3135,-2.3135,-2.3135,-2.2862,-2.2031,-2.0576,-1.9222,-1.8411,-1.685,-1.5832,-1.5832,-1.5832,-1.5832,-1.5832,-1.5832,-1.5832,-1.5832,-1.5832,-1.5832,-1.5832,-1.5832,-1.5832,-1.5832,-1.5832,-1.5832,-1.5832,-1.5832,-1.5832,-1.5832,-1.5832,-1.5832,-1.5832,-1.5832,-1.5832,-1.5832,-1.5832,-1.5832,-2.0664,-2.0756,0.0,-1.9433,-2.0334,-2.1181,-1.9488,-1.8228,-1.7037,-1.5588,-1.5304,-1.5535,-1.6331,-1.514,-1.4015,-1.4131,-1.2987,-1.174,-1.056,-1.0774,-1.067,-0.993,-0.9696,-0.9608,-0.9608,-1.0338,-1.0835,-1.1004,-1.1828,-1.2225,-1.1984,-1.4437,-1.6127,-1.6618,-2.0011,-2.2066,-2.2583,-2.3408,-2.3551,-2.3135,-2.3135,-2.3135,-2.3135,-2.3135,-2.3135,-2.3135,-2.3135,-2.3135,-2.3135,-2.3135,-2.3135,-2.3135,-2.3135,-2.3135,-2.3135,-2.3135,-2.3135,-2.3135,-2.3135,-2.3135,-2.3135,-2.3135,-2.3135,-2.3135,-2.3135,-2.3135,-2.3135,-2.3135,-2.3135,-2.3135,-2.3135,-2.3135,-2.3135,-2.3135,-2.3135,-2.3135,-2.3135,-2.3135,-2.2765,-2.1569,-2.0305,-1.9131,-1.787,-1.6662,-1.5832,-1.5832,-1.5832,-1.5785,-1.5671,-1.5758,-1.5832,-1.5832,-1.5832,-1.5832,-1.5832,-1.5832,-1.5832,-1.5832,-1.5832,-1.5832,-1.5832,-1.5832,-1.5832,-1.5832,-1.5832,-1.5832,-1.5832,-1.5832,-1.5832,-1.5832,-1.5832,-1.5832,-2.102,-2.0362,0.0,-1.9233,-2.0442,0.0,-1.9058,-1.8116,-1.7296,-1.6041,-1.5792,-1.573,-1.5635,-1.4598,-1.3411,-1.2434,-1.1403,-1.0481,-0.9568,-0.9741,-1.0044,-1.0061,-1.0039,-0.9937,-0.9937,-0.9652,-0.9418,-0.9575,-0.9473,-1.0048,-1.1425,-1.375,-1.6285,-1.8935,-2.1775,-2.3473,-2.39,-2.4415,-2.4211,-2.3212,-2.3135,-2.3135,-2.3135,-2.3135,-2.3135,-2.3135,-2.3135,-2.3135,-2.3135,-2.3135,-2.3135,-2.3135,-2.3135,-2.3135,-2.3135,-2.3135,-2.3135,-2.3135,-2.3135,-2.3135,-2.3135,-2.3135,-2.3135,-2.3135,-2.3135,-2.3135,-2.3135,-2.3135,-2.3135,-2.3135,-2.3135,-2.3135,-2.3135,-2.3135,-2.3135,-2.3135,-2.3135,-2.3047,-2.2589,-2.1391,-2.0124,-1.8948,-1.7777,-1.6574,-1.5818,-1.5792,-1.5765,-1.5665,-1.5424,-1.5625,-1.5798,-1.5825,-1.5832,-1.5832,-1.5832,-1.5832,-1.5832,-1.5832,-1.5832,-1.5832,-1.5832,-1.5832,-1.5832,-1.5832,-1.5832,-1.5832,-1.5832,-1.5832,-1.5832,-1.5832,-1.5832,-1.5832,-2.0877,-2.0314,0.0,0.0,-1.987,-2.0143,-1.8991,-1.8198,-1.7172,-1.5511,-1.5511,-1.5534,-1.4459,-1.3413,-1.2287,-1.1048,-1.012,-0.9504,-0.947,-1.0578,-1.1577,-1.1719,-1.2502,-1.2978,-1.2978,-1.1604,-1.0802,-1.0864,-0.9873,-0.9927,-1.1417,-1.3711,-1.6008,-1.8506,-2.0864,-2.2919,-2.4612,-2.3851,-2.38,-2.4457,-2.3551,-2.3135,-2.3135,-2.3135,-2.3135,-2.3135,-2.3135,-2.3135,-2.3135,-2.3135,-2.3135,-2.3135,-2.3135,-2.3135,-2.3135,-2.3135,-2.3135,-2.3135,-2.3135,-2.3135,-2.3135,-2.3135,-2.3135,-2.3135,-2.3135,-2.3135,-2.3135,-2.3135,-2.3135,-2.3135,-2.3135,-2.3135,-2.3135,-2.3135,-2.3135,-2.3135,-2.3135,-2.2403,-2.1302,-2.0124,-1.8956,-1.7677,-1.6386,-1.6015,-1.5752,-1.5524,-1.5297,-1.5211,-1.5378,-1.5451,-1.5578,-1.5805,-1.5832,-1.5832,-1.5832,-1.5832,-1.5832,-1.5832,-1.5832,-1.5832,-1.5832,-1.5832,-1.5832,-1.5832,-1.5832,-1.5832,-1.5832,-1.5832,-1.5832,-1.5832,-1.5832,-1.5832,-2.0719,0.0,0.0,-1.9211,0.0,-1.7984,-1.7984,-1.6824,-1.5431,-1.4638,-1.4653,-1.4657,-1.3974,-1.2423,-1.1019,-1.0395,-0.947,-0.9127,-1.0137,-1.1098,-1.1962,-1.2853,-1.3495,-1.3891,-1.3673,-1.2899,-1.2004,-1.1245,-1.1218,-1.1775,-1.2974,-1.527,-1.7604,-1.9958,-2.2144,-2.3477,-2.3963,-2.3963,-2.3963,-2.3963,-2.3387,-2.3135,-2.3135,-2.3135,-2.3135,-2.3135,-2.3135,-2.3135,-2.3135,-2.3135,-2.3135,-2.3135,-2.3135,-2.3135,-2.3135,-2.3135,-2.3135,-2.3135,-2.3135,-2.3135,-2.3135,-2.3135,-2.3135,-2.3135,-2.3135,-2.3135,-2.3135,-2.3135,-2.2677,-2.2217,-2.2217,-2.1765,-2.14,-2.14,-2.1854,-2.2217,-2.2217,-2.1302,-2.0124,-1.8864,-1.8141,-1.7318,-1.6015,-1.5712,-1.5524,-1.5237,-1.5064,-1.4963,-1.4977,-1.5224,-1.5398,-1.5418,-1.5665,-1.5772,-1.5631,-1.5752,-1.5832,-1.5832,-1.5832,-1.5832,-1.5832,-1.5832,-1.5832,-1.5832,-1.5832,-1.5832,-1.5832,-1.5832,-1.5832,-1.5832,-1.5832,-1.5832,-2.059,0.0,-1.8413,-1.8569,-1.7195,0.0,-1.6795,-1.5159,-1.3456,-1.3767,-1.3651,-1.3488,-1.3295,-1.1482,-1.0091,-1.0138,-0.94,-0.9414,-1.1121,-1.1757,-1.2502,-1.3836,-1.4435,-1.4479,-1.4288,-1.4114,-1.3352,-1.1982,-1.275,-1.384,-1.4953,-1.7076,-1.9392,-2.1758,-2.3554,-2.4125,-2.3387,-2.4053,-2.4012,-2.3278,-2.3114,-2.3066,-2.3135,-2.3066,-2.3066,-2.3135,-2.3135,-2.3135,-2.3135,-2.3135,-2.3135,-2.3135,-2.3135,-2.3135,-2.3135,-2.3135,-2.3135,-2.3135,-2.3135,-2.3135,-2.3135,-2.3135,-2.3135,-2.3135,-2.3135,-2.3135,-2.3047,-2.2862,-2.2031,-2.1293,-2.1025,-2.0215,-1.9579,-1.9761,-2.0395,-2.1025,-2.1293,-2.0395,-1.9222,-1.8234,-1.7684,-1.7131,-1.6292,-1.5858,-1.567,-1.5424,-1.5342,-1.513,-1.4629,-1.5023,-1.5231,-1.499,-1.5391,-1.5605,-1.5411,-1.5618,-1.5772,-1.5825,-1.5832,-1.5832,-1.5832,-1.5832,-1.5832,-1.5832,-1.5832,-1.5832,-1.5832,-1.5832,-1.5832,-1.5832,-1.5832,-1.5832,0.0,0.0,-1.7379,0.0,-1.6444,-1.5808,-1.6134,-1.4777,-1.3403,-1.3438,-1.2762,-1.1848,-1.0676,-1.0319,-1.0134,-1.0155,-1.0219,-1.0619,-1.2211,-1.3811,-1.5019,-1.5389,-1.6648,-1.7418,-1.738,-1.6042,-1.5131,-1.4877,-1.3646,-1.3925,-1.642,-1.7401,-1.9091,-2.1749,-2.2809,-2.3714,-2.4542,-2.3428,-2.3247,-2.4044,-2.3078,-2.2783,-2.3125,-2.2764,-2.2793,-2.3135,-2.3135,-2.3135,-2.3135,-2.3135,-2.3135,-2.3135,-2.3135,-2.3135,-2.3135,-2.3135,-2.3135,-2.3135,-2.3135,-2.3135,-2.3135,-2.3135,-2.3135,-2.3135,-2.3135,-2.3135,-2.2862,-2.1845,-2.1382,-2.1025,-2.0034,-1.9579,-1.9761,-2.0845,-2.0395,-2.0034,-2.1114,-2.0395,-1.9488,-1.9314,-1.7483,-1.6386,-1.7318,-1.7217,-1.6965,-1.6928,-1.6684,-1.6147,-1.5082,-1.4977,-1.501,-1.497,-1.503,-1.5164,-1.5378,-1.5431,-1.5565,-1.5812,-1.5832,-1.5832,-1.5832,-1.5832,-1.5832,-1.5832,-1.5832,-1.5832,-1.5832,-1.5832,-1.5832,-1.5832,-1.5832,-1.5832,-2.0391,-1.8586,-1.6857,0.0,-1.596,-1.4925,-1.4394,-1.3058,-1.1817,-1.1291,-1.0934,-1.0545,-1.0075,-1.0061,-1.0116,-1.0116,-1.078,-1.1807,-1.3346,-1.4407,-1.5401,-1.6424,-1.7401,-1.7976,-1.7802,-1.7268,-1.6454,-1.5429,-1.5891,-1.6668,-1.7568,-1.9184,-2.0836,-2.2518,-2.288,-2.3268,-2.3523,-2.2853,-2.2636,-2.2877,-2.2399,-2.2256,-2.2432,-2.2246,-2.2519,-2.3125,-2.2891,-2.292,-2.3135,-2.3135,-2.3135,-2.3135,-2.3135,-2.3135,-2.3135,-2.3135,-2.3135,-2.3135,-2.3135,-2.3135,-2.3135,-2.3135,-2.3135,-2.3135,-2.3135,-2.2589,-2.1943,-2.1471,-2.0305,-1.9131,-1.8596,-1.7948,-1.7755,-1.8948,-1.8864,-1.9047,-2.0935,-2.0395,-1.9497,-1.9497,-1.858,-1.8033,-1.8588,-1.8478,-1.824,-1.824,-1.8026,-1.7297,-1.5922,-1.5884,-1.5606,-1.4596,-1.4917,-1.519,-1.5157,-1.5451,-1.5691,-1.5818,-1.5832,-1.5832,-1.5832,-1.5832,-1.5832,-1.5832,-1.5832,-1.5832,-1.5832,-1.5832,-1.5832,-1.5832,-1.5832,-1.5832,0.0,0.0,-1.6774,-1.6193,-1.5304,-1.4216,-1.2881,-1.1921,-1.099,-1.0058,-0.9974,-1.0161,-1.0307,-1.0418,-1.0583,-1.097,-1.1745,-1.2975,-1.4436,-1.4991,-1.5645,-1.6799,-1.7388,-1.7615,-1.7382,-1.7569,-1.7279,-1.6279,-1.7754,-1.8859,-1.9101,-2.0712,-2.2051,-2.2901,-2.2978,-2.2783,-2.2353,-2.2246,-2.2031,-2.1719,-2.1719,-2.1777,-2.1885,-2.1777,-2.2119,-2.2803,-2.249,-2.2598,-2.2978,-2.2978,-2.3047,-2.3135,-2.3135,-2.3135,-2.3135,-2.3135,-2.3135,-2.3135,-2.3135,-2.3135,-2.3135,-2.3135,-2.3135,-2.3135,-2.3135,-2.2217,-2.1203,-2.0935,-1.9314,-1.7598,-1.7318,-1.6763,-1.6574,-1.7863,-1.8411,-1.9139,-2.0935,-2.0567,-1.9943,-1.9943,-1.9679,-1.9579,-1.9943,-1.9805,-1.9626,-1.9626,-1.9476,-1.8634,-1.6812,-1.6725,-1.6243,-1.4534,-1.4897,-1.5224,-1.5084,-1.5471,-1.5752,-1.5825,-1.5832,-1.5832,-1.5832,-1.5832,-1.5832,-1.5832,-1.5832,-1.5832,-1.5832,-1.5832,-1.5832,-1.5832,-1.5832,-1.5832,0.0,-1.8522,0.0,-1.4914,-1.4431,-1.4109,-1.2328,-1.2198,-1.2198,-1.0964,-1.0864,-1.1012,-1.1027,-1.1467,-1.2237,-1.3488,-1.3776,-1.4274,-1.5553,-1.6009,-1.6202,-1.6319,-1.6593,-1.6767,-1.6754,-1.6767,-1.7155,-1.8214,-1.8208,-1.9154,-2.149,-2.1464,-2.1697,-2.2473,-2.2549,-2.2344,-2.1924,-2.1504,-2.1289,-2.1269,-2.1269,-2.1484,-2.1875,-2.1455,-2.1514,-2.1953,-2.1924,-2.2158,-2.2549,-2.2549,-2.2783,-2.3135,-2.3135,-2.3135,-2.3135,-2.3135,-2.3135,-2.3135,-2.3135,-2.3135,-2.3135,-2.3135,-2.3135,-2.3135,-2.3135,-2.2217,-2.1025,-1.9943,-1.868,-1.7412,-1.6204,-1.6763,-1.787,-1.9131,-2.0305,-2.1114,-2.1293,-2.1293,-2.1203,-2.1203,-2.0305,-1.9852,-2.1025,-2.1185,-2.1176,-2.1176,-2.1159,-2.0188,-1.7507,-1.7206,-1.6652,-1.5122,-1.4957,-1.509,-1.5351,-1.5398,-1.5538,-1.5812,-1.5832,-1.5832,-1.5832,-1.5832,-1.5832,-1.5832,-1.5832,-1.5832,-1.5832,-1.5832,-1.5832,-1.5832,-1.5832,-1.5832,0.0,0.0,0.0,-1.7142,-1.6517,-1.5672,-1.3881,-1.3241,-1.2698,-1.1578,-1.1745,-1.2221,-1.2221,-1.2537,-1.3059,-1.3531,-1.4444,-1.5242,-1.573,-1.5383,-1.506,-1.506,-1.4495,-1.4546,-1.5368,-1.5469,-1.6367,-1.8361,-1.9008,-2.0041,-2.1749,-2.2184,-2.2485,-2.2529,-2.251,-2.2178,-2.1475,-2.1025,-2.0801,-2.0801,-2.0518,-2.0469,-2.0615,-2.0459,-2.0478,-2.0635,-2.0918,-2.1602,-2.249,-2.2217,-2.2519,-2.3105,-2.2842,-2.29,-2.3135,-2.3135,-2.3135,-2.3096,-2.2832,-2.291,-2.3047,-2.251,-2.2705,-2.3086,-2.2822,-2.1475,-2.0034,-1.9579,-1.8033,-1.6574,-1.6951,-1.7318,-1.8234,-2.0141,-2.1596,-2.2492,-2.2492,-2.2492,-2.2492,-2.2492,-2.2129,-2.1952,-2.2403,-2.2492,-2.2492,-2.2492,-2.2492,-2.1441,-1.8726,-1.8418,-1.7578,-1.5252,-1.513,-1.5284,-1.5391,-1.5565,-1.5718,-1.5818,-1.5832,-1.5832,-1.5832,-1.5832,-1.5832,-1.5832,-1.5832,-1.5832,-1.5832,-1.5832,-1.5832,-1.5832,-1.5832,-1.5832,-2.1939,0.0,0.0,-1.8907,-1.8199,-1.7332,-1.5233,-1.4659,-1.4295,-1.3134,-1.3258,-1.3598,-1.3774,-1.3742,-1.3817,-1.3915,-1.4836,-1.5571,-1.5671,-1.4675,-1.4031,-1.4119,-1.3187,-1.2989,-1.4383,-1.4406,-1.5329,-1.786,-1.9058,-2.0046,-2.0884,-2.218,-2.2598,-2.1885,-2.1719,-2.1299,-2.0586,-2.0579,-2.0572,-2.0572,-2.0558,-2.0553,-2.0553,-2.078,-2.0851,-2.0872,-2.104,-2.1441,-2.206,-2.1787,-2.2168,-2.2891,-2.2471,-2.2646,-2.3125,-2.2978,-2.293,-2.291,-2.2773,-2.2812,-2.2861,-2.2441,-2.2685,-2.3086,-2.2812,-2.1475,-2.0124,-2.0124,-1.8664,-1.721,-1.8041,-1.8596,-1.9405,-2.1418,-2.2511,-2.3135,-2.3135,-2.3135,-2.3135,-2.3135,-2.3135,-2.3135,-2.3135,-2.3135,-2.3135,-2.3135,-2.3135,-2.2133,-1.9524,-1.9231,-1.8335,-1.6168,-1.6063,-1.6181,-1.6181,-1.6362,-1.6298,-1.5832,-1.5832,-1.5832,-1.5832,-1.5832,-1.5832,-1.5832,-1.5832,-1.5832,-1.5832,-1.5832,-1.5832,-1.5832,-1.5832,-1.5832,0.0,0.0,0.0,-1.9749,-1.9488,-1.8968,-1.6314,-1.6563,-1.6976,-1.578,-1.5343,-1.5315,-1.5629,-1.505,-1.4603,-1.4979,-1.504,-1.5064,-1.5344,-1.4241,-1.3485,-1.3831,-1.2608,-1.2323,-1.3669,-1.3531,-1.4482,-1.6958,-1.8313,-1.9032,-1.9121,-2.1225,-2.1875,-2.0605,-2.0127,-1.9697,-1.936,-2.0186,-2.0603,-2.0673,-2.1483,-2.1898,-2.1909,-2.2399,-2.2693,-2.2644,-2.219,-2.1696,-2.1211,-2.1211,-2.1719,-2.2451,-2.2041,-2.2393,-2.3076,-2.2676,-2.2519,-2.2568,-2.2959,-2.2842,-2.2578,-2.2959,-2.3105,-2.3135,-2.3125,-2.2208,-2.1293,-2.1293,-2.0395,-1.9497,-1.9588,-2.0486,-2.1667,-2.2862,-2.3135,-2.3135,-2.3135,-2.3125,-2.3125,-2.3135,-2.3135,-2.3135,-2.3135,-2.3135,-2.3135,-2.3135,-2.3047,-2.2227,-1.977,-1.9497,-1.9047,-1.787,-1.7692,-1.7692,-1.7692,-1.7692,-1.7131,-1.5927,-1.5832,-1.5832,-1.5832,-1.5832,-1.5832,-1.5832,-1.5832,-1.5832,-1.5832,-1.5832,-1.5832,-1.5832,-1.5832,-1.5832,-2.2823,0.0,0.0,0.0,0.0,0.0,-1.9369,-1.911,-1.8684,-1.7692,-1.7301,-1.7061,-1.65,-1.5853,-1.5372,-1.5466,-1.5196,-1.499,-1.507,-1.3373,-1.2089,-1.2157,-1.0934,-1.0651,-1.2067,-1.2707,-1.4198,-1.6714,-1.7244,-1.7866,-1.8651,-1.9502,-2.0203,-2.0576,-1.9844,-1.9687,-2.0267,-2.0461,-2.0945,-2.1563,-2.1417,-2.1375,-2.1397,-2.1956,-2.2168,-2.2224,-2.2855,-2.2553,-2.1712,-2.1045,-2.1269,-2.2041,-2.1934,-2.2217,-2.2705,-2.2891,-2.2773,-2.248,-2.2295,-2.2353,-2.2432,-2.1924,-2.2393,-2.3086,-2.2783,-2.207,-2.1293,-2.1293,-2.0395,-1.967,-2.0576,-2.1667,-2.2677,-2.3047,-2.3135,-2.3135,-2.3135,-2.29,-2.2773,-2.3076,-2.3135,-2.3135,-2.3135,-2.3135,-2.3135,-2.3135,-2.2403,-2.1212,-1.967,-1.8772,-1.8048,-1.7777,-1.7692,-1.7692,-1.7692,-1.7692,-1.7131,-1.5927,-1.5832,-1.5832,-1.5832,-1.5832,-1.5832,-1.5832,-1.5832,-1.5832,-1.5832,-1.5832,-1.5832,-1.5832,-1.5832,-1.5832,-2.3078,-2.2763,-2.2384,-2.2384,0.0,0.0,-2.1063,-2.0785,-2.0347,-1.956,-1.9034,-1.859,-1.819,-1.7201,-1.6389,-1.6621,-1.6125,-1.5498,-1.492,-1.2711,-1.1451,-1.2008,-1.0533,-1.0162,-1.1926,-1.2547,-1.3659,-1.5704,-1.63,-1.7266,-1.8723,-1.8308,-1.8551,-1.9701,-1.963,-1.9676,-2.0038,-2.0769,-2.1375,-2.1907,-2.1934,-2.1975,-2.1999,-2.2592,-2.2944,-2.3191,-2.3595,-2.3553,-2.3147,-2.1745,-2.1352,-2.1611,-2.1611,-2.1875,-2.2305,-2.2725,-2.2607,-2.2266,-2.2373,-2.2451,-2.2461,-2.2139,-2.2529,-2.3096,-2.2852,-2.2398,-2.2031,-2.2031,-2.1578,-2.1132,-2.1854,-2.258,-2.3135,-2.3135,-2.2998,-2.293,-2.3096,-2.2812,-2.2637,-2.3057,-2.2998,-2.293,-2.3105,-2.3135,-2.3135,-2.3135,-2.2492,-2.1578,-2.0395,-1.967,-1.9047,-1.8503,-1.8864,-1.8772,-1.7785,-1.8141,-1.7677,-1.592,-1.5832,-1.5832,-1.5832,-1.5832,-1.5832,-1.5832,-1.5832,-1.6015,-1.6574,-1.6015,-1.5832,-1.5825,-1.6386,-1.6574,-2.3078,-2.3175,-2.3226,-2.3226,-2.3215,0.0,-2.2008,-2.1979,-2.1966,-2.1233,-2.054,-2.0133,-2.0446,-1.9035,-1.7931,-1.8361,-1.77,-1.6549,-1.485,-1.2592,-1.1631,-1.2727,-1.0948,-1.0504,-1.27,-1.2839,-1.3224,-1.4382,-1.5433,-1.6771,-1.8665,-1.7352,-1.7197,-1.8582,-1.9339,-1.9634,-1.9357,-2.0957,-2.1906,-2.2091,-2.2786,-2.3138,-2.3271,-2.3852,-2.4356,-2.4793,-2.4553,-2.4646,-2.4862,-2.3073,-2.1994,-2.1471,-2.1361,-2.1727,-2.2254,-2.2597,-2.2434,-2.2217,-2.2803,-2.2822,-2.2578,-2.2949,-2.3096,-2.3135,-2.3135,-2.3105,-2.3066,-2.3066,-2.3066,-2.3076,-2.3125,-2.3135,-2.3135,-2.3135,-2.2822,-2.2627,-2.3047,-2.2773,-2.2578,-2.3047,-2.2803,-2.2627,-2.2998,-2.3066,-2.3066,-2.3066,-2.2931,-2.2492,-2.148,-2.1203,-2.0666,-1.9579,-2.0486,-2.0215,-1.787,-1.868,-1.8311,-1.592,-1.5832,-1.5832,-1.5832,-1.5832,-1.5832,-1.5832,-1.592,-1.6662,-1.787,-1.6756,-1.6197,-1.6197,-1.7404,-1.787,-2.3078,-2.3477,-2.3828,-2.3828,-2.4167,0.0,-2.3665,-2.3542,-2.3343,-2.2504,-2.2491,-2.257,-2.2388,-2.1617,-2.1022,-2.1104,-2.0262,-1.8527,-1.5567,-1.4213,-1.3225,-1.2412,-1.2053,-1.2176,-1.262,-1.3367,-1.3907,-1.4168,-1.4108,-1.4976,-1.7046,-1.6337,-1.665,-1.8572,-1.868,-1.9019,-1.9599,-2.0665,-2.1809,-2.3101,-2.3077,-2.3424,-2.4099,-2.4493,-2.472,-2.4883,-2.566,-2.5636,-2.4933,-2.4564,-2.3886,-2.3036,-2.2594,-2.325,-2.4364,-2.3886,-2.3764,-2.3608,-2.2899,-2.2578,-2.2519,-2.2607,-2.2861,-2.3135,-2.3135,-2.29,-2.2637,-2.2637,-2.2637,-2.2715,-2.3057,-2.3135,-2.3135,-2.3135,-2.2822,-2.2627,-2.3047,-2.2539,-2.2236,-2.2988,-2.2803,-2.2539,-2.2617,-2.2637,-2.2637,-2.2637,-2.2098,-2.1569,-2.1293,-2.0486,-1.9761,-1.9497,-1.967,-1.9314,-1.7777,-1.7963,-1.7404,-1.592,-1.5832,-1.5832,-1.5832,-1.5832,-1.5832,-1.5832,-1.6857,-1.7956,-1.9131,-1.8856,-1.8764,-1.8764,-1.9039,-1.9131,-2.3565,-2.3565,-2.364,-2.3929,-2.4205,0.0,0.0,-2.4217,-2.4191,-2.3513,-2.4038,-2.4666,-2.4521,-2.4256,-2.4032,-2.4047,-2.3005,-2.1219,-1.8446,-1.6164,-1.4587,-1.3937,-1.304,-1.2707,-1.333,-1.3822,-1.4328,-1.4894,-1.4462,-1.505,-1.7056,-1.6045,-1.6493,-1.8841,-1.9325,-1.9961,-2.083,-2.2014,-2.3077,-2.3919,-2.4146,-2.4279,-2.4319,-2.4732,-2.4912,-2.487,-2.5674,-2.5903,-2.5734,-2.5229,-2.5004,-2.4886,-2.3838,-2.3952,-2.4636,-2.4745,-2.4527,-2.4147,-2.3811,-2.3308,-2.2822,-2.2822,-2.2969,-2.3135,-2.3135,-2.2988,-2.2822,-2.2822,-2.2822,-2.2871,-2.3086,-2.3135,-2.3135,-2.3135,-2.2656,-2.2373,-2.2998,-2.248,-2.2139,-2.2969,-2.2803,-2.2578,-2.2793,-2.2822,-2.2822,-2.2822,-2.2456,-2.2217,-2.2217,-2.1676,-2.0854,-1.9588,-2.0042,-1.9405,-1.6943,-1.7318,-1.7131,-1.5927,-1.5832,-1.5832,-1.5832,-1.5832,-1.6109,-1.6763,-1.8588,-1.9761,-2.0395,-2.1033,-2.0674,-1.9488,-2.0124,-2.0395,-2.4155,-2.3891,-2.3728,-2.4192,-2.4393,-2.4443,0.0,0.0,0.0,-2.4406,-2.5379,-2.6268,-2.6387,-2.6556,-2.6622,-2.6544,-2.5592,-2.4026,-2.1934,-1.8774,-1.6492,-1.6085,-1.442,-1.3704,-1.4733,-1.4776,-1.4977,-1.5621,-1.5329,-1.571,-1.7318,-1.6347,-1.6807,-1.9233,-2.0351,-2.1254,-2.201,-2.3545,-2.4419,-2.4618,-2.5149,-2.5175,-2.4765,-2.5288,-2.5341,-2.5026,-2.5737,-2.6215,-2.6465,-2.5581,-2.5734,-2.6352,-2.4935,-2.4607,-2.5096,-2.5363,-2.5135,-2.4636,-2.4502,-2.3887,-2.3135,-2.3135,-2.3135,-2.3125,-2.3047,-2.3018,-2.3018,-2.3018,-2.3018,-2.3037,-2.3115,-2.3135,-2.3135,-2.3135,-2.2559,-2.2217,-2.2969,-2.2539,-2.2236,-2.2988,-2.2861,-2.2715,-2.2969,-2.3018,-2.3018,-2.3018,-2.3086,-2.3135,-2.3135,-2.3135,-2.2138,-1.977,-2.0413,-1.9687,-1.648,-1.7131,-1.7318,-1.656,-1.6466,-1.6466,-1.6466,-1.6466,-1.7117,-1.8411,-2.0305,-2.1382,-2.1658,-2.2589,-2.2129,-2.0223,-2.1212,-2.1667,-2.4732,-2.5021,-2.5335,-2.5398,-2.5799,-2.6118,-2.5536,0.0,-2.5485,-2.5423,0.0,-2.6931,-2.7446,0.0,0.0,-2.7696,-2.7392,-2.6671,-2.4815,-2.255,-2.0168,-1.7632,-1.7001,-1.6958,-1.7538,-1.7203,-1.6601,-1.5779,-1.5937,-1.6076,-1.6152,-1.7069,-1.8083,-1.9233,-2.1002,-2.1965,-2.2076,-2.3659,-2.4794,-2.5466,-2.542,-2.5673,-2.6272,-2.6745,-2.6526,-2.5847,-2.6961,-2.7098,-2.6465,-2.6383,-2.6383,-2.6396,-2.536,-2.6034,-2.7471,-2.557,-2.5461,-2.5992,-2.3953,-2.3222,-2.3135,-2.3135,-2.3135,-2.3066,-2.2695,-2.2578,-2.2578,-2.2578,-2.2578,-2.2676,-2.3047,-2.3135,-2.3135,-2.3135,-2.2783,-2.2568,-2.3037,-2.2773,-2.2578,-2.3047,-2.3096,-2.2959,-2.2637,-2.2578,-2.2578,-2.2578,-2.29,-2.3135,-2.3135,-2.3135,-2.2138,-1.977,-1.9588,-1.9131,-1.7591,-1.7598,-1.8048,-1.9039,-1.9031,-1.9031,-1.9031,-1.9031,-1.967,-2.0845,-2.1203,-2.1845,-2.2862,-2.3047,-2.296,-2.2677,-2.2862,-2.2862,-2.5686,-2.5473,-2.5297,-2.5937,-2.6025,-2.5988,-2.6076,-2.6101,-2.6101,-2.6101,0.0,0.0,0.0,0.0,0.0,0.0,-2.8199,-2.7159,-2.5673,-2.4464,-2.2713,-1.9912,-1.8763,-1.8284,-1.844,-1.9093,-1.8986,-1.7747,-1.7553,-1.7899,-1.8606,-1.8201,-1.8798,-2.0782,-2.1995,-2.2879,-2.3413,-2.4898,-2.5854,-2.6164,-2.6505,-2.6602,-2.6553,-2.74,-2.7429,-2.6708,-2.7415,-2.7484,-2.7162,-2.6714,-2.6533,-2.649,-2.6371,-2.7036,-2.7988,-2.6718,-2.6348,-2.6307,-2.4638,-2.3627,-2.3135,-2.3135,-2.3135,-2.3105,-2.293,-2.2881,-2.2881,-2.2881,-2.2881,-2.292,-2.3096,-2.3135,-2.3135,-2.3135,-2.2822,-2.2627,-2.3047,-2.2812,-2.2637,-2.3057,-2.3135,-2.3086,-2.291,-2.2881,-2.2881,-2.2881,-2.3027,-2.3135,-2.3135,-2.3135,-2.2403,-2.0755,-2.0576,-2.0034,-1.8864,-1.8772,-1.8956,-1.9497,-1.9497,-1.9497,-1.9497,-2.0215,-2.0755,-2.1293,-2.2031,-2.258,-2.3135,-2.3135,-2.3135,-2.3135,-2.3135,-2.3135,-2.6101,-2.5636,-2.5259,-2.6214,-2.6138,-2.5937,-2.6433,-2.6658,-2.685,-2.685,-2.8182,0.0,0.0,0.0,-3.0031,-2.9323,0.0,-2.7333,-2.6139,-2.5457,-2.4208,-2.2216,-2.1095,-2.0468,-2.0556,-2.1184,-2.0997,-1.958,-1.923,-1.9345,-1.992,-1.9375,-1.9976,-2.2151,-2.3132,-2.4089,-2.4989,-2.6341,-2.6988,-2.6856,-2.7534,-2.7599,-2.7079,-2.8184,-2.8297,-2.7809,-2.7981,-2.792,-2.767,-2.685,-2.6533,-2.6584,-2.7067,-2.7532,-2.7813,-2.7456,-2.7076,-2.6608,-2.5576,-2.4713,-2.4059,-2.4059,-2.373,-2.3401,-2.3511,-2.3308,-2.2988,-2.3105,-2.3135,-2.3135,-2.3135,-2.3135,-2.3135,-2.3135,-2.291,-2.2764,-2.3076,-2.29,-2.2773,-2.3076,-2.3135,-2.3135,-2.3135,-2.3135,-2.3135,-2.3135,-2.3135,-2.3135,-2.3135,-2.3135,-2.2677,-2.1382,-2.1293,-2.0935,-2.0034,-2.0034,-2.0124,-2.0494,-2.0494,-2.0494,-2.0494,-2.1302,-2.1756,-2.1756,-2.2677,-2.3135,-2.3135,-2.3135,-2.3135,-2.3135,-2.3135,-2.3135,-2.5624,-2.5598,-2.5711,-2.6314,-2.6508,-2.6508,-2.6533,-2.7095,-2.767,-2.767,-2.9066,-3.0011,-2.9192,-2.969,-2.9766,-2.8012,-2.7749,0.0,0.0,-2.5594,-2.4763,-2.4209,-2.4503,-2.487,-2.4959,-2.3686,-2.2201,-2.0661,-2.0573,-1.99,-1.8424,-2.0543,-2.2151,-2.294,-2.45,-2.5659,-2.6428,-2.775,-2.8125,-2.7595,-2.8174,-2.8492,-2.854,-2.9212,-2.9451,-2.9215,-2.9038,-2.8492,-2.767,-2.685,-2.6533,-2.6584,-2.7067,-2.7293,-2.7288,-2.7336,-2.7323,-2.7172,-2.6631,-2.6389,-2.6389,-2.6389,-2.5409,-2.422,-2.4661,-2.3669,-2.2617,-2.3027,-2.3135,-2.3135,-2.3135,-2.3135,-2.3135,-2.3135,-2.3125,-2.3125,-2.3135,-2.3125,-2.3125,-2.3135,-2.3135,-2.3135,-2.3135,-2.3135,-2.3135,-2.3135,-2.3135,-2.3135,-2.3135,-2.3135,-2.2677,-2.1382,-2.1293,-2.1293,-2.1203,-2.1203,-2.1756,-2.2872,-2.296,-2.296,-2.296,-2.3047,-2.3047,-2.3047,-2.3047,-2.3135,-2.3135,-2.3135,-2.3135,-2.3135,-2.3135,-2.3135,-2.6615,-2.6452,-2.6302,-2.6866,-2.7186,-2.7284,-2.7284,-2.7628,-2.8017,-2.8474,-2.8685,-2.8842,-2.8983,-2.8748,-2.8363,-2.7802,-2.7229,-2.6782,0.0,-2.6233,-2.607,-2.6239,-2.5772,-2.5303,-2.5113,-2.4549,-2.3548,-2.2069,-2.1631,-2.1344,-2.1086,-2.2068,-2.3037,-2.3833,-2.5329,-2.6467,-2.7085,-2.8046,-2.8606,-2.8764,-2.9057,-2.9169,-2.9245,-2.99,-3.0131,-3.007,-2.9299,-2.8812,-2.8427,-2.7095,-2.6533,-2.6584,-2.7067,-2.7055,-2.6797,-2.6743,-2.7038,-2.7226,-2.6712,-2.6483,-2.6483,-2.6483,-2.5891,-2.5028,-2.4543,-2.4002,-2.3355,-2.2847,-2.292,-2.3299,-2.4049,-2.3637,-2.3309,-2.4049,-2.3627,-2.3135,-2.3135,-2.3135,-2.3135,-2.3135,-2.3135,-2.3135,-2.3135,-2.3135,-2.3135,-2.3135,-2.3135,-2.3135,-2.3135,-2.3135,-2.295,-2.2492,-2.2492,-2.2492,-2.2492,-2.2492,-2.2677,-2.3047,-2.3135,-2.3135,-2.3135,-2.3135,-2.3135,-2.3135,-2.3135,-2.3135,-2.3135,-2.3135,-2.3135,-2.3135,-2.3135,-2.3135,-2.7494,-2.7391,-2.7209,-2.7439,-2.771,-2.7809,-2.7809,-2.8132,-2.8638,-2.9316,-2.9318,-2.9153,-2.8768,-2.842,-2.7919,-2.7064,-2.671,-2.6533,0.0,-2.6533,-2.6659,-2.6942,-2.6562,-2.6094,-2.5826,-2.5409,-2.4518,-2.3086,-2.2651,-2.2442,-2.2533,-2.2862,-2.3616,-2.4918,-2.5907,-2.6894,-2.7788,-2.8686,-2.9134,-2.9104,-2.9564,-2.9707,-2.9546,-3.0232,-3.0458,-3.0395,-2.9397,-2.8812,-2.8427,-2.704,-2.6647,-2.6766,-2.6929,-2.6892,-2.6784,-2.7017,-2.7439,-2.7871,-2.769,-2.7637,-2.7637,-2.7637,-2.7035,-2.6155,-2.5761,-2.4902,-2.4002,-2.3422,-2.3169,-2.3299,-2.3963,-2.3627,-2.3309,-2.4049,-2.3627,-2.3135,-2.3135,-2.3135,-2.3135,-2.3135,-2.3135,-2.3135,-2.3135,-2.3135,-2.3135,-2.3135,-2.3135,-2.3135,-2.3135,-2.3135,-2.3135,-2.3135,-2.3135,-2.3135,-2.3135,-2.3135,-2.3135,-2.3135,-2.3135,-2.3135,-2.3135,-2.3135,-2.3281,-2.3584,-2.3291,-2.3291,-2.3594,-2.3291,-2.3135,-2.3135,-2.3135,-2.3135]},{"header":{"parameterUnit":"m.s-1","parameterCategory":1,"la1":30.6,"la2":29.2853,"lo1":-89.7004,"lo2":-87.6739,"dy":0.0162,"dx":0.0183,"nx":112,"ny":82,"refTime":"2023-07-04T12:00:00:Z","depth":0,"parameterNumber":3,"parameterNumberName":"V-component_of_WINDS"},"data":[0.0,0.0,0.0,0.0,0.0,0.0,0.0,0.0,0.0,0.0,0.0,0.0,0.0,0.0,0.0,0.0,0.0,0.0,0.0,0.0,0.0,0.0,0.0,0.0,0.0,0.0,0.0,0.0,0.0,0.0,0.0,0.0,0.0,0.0,0.0,0.0,0.0,0.0,0.0,0.0,0.0,0.0,0.0,0.0,0.0,0.0,0.0,0.0,0.0,0.0,0.0,0.0,0.0,0.0,0.0,0.0,0.0,0.0,0.0,0.0,0.0,0.0,0.0,0.0,0.0,0.0,0.0,0.0,0.0,0.0,0.0,0.0,0.0,0.0,0.0,0.0,0.0,0.0,0.0,0.0,0.0,0.0,0.0,0.0,0.0,0.0,0.0,0.0,0.0,0.0,-2.5728,-2.4171,-2.4015,-2.3673,-2.285,-2.321,-2.362,-2.3942,0.0,0.0,0.0,0.0,0.0,0.0,0.0,0.0,0.0,0.0,0.0,0.0,0.0,0.0,0.0,0.0,0.0,0.0,0.0,0.0,0.0,0.0,0.0,0.0,0.0,0.0,0.0,0.0,0.0,0.0,0.0,0.0,0.0,0.0,0.0,0.0,0.0,0.0,0.0,0.0,0.0,0.0,0.0,0.0,0.0,0.0,0.0,0.0,0.0,0.0,0.0,0.0,0.0,0.0,0.0,0.0,0.0,0.0,0.0,0.0,0.0,0.0,0.0,0.0,0.0,0.0,0.0,0.0,0.0,0.0,0.0,0.0,0.0,0.0,0.0,0.0,0.0,0.0,0.0,0.0,0.0,0.0,0.0,0.0,0.0,0.0,0.0,0.0,0.0,0.0,0.0,0.0,0.0,0.0,0.0,0.0,0.0,0.0,0.0,0.0,0.0,0.0,0.0,0.0,-2.3945,-2.3325,-2.3399,-2.3496,-2.3523,-2.2912,-2.2999,-2.4163,0.0,0.0,0.0,0.0,0.0,0.0,0.0,0.0,0.0,0.0,0.0,0.0,0.0,0.0,0.0,0.0,0.0,0.0,0.0,0.0,0.0,0.0,0.0,0.0,0.0,0.0,0.0,0.0,0.0,0.0,0.0,0.0,0.0,0.0,0.0,0.0,0.0,0.0,0.0,0.0,0.0,0.0,0.0,0.0,0.0,0.0,0.0,0.0,0.0,0.0,0.0,0.0,0.0,0.0,0.0,0.0,0.0,0.0,0.0,0.0,0.0,0.0,0.0,0.0,0.0,0.0,0.0,0.0,0.0,0.0,0.0,0.0,0.0,0.0,0.0,0.0,0.0,0.0,0.0,0.0,0.0,0.0,0.0,0.0,0.0,0.0,0.0,0.0,0.0,0.0,0.0,0.0,0.0,0.0,0.0,0.0,0.0,0.0,0.0,0.0,0.0,0.0,0.0,-2.4599,-2.3919,-2.3612,-2.3476,-2.327,-2.2959,-2.2567,-2.2699,-2.3629,-2.39,0.0,0.0,0.0,0.0,0.0,0.0,0.0,0.0,0.0,0.0,0.0,0.0,0.0,0.0,0.0,0.0,0.0,0.0,0.0,0.0,0.0,0.0,0.0,0.0,0.0,0.0,0.0,0.0,0.0,0.0,0.0,0.0,0.0,0.0,0.0,0.0,0.0,0.0,0.0,0.0,0.0,0.0,0.0,0.0,0.0,0.0,0.0,0.0,0.0,0.0,0.0,0.0,0.0,0.0,0.0,0.0,0.0,0.0,0.0,0.0,0.0,0.0,0.0,0.0,0.0,0.0,0.0,0.0,0.0,0.0,0.0,0.0,0.0,0.0,0.0,0.0,0.0,0.0,0.0,0.0,0.0,0.0,0.0,0.0,0.0,0.0,0.0,0.0,0.0,0.0,0.0,0.0,0.0,0.0,0.0,0.0,0.0,0.0,0.0,0.0,0.0,0.0,-2.4967,-2.3866,-2.371,-2.3363,-2.2919,-2.2361,-2.231,-2.2535,-2.3045,-2.3165,0.0,0.0,0.0,0.0,0.0,0.0,0.0,0.0,0.0,0.0,0.0,0.0,0.0,0.0,0.0,0.0,0.0,0.0,0.0,0.0,0.0,0.0,0.0,0.0,0.0,0.0,0.0,0.0,0.0,0.0,0.0,0.0,0.0,0.0,0.0,0.0,0.0,0.0,0.0,0.0,0.0,0.0,0.0,0.0,0.0,0.0,0.0,0.0,0.0,0.0,0.0,0.0,0.0,0.0,0.0,0.0,0.0,0.0,0.0,0.0,0.0,0.0,0.0,0.0,0.0,0.0,0.0,0.0,0.0,0.0,0.0,0.0,0.0,0.0,0.0,0.0,0.0,0.0,0.0,0.0,0.0,0.0,0.0,0.0,0.0,0.0,0.0,0.0,0.0,0.0,0.0,0.0,0.0,0.0,0.0,0.0,0.0,0.0,0.0,0.0,0.0,0.0,-2.33,-2.2807,-2.2807,-2.2549,-2.2361,-2.231,-2.231,-2.2426,-2.2721,-2.3021,0.0,0.0,0.0,0.0,0.0,0.0,0.0,0.0,0.0,0.0,0.0,0.0,0.0,0.0,0.0,0.0,0.0,0.0,0.0,0.0,0.0,0.0,0.0,0.0,0.0,0.0,0.0,0.0,0.0,0.0,0.0,0.0,0.0,0.0,0.0,0.0,0.0,0.0,0.0,0.0,0.0,0.0,0.0,0.0,0.0,0.0,0.0,0.0,0.0,0.0,0.0,0.0,0.0,0.0,0.0,0.0,0.0,0.0,0.0,0.0,0.0,0.0,0.0,0.0,0.0,0.0,0.0,0.0,0.0,0.0,0.0,0.0,0.0,0.0,0.0,0.0,0.0,0.0,0.0,0.0,0.0,0.0,0.0,0.0,0.0,0.0,0.0,0.0,0.0,0.0,0.0,0.0,0.0,0.0,0.0,0.0,0.0,0.0,0.0,0.0,0.0,0.0,-2.327,-2.2807,-2.3095,-2.2632,-2.231,-2.231,-2.231,-2.2398,-2.2669,0.0,0.0,0.0,0.0,0.0,0.0,0.0,0.0,0.0,0.0,0.0,0.0,0.0,0.0,0.0,0.0,0.0,0.0,0.0,0.0,0.0,0.0,0.0,0.0,0.0,0.0,0.0,0.0,0.0,0.0,0.0,0.0,0.0,0.0,0.0,0.0,0.0,0.0,0.0,0.0,0.0,0.0,0.0,0.0,0.0,0.0,0.0,0.0,0.0,0.0,0.0,0.0,0.0,0.0,0.0,0.0,0.0,0.0,0.0,0.0,0.0,0.0,0.0,0.0,0.0,0.0,0.0,0.0,0.0,0.0,0.0,0.0,0.0,0.0,0.0,0.0,0.0,0.0,0.0,0.0,0.0,0.0,0.0,0.0,0.0,0.0,0.0,0.0,0.0,0.0,0.0,0.0,0.0,0.0,0.0,0.0,0.0,0.0,0.0,0.0,0.0,0.0,-2.4597,-2.3859,-2.3391,-2.371,-2.3088,-2.2649,-2.2649,-2.2446,-2.2388,-2.2563,0.0,0.0,0.0,0.0,0.0,0.0,0.0,0.0,0.0,0.0,0.0,0.0,0.0,0.0,0.0,0.0,0.0,0.0,0.0,0.0,0.0,0.0,0.0,0.0,0.0,0.0,0.0,0.0,0.0,0.0,0.0,0.0,0.0,0.0,0.0,0.0,0.0,0.0,0.0,0.0,0.0,0.0,0.0,0.0,0.0,0.0,0.0,0.0,0.0,0.0,0.0,0.0,0.0,0.0,0.0,0.0,0.0,0.0,0.0,0.0,0.0,0.0,0.0,0.0,0.0,0.0,0.0,0.0,0.0,0.0,0.0,0.0,0.0,0.0,0.0,0.0,0.0,0.0,0.0,0.0,0.0,0.0,0.0,0.0,0.0,0.0,0.0,0.0,0.0,0.0,0.0,0.0,0.0,0.0,0.0,0.0,0.0,0.0,0.0,0.0,0.0,0.0,-2.5419,-2.4931,-2.4506,-2.4523,-2.3849,-2.341,-2.3393,-2.2733,-2.2327,0.0,0.0,0.0,0.0,0.0,0.0,0.0,0.0,0.0,0.0,0.0,0.0,0.0,0.0,0.0,0.0,0.0,0.0,0.0,0.0,0.0,0.0,0.0,0.0,0.0,0.0,0.0,0.0,0.0,0.0,0.0,0.0,0.0,0.0,0.0,0.0,0.0,0.0,0.0,0.0,0.0,0.0,0.0,0.0,0.0,0.0,0.0,0.0,0.0,0.0,0.0,0.0,0.0,0.0,0.0,0.0,0.0,0.0,0.0,0.0,0.0,0.0,0.0,0.0,0.0,0.0,0.0,0.0,0.0,0.0,0.0,0.0,0.0,0.0,0.0,0.0,0.0,0.0,0.0,0.0,0.0,0.0,0.0,0.0,0.0,0.0,0.0,0.0,0.0,0.0,0.0,0.0,0.0,0.0,0.0,0.0,0.0,0.0,0.0,0.0,0.0,0.0,0.0,-2.626,-2.5276,-2.4678,-2.522,-2.4611,-2.3951,-2.3427,-2.319,-2.3071,-2.3071,0.0,0.0,0.0,0.0,0.0,0.0,0.0,0.0,0.0,0.0,0.0,0.0,0.0,0.0,0.0,0.0,0.0,0.0,0.0,0.0,0.0,0.0,0.0,0.0,0.0,0.0,0.0,0.0,0.0,0.0,0.0,0.0,0.0,0.0,0.0,0.0,0.0,0.0,0.0,0.0,0.0,0.0,0.0,0.0,0.0,0.0,0.0,0.0,0.0,0.0,0.0,0.0,0.0,0.0,0.0,0.0,0.0,0.0,0.0,0.0,0.0,0.0,0.0,0.0,0.0,0.0,0.0,0.0,0.0,0.0,0.0,0.0,0.0,0.0,0.0,0.0,0.0,0.0,0.0,0.0,0.0,0.0,0.0,0.0,0.0,0.0,0.0,0.0,0.0,0.0,0.0,0.0,0.0,0.0,0.0,0.0,0.0,0.0,0.0,0.0,0.0,0.0,-2.7268,-2.645,-2.6116,-2.686,-2.5998,-2.5067,-2.434,-2.3731,-2.3274,-2.2987,0.0,0.0,0.0,0.0,0.0,0.0,0.0,0.0,0.0,0.0,0.0,0.0,0.0,0.0,0.0,0.0,0.0,0.0,0.0,0.0,0.0,0.0,0.0,0.0,0.0,0.0,0.0,0.0,0.0,0.0,0.0,0.0,0.0,0.0,0.0,0.0,0.0,0.0,0.0,0.0,0.0,0.0,0.0,0.0,0.0,0.0,0.0,0.0,0.0,0.0,0.0,0.0,0.0,0.0,0.0,0.0,0.0,0.0,0.0,0.0,0.0,0.0,0.0,0.0,0.0,0.0,0.0,0.0,0.0,0.0,0.0,0.0,0.0,0.0,0.0,0.0,0.0,0.0,0.0,0.0,0.0,0.0,0.0,0.0,0.0,0.0,0.0,0.0,0.0,0.0,0.0,0.0,0.0,0.0,0.0,0.0,0.0,0.0,0.0,0.0,0.0,0.0,-2.8273,-2.8101,-2.8197,-2.8907,-2.7672,-2.6505,-2.5761,-2.4357,-2.3236,-2.2575,0.0,0.0,0.0,0.0,0.0,0.0,0.0,0.0,0.0,0.0,0.0,0.0,0.0,0.0,0.0,0.0,0.0,0.0,0.0,0.0,0.0,0.0,0.0,0.0,0.0,0.0,0.0,0.0,0.0,0.0,0.0,0.0,0.0,0.0,0.0,0.0,0.0,0.0,0.0,0.0,0.0,0.0,0.0,0.0,0.0,0.0,0.0,0.0,0.0,0.0,0.0,0.0,0.0,0.0,0.0,0.0,0.0,0.0,0.0,0.0,-2.7293,-2.6691,0.0,0.0,0.0,0.0,0.0,0.0,0.0,0.0,0.0,0.0,0.0,0.0,0.0,0.0,0.0,0.0,0.0,0.0,0.0,0.0,0.0,0.0,0.0,0.0,0.0,0.0,0.0,0.0,0.0,0.0,0.0,0.0,0.0,0.0,0.0,0.0,0.0,0.0,0.0,0.0,-2.838,-2.8613,-2.8789,-2.8958,-2.8146,-2.7283,-2.6522,-2.5101,-2.4322,-2.4414,-2.4251,0.0,0.0,0.0,0.0,0.0,0.0,0.0,0.0,0.0,0.0,0.0,0.0,0.0,0.0,0.0,0.0,0.0,0.0,0.0,0.0,0.0,0.0,0.0,0.0,0.0,0.0,0.0,0.0,0.0,0.0,0.0,0.0,0.0,0.0,0.0,0.0,0.0,0.0,0.0,0.0,0.0,0.0,0.0,0.0,0.0,0.0,0.0,0.0,0.0,0.0,0.0,0.0,0.0,0.0,0.0,0.0,0.0,0.0,0.0,-2.9117,-2.8104,0.0,0.0,0.0,0.0,0.0,0.0,0.0,0.0,0.0,0.0,0.0,0.0,0.0,0.0,0.0,0.0,0.0,0.0,0.0,0.0,0.0,0.0,0.0,0.0,0.0,0.0,0.0,0.0,0.0,0.0,0.0,0.0,0.0,0.0,0.0,0.0,0.0,0.0,0.0,0.0,-2.9624,-2.9629,-2.9786,-3.0535,-2.9262,-2.8132,-2.7587,-2.6165,-2.5143,-2.476,-2.4874,0.0,0.0,0.0,0.0,0.0,0.0,0.0,0.0,0.0,0.0,0.0,0.0,0.0,0.0,0.0,0.0,0.0,0.0,0.0,0.0,0.0,0.0,0.0,0.0,0.0,0.0,0.0,0.0,0.0,0.0,0.0,0.0,0.0,0.0,0.0,0.0,0.0,0.0,0.0,0.0,0.0,0.0,0.0,0.0,0.0,0.0,0.0,0.0,0.0,0.0,0.0,0.0,0.0,-3.4252,-3.3846,-3.2865,-3.3,-3.273,-3.2138,-3.163,-3.0441,-2.887,-2.9313,0.0,0.0,0.0,0.0,0.0,0.0,0.0,0.0,0.0,0.0,0.0,0.0,0.0,0.0,0.0,0.0,0.0,0.0,0.0,0.0,0.0,0.0,-3.0598,-3.0192,-3.0666,-3.0535,-2.8134,0.0,0.0,0.0,0.0,0.0,0.0,0.0,0.0,0.0,0.0,0.0,-3.0992,-3.0784,-3.0976,-3.2298,-3.0547,-2.9144,-2.8739,-2.7374,-2.6048,-2.4971,-2.5506,-2.5742,0.0,0.0,0.0,0.0,0.0,0.0,0.0,0.0,0.0,0.0,0.0,0.0,0.0,0.0,0.0,0.0,0.0,0.0,0.0,0.0,0.0,0.0,0.0,0.0,0.0,0.0,0.0,0.0,0.0,0.0,0.0,0.0,-2.6061,-2.6171,0.0,0.0,0.0,0.0,0.0,0.0,0.0,0.0,0.0,0.0,0.0,0.0,0.0,-3.432,-3.5165,-3.6603,-3.6992,-3.6349,-3.7635,-3.7178,-3.5199,-3.5876,-3.6129,-3.6073,-3.6457,0.0,-3.1405,-3.1422,0.0,0.0,0.0,0.0,0.0,0.0,0.0,0.0,0.0,0.0,0.0,0.0,0.0,0.0,0.0,0.0,0.0,0.0,0.0,0.0,0.0,0.0,-3.2493,-3.0565,-3.0666,-3.121,-3.1215,-3.1164,-3.0761,-2.9601,-2.9973,-3.0221,0.0,0.0,0.0,0.0,0.0,0.0,-3.1157,-3.1664,-3.2253,-3.2835,-3.1458,-3.0333,-2.9986,-2.8611,-2.7504,-2.6885,-2.5708,-2.5778,-2.7336,-2.6885,0.0,0.0,0.0,0.0,0.0,0.0,0.0,0.0,0.0,0.0,0.0,0.0,0.0,0.0,0.0,0.0,0.0,0.0,0.0,0.0,0.0,0.0,0.0,0.0,0.0,0.0,0.0,0.0,0.0,-2.5409,-2.6105,-2.5047,-2.5644,-2.5719,0.0,0.0,0.0,0.0,0.0,0.0,0.0,0.0,0.0,-3.5859,-3.6637,-3.777,-3.936,-4.0037,-4.0409,-4.051,-4.0324,-3.9512,-3.8142,-3.8384,-3.8259,-3.7892,-3.8447,-3.7927,-3.6488,-3.487,-3.367,-3.2787,0.0,0.0,0.0,0.0,-3.2771,-3.3093,-3.363,-3.3544,-3.3227,-3.351,0.0,0.0,0.0,0.0,0.0,0.0,0.0,-3.3105,-3.1794,-3.2747,-3.3846,-3.3168,-3.3591,-3.4185,-3.4518,-3.4438,-3.3813,-3.204,-3.273,-3.3076,-3.1319,-3.0659,0.0,0.0,0.0,-3.1647,-3.2882,-3.2861,-3.2926,-3.3533,-3.2109,-3.1144,-3.1196,-2.9786,-2.8693,-2.8233,-2.715,-2.6702,-2.7108,-2.7218,-2.7603,0.0,0.0,0.0,0.0,0.0,0.0,0.0,0.0,0.0,0.0,0.0,0.0,0.0,0.0,0.0,0.0,0.0,0.0,0.0,0.0,0.0,0.0,0.0,0.0,0.0,0.0,0.0,0.0,-2.5747,-2.64,-2.5046,-2.6421,-2.6861,0.0,0.0,0.0,0.0,0.0,0.0,-3.5141,-3.5325,-3.6458,-3.8908,-3.9919,-4.1305,-4.3149,-4.3352,-4.363,-4.3929,-4.2635,-4.1613,-4.0837,-4.0481,-4.0027,-3.953,-4.0134,-4.0587,-4.0708,-3.799,-3.629,-3.54,-3.5019,-3.4863,-3.4938,-3.5565,-3.5933,-3.6247,-3.719,-3.7138,-3.6566,-3.6398,-3.5701,-3.4691,-3.3184,0.0,0.0,0.0,0.0,-3.4575,-3.4257,-3.4831,-3.5624,-3.6046,-3.6696,-3.7251,-3.729,-3.7496,-3.6844,-3.4232,-3.4921,-3.5253,-3.3067,-3.2286,0.0,-3.2366,-3.232,-3.2787,-3.4227,-3.3835,-3.3644,-3.4102,-3.2785,-3.1923,-3.2144,-3.1048,-3.0072,-2.936,-2.8558,-2.7842,-2.7255,-2.7585,-2.7897,-2.8099,0.0,0.0,0.0,0.0,0.0,0.0,0.0,0.0,0.0,0.0,0.0,0.0,0.0,0.0,0.0,0.0,0.0,0.0,0.0,0.0,0.0,0.0,0.0,0.0,0.0,0.0,0.0,0.0,0.0,-2.8286,-2.9302,0.0,0.0,0.0,0.0,-3.2091,-3.2118,-3.3604,-3.7138,-3.7487,-3.8887,-4.1898,-4.3524,-4.4688,-4.5517,-4.621,-4.6164,-4.539,-4.456,-4.3711,-4.2811,-4.2051,-4.1679,-4.1687,-4.2275,-4.2546,-4.2386,-3.995,-3.9234,-3.9488,-3.8259,-3.7799,-3.7731,-3.7345,-3.7676,-3.8224,-3.7534,-3.7305,-3.7574,-3.9482,-3.9358,-3.8345,-3.7824,-3.6118,0.0,0.0,-3.5314,-3.5982,-3.6186,-3.7218,-3.8254,-3.8477,-3.9024,-3.9352,-3.9049,-3.9589,-3.9097,-3.5601,-3.5009,-3.4895,-3.4377,0.0,-3.3635,-3.4036,-3.4649,-3.4852,-3.4207,-3.4456,-3.4587,-3.4343,-3.3574,-3.2969,-3.259,-3.2515,-3.1799,-3.0246,-2.936,-2.892,-2.8865,-2.8172,-2.8154,-2.892,-2.8975,0.0,0.0,0.0,0.0,0.0,0.0,0.0,0.0,0.0,0.0,0.0,0.0,0.0,0.0,0.0,0.0,0.0,0.0,0.0,0.0,0.0,0.0,0.0,0.0,0.0,0.0,0.0,0.0,-2.8985,-3.0686,0.0,-3.0887,-3.2133,-3.3851,-3.5871,-3.6724,-3.8762,-4.2593,-4.2361,-4.3065,-4.5077,-4.5739,-4.6561,-4.7739,-4.7533,-4.7503,-4.7588,-4.6305,-4.5023,-4.3713,-4.331,-4.2866,-4.2422,-4.2958,-4.3214,-4.3141,-4.23,-4.1729,-4.1368,-4.0361,-3.9999,-3.9987,-3.9932,-4.0107,-4.0412,-4.0684,-4.0414,-3.9967,-4.0047,-3.9456,-3.8658,-3.8496,-3.8209,-3.7895,-3.7644,-3.8187,-3.8705,-3.851,-3.8509,-3.8688,-3.9135,-3.9063,-3.8894,-3.8655,-3.9442,-3.9589,-3.7283,-3.715,-3.7161,-3.6492,-3.5571,-3.5106,-3.574,-3.5349,-3.5058,-3.5249,-3.48,-3.4422,-3.4299,-3.388,-3.3524,-3.3385,-3.2908,-3.2137,-3.1035,-3.0228,-2.9549,-2.9012,-2.87,-2.8723,-2.8975,-2.8994,-2.9089,0.0,0.0,0.0,0.0,0.0,0.0,0.0,0.0,0.0,0.0,0.0,0.0,0.0,0.0,0.0,0.0,0.0,0.0,0.0,0.0,0.0,0.0,0.0,0.0,0.0,-2.8788,-3.0623,-3.0125,-3.2557,-3.3993,-3.3242,-3.4996,-3.7014,-3.912,-4.004,-4.1914,-4.5042,-4.4992,-4.5488,-4.6713,-4.7038,-4.7875,-4.9271,-4.8785,-4.8732,-4.9109,-4.779,-4.6436,-4.5114,-4.4744,-4.4266,-4.3757,-4.3852,-4.3901,-4.3883,-4.3608,-4.3185,-4.2653,-4.2121,-4.1919,-4.1941,-4.2068,-4.2123,-4.2196,-4.2777,-4.2595,-4.1996,-4.1324,-4.0561,-3.9918,-3.9918,-4.0102,-4.0221,-3.9883,-4.0021,-4.0219,-3.9971,-3.9634,-3.9433,-3.9866,-3.9834,-3.9623,-3.938,-4.0078,-4.0321,-3.8923,-3.8933,-3.8854,-3.8028,-3.7062,-3.6555,-3.7012,-3.6378,-3.5936,-3.6114,-3.5468,-3.4854,-3.4564,-3.4099,-3.3807,-3.3807,-3.3311,-3.2559,-3.1458,-3.0889,-3.0118,-2.903,-2.925,-2.9402,-2.9402,-2.9402,-2.9365,-2.9267,0.0,0.0,0.0,0.0,0.0,0.0,0.0,0.0,0.0,0.0,0.0,0.0,0.0,0.0,0.0,0.0,0.0,0.0,0.0,0.0,0.0,0.0,0.0,-2.7754,-2.9422,-3.1043,-3.1909,-3.4994,-3.6938,-3.6694,-3.8377,-4.0228,-4.1798,-4.1914,-4.2679,-4.4244,-4.5129,-4.592,-4.6711,-4.7519,-4.8643,-5.0072,-5.009,-4.9943,-4.9767,-4.8946,-4.8073,-4.7131,-4.6287,-4.5883,-4.581,-4.5021,-4.4672,-4.4617,-4.3809,-4.3497,-4.3497,-4.3497,-4.3497,-4.3497,-4.3497,-4.3497,-4.3497,-4.3497,-4.3497,-4.3497,-4.3497,-4.2931,-4.2289,-4.2289,-4.1724,-4.1119,-4.1119,-4.0722,-4.0324,-4.0583,-4.0612,-4.0662,-4.0868,-4.134,-4.1629,-4.1348,-4.1538,-4.1422,-4.0324,-4.0013,-3.9667,-3.8841,-3.8267,-3.7928,-3.7928,-3.791,0.0,-3.6847,-3.6474,-3.5991,-3.5155,-3.4376,-3.388,-3.388,-3.3825,-3.3109,-3.1494,-3.1366,-3.065,-2.9067,-2.9751,-3.0173,-3.0173,-3.0155,-2.9806,-2.903,0.0,0.0,0.0,0.0,0.0,0.0,0.0,0.0,0.0,0.0,0.0,0.0,0.0,0.0,0.0,0.0,0.0,0.0,0.0,0.0,0.0,-2.8615,-3.0378,-2.8944,-3.0999,-3.3256,-3.4971,-3.7049,-3.8789,-3.9949,-4.1556,-4.3071,-4.4198,-4.4844,-4.5898,-4.7591,-4.7407,-4.7791,-4.9034,-4.9371,-5.0122,-5.1526,-5.1526,-5.1466,-5.1383,-5.0537,-4.9395,-4.7921,-4.6526,-4.5571,-4.5002,-4.4176,-4.3828,-4.3809,-4.3589,-4.3497,-4.3497,-4.3497,-4.3497,-4.3497,-4.3497,-4.3497,-4.3497,-4.3497,-4.325,-4.2902,-4.2902,-4.2474,-4.1944,-4.1944,-4.1801,-4.16,-4.16,-4.1502,-4.1375,-4.1439,-4.113,-4.0826,-4.0897,-4.0336,-3.9598,-3.9008,-3.9631,-3.9949,-3.8537,-3.972,-4.0564,-3.9152,-3.8682,-3.8465,-3.8465,-3.7985,-3.7546,-3.7326,-3.6721,-3.6431,-3.678,-3.6083,-3.5605,-3.5605,-3.4504,-3.3109,-3.1494,-3.0852,-3.0081,-2.903,-2.9195,-2.9347,-2.9347,-2.9514,-2.9699,0.0,0.0,0.0,0.0,0.0,0.0,0.0,0.0,0.0,0.0,0.0,0.0,0.0,0.0,0.0,0.0,0.0,0.0,0.0,0.0,0.0,0.0,-3.0693,-3.2345,-3.2152,-3.3781,-3.555,-3.7233,-3.8871,-4.0541,-4.2272,-4.351,-4.4746,-4.6131,-4.6684,-4.7583,-4.8923,-4.8595,-4.8873,-4.9959,-5.0067,-5.0734,-5.2112,-5.2112,-5.2091,-5.1977,-5.1187,-5.0105,-4.8802,-4.7498,-4.6471,-4.5681,-4.4856,-4.4305,-4.3975,-4.3626,-4.3497,-4.3497,0.0,0.0,0.0,0.0,-4.3497,-4.3463,-4.325,-4.2976,-4.26,-4.2045,-4.1836,-4.174,-4.1403,-4.1545,-4.181,-4.181,-4.1621,-4.1446,-4.1446,-4.1013,-4.0508,-4.0182,-3.9552,-3.8865,-3.8367,-3.887,-3.925,-3.8607,-3.9673,0.0,-3.9792,-3.9402,-3.9093,-3.8762,-3.8303,-3.7991,-3.7991,-3.7294,-3.6905,-3.7143,-3.6437,-3.5818,-3.549,-3.4579,0.0,0.0,0.0,-3.0338,-2.9549,-2.9512,0.0,0.0,0.0,-3.0374,-3.0705,-3.1186,0.0,0.0,-3.254,-3.2797,0.0,0.0,0.0,0.0,0.0,0.0,0.0,0.0,0.0,0.0,0.0,0.0,0.0,0.0,0.0,0.0,-3.2854,-3.4136,-3.6164,-3.7057,-3.7781,-3.89,-4.0541,-4.2152,-4.3731,-4.4647,-4.5794,-4.744,-4.7721,-4.8144,-4.9029,-4.9107,0.0,0.0,0.0,-5.0858,-5.2224,-5.2206,-5.219,-5.2123,-5.1316,-5.0508,-4.9682,-4.8746,-4.781,-4.6929,-4.6122,-4.5314,-4.4525,-4.3791,-4.3497,-4.3497,-4.3497,-4.3497,-4.3497,-4.3497,-4.3444,-4.3339,-4.2864,0.0,0.0,-4.1014,-4.1047,-4.148,-4.0747,-4.1004,-4.1595,-4.1595,-4.1223,-4.0827,-4.0827,-4.0449,-3.9968,-3.9357,-3.9037,-3.8843,-3.8807,-3.8763,-3.8911,-3.9416,-3.9604,-3.9817,-4.0246,-4.0041,-3.9598,-3.9056,-3.8817,-3.8726,-3.8817,-3.809,-3.7393,-3.7025,-3.6255,0.0,-3.4763,-3.4488,-3.3923,-3.2808,-3.1898,-3.1072,-3.0356,-3.0338,-3.0668,-3.1384,-3.1384,-3.1439,-3.1531,-3.2339,-3.3164,-3.3917,-3.3201,-3.3311,0.0,0.0,0.0,0.0,0.0,0.0,0.0,0.0,0.0,0.0,0.0,0.0,0.0,0.0,0.0,-3.2133,-3.5063,-3.7254,-3.6919,-3.8668,-4.0115,-4.0394,-4.164,-4.3102,-4.4487,-4.6109,-4.7239,-4.7589,-4.8289,-4.9057,-4.9763,-4.9821,-5.039,-5.1643,-5.1692,-5.2131,-5.2999,-5.2999,-5.2969,-5.2968,-5.2142,0.0,-5.0527,-4.9003,-4.7517,-4.6085,-4.5278,-4.4488,-4.3718,-4.3552,-4.3497,-4.3497,-4.3497,-4.3497,-4.3497,-4.3497,-4.3214,-4.2826,-4.275,-4.2062,-4.1101,-4.0244,-4.0193,-4.028,-3.9546,-3.9836,0.0,-4.0417,-4.0336,-4.0237,-4.0237,-4.0171,-4.017,-4.0483,-3.9289,-3.8355,-3.9157,-3.8251,-3.7364,-3.7862,-3.8786,-3.9347,-3.8828,-3.8993,-3.9527,-4.0496,-3.9533,-3.8927,-3.957,-3.8605,-3.8032,-3.8578,-3.7911,-3.737,-3.7226,-3.5775,-3.4485,-3.3623,-3.2192,-3.1329,-3.1164,-3.1164,-3.1237,-3.1384,-3.1384,-3.1715,-3.2375,-3.3183,-3.399,-3.4752,-3.4605,-3.5018,0.0,0.0,0.0,0.0,0.0,0.0,0.0,0.0,0.0,0.0,0.0,-3.0761,-3.142,0.0,-3.4673,-3.52,-3.701,-3.8601,-3.9272,-4.0124,-4.0839,-4.1235,-4.2546,-4.4188,-4.5953,-4.772,-4.9085,-4.9898,-5.0397,-5.0776,-5.1132,-5.0764,-5.1034,-5.2065,-5.2112,-5.2445,-5.3206,-5.3206,-5.3206,-5.3206,-5.238,-5.1573,-5.0747,-4.9058,-4.7425,-4.5865,-4.5057,-4.425,-4.3497,-4.3497,-4.3497,-4.3479,-4.3214,-4.3105,-4.3105,-4.3105,-4.2714,-4.2221,-4.1895,-4.1402,-4.0735,-3.9718,-3.9739,-3.9935,-3.9208,-3.9512,-4.007,-4.007,-4.007,-4.007,-4.007,-4.0286,-4.0394,-4.0035,-3.9646,-3.9197,-3.8789,-3.8481,-3.8168,-3.7809,-3.8842,-3.9747,-3.9552,-3.9352,-3.9354,-3.9841,-3.8976,-3.8528,-3.9208,-3.8702,-3.8328,-3.8487,-3.8128,-3.7749,-3.7352,-3.5872,-3.4642,-3.3844,-3.2669,-3.1825,-3.1403,-3.1384,-3.1586,-3.199,-3.2008,-3.2596,-3.378,-3.4211,-3.5101,-3.6453,-3.6297,-3.6486,0.0,0.0,0.0,0.0,0.0,0.0,0.0,-2.9139,-2.926,-3.1011,-3.1955,-3.2856,-3.4038,-3.5364,-3.6818,-3.84,-3.8886,-3.9742,-4.151,-4.144,-4.1468,-4.2138,-4.3584,-4.5419,-4.7513,-4.9121,-5.0679,-5.2183,-5.2183,-5.22,-5.2465,-5.1718,-5.1611,-5.2271,-5.2317,-5.2599,-5.3206,-5.3206,-5.3206,-5.3206,-5.238,-5.1573,-5.0747,-4.9058,-4.7425,-4.5847,-4.4892,-4.4103,-4.3497,-4.3497,-4.3444,-4.3286,-4.2864,-4.2577,-4.2342,-4.248,-4.2162,-4.1578,-4.1087,-4.081,-4.0535,-3.9387,-3.9478,-3.9935,-3.9208,-3.9512,-4.007,-4.007,-4.007,-4.007,-4.007,-4.0497,-4.0671,-3.9761,-4.0051,-4.0172,-3.8842,-3.9021,-3.9158,-3.821,-3.9013,-3.9924,-4.02,-3.9792,-3.9394,-3.9424,-3.8642,-3.8271,-3.8878,-3.8719,-3.8382,-3.7946,-3.7893,-3.7621,-3.691,-3.6006,-3.5147,-3.4339,-3.3532,-3.2779,-3.2118,-3.1935,-3.2247,-3.3054,-3.3073,-3.3807,-3.5247,-3.5422,-3.6307,-3.7801,-3.7753,-3.7757,-2.7019,-2.7646,-2.8925,-3.0499,-3.0624,-3.143,0.0,-3.4756,-3.3903,-3.7033,-3.6751,-3.6148,-3.6851,-3.8202,-3.9287,-3.9504,-4.0695,-4.1676,-4.1964,-4.2569,-4.324,-4.3863,-4.532,-4.6784,-4.8269,-4.992,-5.1317,-5.2201,-5.1617,-5.1821,-5.3135,-5.2432,-5.2335,-5.3042,-5.306,-5.3103,-5.3206,-5.3206,-5.3206,-5.3206,-5.238,-5.1573,-5.0747,-4.9058,-4.7425,-4.581,-4.4287,-4.3571,-4.3497,-4.3497,-4.3214,-4.2788,-4.2732,-4.2038,-4.1178,-4.1707,-4.1534,-4.0995,-4.0903,-4.0577,-4.0035,-3.9274,-3.9478,-3.9935,-3.9208,-3.9512,-4.007,-4.007,-4.007,-4.007,-4.007,-4.0497,-4.1024,-4.1385,-4.0666,-4.0097,-4.0864,-3.9451,-3.8193,-3.8481,-3.8656,-3.8712,-3.8571,-3.9102,-4.0024,-4.1656,-4.0033,-3.8884,-3.9662,-3.8736,-3.798,-3.7911,-3.7893,-3.7772,-3.7442,-3.7283,-3.6872,-3.6064,-3.522,-3.4679,-3.4587,-3.3917,-3.3917,-3.4715,-3.4715,-3.522,-3.6156,-3.6853,-3.7323,-3.7566,-3.826,-3.8685,-3.0032,-3.0154,-3.0422,-3.1693,-3.2849,-3.4166,-3.6131,-3.6389,-3.6816,-3.9025,-3.9251,-3.9183,-3.9448,-4.0318,-4.1035,-4.1035,-4.1613,-4.2189,-4.2724,-4.3353,-4.4041,-4.4714,-4.6508,-4.8155,-4.9181,-5.1169,-5.2682,-5.3465,-5.3222,-5.3279,-5.3936,-5.3207,-5.2875,-5.3206,-5.3206,-5.3206,-5.3206,-5.3206,-5.3206,-5.3206,-5.238,-5.1316,-5.0031,-4.8379,-4.6728,-4.5149,-4.3993,-4.3754,-4.4123,-4.3379,-4.2902,-4.2616,-4.1937,-4.1358,-4.0949,-4.1161,-4.092,-4.0449,-4.0449,-4.0286,-4.002,-3.9715,-3.9834,-4.002,-3.9715,-3.9834,-4.0171,-4.0497,-4.0577,-4.0672,-4.0984,-4.1508,-4.1937,-4.1793,-4.1647,-4.1416,-4.1153,-4.0329,-3.9483,-3.8914,-3.9187,-3.9531,-3.9688,-3.9952,-4.0649,-4.2077,-4.0382,-3.9185,-3.9813,-3.899,-3.8382,-3.8382,-3.8382,-3.8319,-3.8212,-3.7753,-3.7379,-3.7,-3.6211,-3.5532,-3.5009,-3.5165,-3.5183,-3.499,-3.5514,-3.6174,-3.6982,-3.7331,-3.7827,-3.8433,-3.8626,-3.8826,-3.1009,-3.1236,-3.1338,-3.2511,-3.4616,-3.6456,-3.6892,-3.794,-3.9291,-4.0658,-4.0965,-4.1068,-4.126,-4.1851,-4.2395,-4.2395,-4.2583,-4.297,-4.3562,-4.4013,-4.4457,-4.5112,-4.6838,-4.8338,-4.9307,-5.1538,-5.3354,-5.4319,-5.4197,-5.4252,-5.4711,-5.3977,-5.3628,-5.3849,-5.3867,-5.3867,-5.3867,-5.3647,-5.3537,-5.3518,-5.227,-5.1059,-4.9866,-4.7976,-4.6232,-4.4672,-4.4085,-4.403,-4.4288,-4.3175,-4.2616,-4.2342,-4.1313,-4.0827,-4.0703,-4.0703,-4.0449,-4.007,-4.007,-4.007,-4.007,-4.007,-4.007,-4.007,-4.007,-4.007,-4.0204,-4.0733,-4.0903,-4.1041,-4.1621,-4.2262,-4.2577,-4.2162,-4.2382,-4.2422,-4.1358,-4.1041,-4.0578,-3.9525,-3.9715,-4.0195,-4.0385,-4.0711,-4.1194,-4.1958,-4.0866,-3.9974,-3.9905,-3.9203,-3.8707,-3.8707,-3.8707,-3.8707,-3.8707,-3.8175,-3.7826,-3.7826,-3.7074,-3.634,-3.5734,-3.6083,-3.6101,-3.5716,-3.6303,-3.7019,-3.7826,-3.7826,-3.8214,-3.8971,-3.8773,-3.8803,-2.8153,-2.9498,-3.0986,-3.2976,-3.5636,-3.8168,-3.9574,-4.0538,-4.1478,-4.2944,-4.2044,-4.1228,-4.1837,-4.2707,-4.3246,-4.3246,-4.3948,-4.4514,-4.457,-4.4418,-4.4535,-4.5123,-4.5827,-4.6835,-4.821,-5.0578,-5.2711,-5.4289,-5.3683,-5.3922,-5.5464,-5.4803,-5.4711,-5.5482,-5.5519,-5.5519,-5.5519,-5.4748,-5.4363,-5.4344,-5.1977,-5.082,-5.0692,-4.8233,-4.6232,-4.4709,-4.4672,-4.4232,-4.3481,-4.2939,-4.2342,-4.1768,-4.1133,-4.0577,-4.0121,-4.0121,-4.0121,-4.007,-4.007,-4.007,-4.007,-4.007,-4.007,-4.007,-4.007,-4.007,-4.0204,-4.0733,-4.0903,-4.1041,-4.1621,-4.2262,-4.2711,-4.2673,-4.2711,-4.2519,-4.1895,-4.1313,-4.0733,-4.0187,-4.0054,-4.0016,-3.975,-4.0876,-4.1677,-4.1463,-4.1866,-4.1662,-4.0102,-3.9203,-3.8707,-3.8707,-3.8707,-3.8707,-3.8707,-3.8689,-3.867,-3.867,-3.79,-3.747,-3.7422,-3.6688,-3.6652,-3.7404,-3.747,-3.7845,-3.867,-3.867,-3.867,-3.8689,-3.8707,-3.8707,-2.8286,-3.0443,-3.2751,-3.3858,-3.5999,-3.8194,-3.9646,-4.0978,-4.2353,-4.3863,-4.2946,-4.1959,-4.2136,-4.2445,-4.2629,-4.2629,-4.3726,-4.4587,-4.4587,-4.5234,-4.5387,-4.4534,-4.6278,-4.7581,-4.7497,-4.926,-5.1059,-5.2692,-5.2564,-5.3115,-5.4711,-5.4546,-5.4766,-5.5556,-5.5592,-5.5592,-5.5592,-5.4803,-5.4399,-5.4363,-5.1408,-4.9426,-4.8306,-4.6929,-4.6305,-4.6269,-4.5736,-4.5132,-4.4483,-4.335,-4.221,-4.1133,-4.0577,-4.0237,-4.007,-4.007,-4.007,-4.007,-4.007,-4.007,-4.007,-4.007,-4.007,-4.007,-4.007,-4.007,-4.0204,-4.0733,-4.1178,-4.1621,-4.2244,-4.2808,-4.3214,-4.3214,-4.2657,-4.2038,-4.1835,-4.1076,-4.0336,-4.0121,-4.007,-4.0169,-4.0452,-4.1227,-4.2014,-4.2687,-4.2496,-4.1919,-4.0836,-4.0469,-4.0102,-3.9551,-3.9496,-3.9276,-3.8762,-3.8707,-3.8707,-3.8707,-3.8946,-3.8597,-3.7533,-3.8781,-3.8854,-3.7544,-3.8542,-3.8964,-3.8707,-3.8707,-3.8707,-3.8707,-3.8707,-3.8707,-2.881,-3.1102,-3.3425,-3.4562,-3.6537,-3.8478,-3.9694,-4.1393,-4.3003,-4.399,-4.3166,-4.2219,-4.1948,-4.1694,-4.1424,-4.1153,-4.2151,-4.3172,-4.3678,-4.4562,-4.506,-4.4814,-4.635,-4.748,-4.7535,-4.8508,-4.9921,-5.1848,-5.2527,-5.3427,-5.4748,-5.5097,-5.5629,-5.6418,-5.6455,-5.6308,-5.6033,-5.5225,-5.4399,-5.35,-5.0931,-4.8963,-4.7591,-4.6535,-4.62,-4.6382,-4.5856,-4.5152,-4.4247,-4.3129,-4.1967,-4.0874,-4.0336,-4.007,-4.007,-4.007,-4.007,-4.007,-4.007,-4.007,-4.007,-4.007,-4.007,-4.007,-4.007,-4.007,-4.0204,-4.0733,-4.1178,-4.1664,-4.248,-4.2939,-4.3214,-4.3214,-4.2657,-4.1979,-4.1578,-4.0874,-4.0336,-4.0121,-4.007,-4.0204,-4.0528,-4.1268,-4.2103,-4.3087,-4.2935,-4.2433,-4.1644,-4.1295,-4.091,-4.0377,-4.0322,-4.012,-3.9606,-3.957,-3.9441,-3.9148,-3.9606,-3.9423,-3.8395,-3.9845,-4.0084,-3.8799,-3.9515,-3.9643,-3.9129,-3.8836,-3.8707,-3.8707,-3.8707,-3.8707,-2.9639,-3.1395,-3.3066,-3.4981,-3.7111,-3.8898,-3.9706,-4.1618,-4.3192,-4.3247,-4.2658,-4.1897,-4.117,-4.051,-3.9851,-3.9157,-3.9765,-4.0779,-4.2202,-4.2843,-4.3993,-4.6002,-4.6168,-4.6691,-4.8214,-4.8453,-4.9462,-5.1811,-5.3408,-5.4638,-5.5482,-5.6308,-5.7116,-5.7905,-5.7978,-5.7629,-5.6877,-5.6014,-5.4363,-5.1922,-5.0475,-4.9378,-4.8504,-4.7048,-4.5959,-4.5269,-4.5269,-4.4403,-4.2935,-4.2457,-4.1687,-4.0879,-4.0355,-4.0104,-4.007,-4.007,-4.007,-4.007,-4.007,-4.007,-4.007,-4.007,-4.007,-4.007,-4.007,-4.007,-4.0204,-4.0703,-4.0856,-4.1178,-4.2302,-4.2616,-4.2655,-4.2655,-4.2616,-4.2302,-4.1133,-4.0856,-4.0703,-4.0204,-4.0121,-4.0171,-4.0171,-4.1076,-4.2021,-4.2655,-4.3124,-4.3135,-4.2417,-4.1666,-4.1222,-4.1185,-4.1167,-4.1148,-4.1111,-4.1111,-4.0781,-4.001,-3.9992,-3.9992,-3.9955,-4.0029,-4.0396,-4.1093,-4.0396,-3.9974,-3.99,-3.9129,-3.8744,-3.8707,-3.8707,-3.8707,-2.9595,-3.1839,-3.4098,-3.4607,-3.5604,-3.6672,-3.7982,-3.917,-4.0214,-4.0812,-4.0333,-3.9614,-3.8886,-3.9039,-3.9394,-3.9749,-4.1766,-4.3611,-4.4541,-4.5609,-4.6482,-4.7042,-4.801,-4.8783,-4.915,-5.0306,-5.1316,-5.194,-5.238,-5.3225,-5.462,-5.5464,-5.6271,-5.7079,-5.7685,-5.7905,-5.7703,-5.629,-5.4087,-5.1114,-5.0221,-4.9071,-4.7692,-4.6799,-4.6259,-4.6065,-4.6065,-4.5299,-4.4007,-4.3878,-4.277,-4.1137,-4.0951,-4.0578,-4.007,-4.007,-4.007,-4.007,-4.007,-4.007,-4.007,-4.007,-4.007,-4.007,-4.007,-4.007,-4.0121,-4.0254,-4.0577,-4.0949,-4.1268,-4.1707,-4.2021,-4.2021,-4.1664,-4.1251,-4.0949,-4.0577,-4.0237,-4.0121,-4.04,-4.0827,-4.1286,-4.1595,-4.2144,-4.316,-4.2696,-4.2332,-4.2592,-4.2775,-4.2653,-4.2066,-4.1992,-4.1754,-4.1167,-4.1111,-4.102,-4.0818,-4.1368,-4.1423,-4.0836,-4.1956,-4.2103,-4.113,-4.1497,-4.1093,-3.99,-3.968,-3.9294,-3.8707,-3.8707,-3.8707,-3.0161,-3.1957,-3.3754,-3.4322,-3.5057,-3.5844,-3.7027,-3.8083,-3.8949,-3.9096,-3.8824,-3.8294,-3.755,-3.7753,-3.8041,-3.8108,-4.0317,-4.2358,-4.338,-4.4933,-4.6316,-4.7313,-4.8356,-4.915,-4.9499,-5.071,-5.161,-5.1958,-5.2637,-5.3445,-5.4344,-5.5152,-5.5959,-5.6785,-5.7244,-5.7299,-5.695,-5.5684,-5.3812,-5.1316,-5.0037,-4.8737,-4.7491,-4.6189,-4.5597,-4.5597,-4.5597,-4.4958,-4.3975,-4.3975,-4.2859,-4.1204,-4.1204,-4.0747,-4.007,-4.007,-4.007,-4.007,-4.007,-4.007,-4.007,-4.007,-4.007,-4.007,-4.007,-4.007,-4.007,-4.007,-4.0336,-4.0625,-4.0891,-4.1196,-4.1402,-4.1402,-4.1133,-4.0827,-4.0625,-4.0336,-4.0154,-4.0417,-4.0703,-4.1178,-4.2038,-4.1979,-4.2021,-4.2639,-4.2226,-4.1937,-4.2262,-4.2808,-4.3086,-4.2839,-4.2818,-4.2635,-4.2194,-4.2158,-4.2011,-4.1662,-4.2047,-4.2103,-4.1662,-4.2488,-4.2708,-4.2158,-4.2249,-4.168,-4.0432,-4.0065,-3.9478,-3.8707,-3.8707,-3.8707,-3.0979,-3.1838,-3.2781,-3.3933,-3.4836,-3.5599,-3.6156,-3.7491,-3.8338,-3.7467,-3.7525,-3.7452,-3.6527,-3.6506,-3.6468,-3.6011,-3.7729,-3.9682,-4.1215,-4.3198,-4.5293,-4.745,-4.8156,-4.8857,-4.9811,-5.0545,-5.1242,-5.194,-5.339,-5.4234,-5.4234,-5.4987,-5.5849,-5.6785,-5.6804,-5.6418,-5.5592,-5.4913,-5.3586,-5.1669,-4.9798,-4.8374,-4.736,-4.5348,-4.4485,-4.457,-4.4468,-4.4096,-4.3572,-4.3572,-4.2743,-4.1491,-4.139,-4.0899,-4.0206,-4.0121,-4.007,-4.007,-4.007,-4.007,-4.007,-4.007,-4.007,-4.007,-4.007,-4.007,-4.007,-4.007,-4.007,-4.0221,-4.0754,-4.0861,-4.078,-4.078,-4.078,-4.0655,-4.0204,-4.007,-4.0237,-4.078,-4.0903,-4.1223,-4.2302,-4.2038,-4.1707,-4.181,-4.1664,-4.1682,-4.1895,-4.24,-4.2902,-4.3444,-4.3497,-4.3497,-4.3497,-4.3497,-4.3185,-4.2506,-4.2451,-4.2451,-4.2451,-4.2451,-4.2782,-4.3479,-4.28,-4.2066,-4.1277,-4.0561,-3.9753,-3.8854,-3.8854,-3.8799,-3.141,-3.196,-3.2572,-3.2796,-3.38,-3.4543,-3.41,-3.5588,-3.6563,-3.4632,-3.5711,-3.6397,-3.4416,-3.5006,-3.6197,-3.733,-3.8733,-4.0683,-4.3429,-4.5062,-4.6801,-4.9125,-4.9359,-4.9939,-5.1426,-5.1701,-5.1848,-5.1977,-5.2876,-5.3427,-5.3427,-5.4179,-5.528,-5.6767,-5.6804,-5.6418,-5.5592,-5.5445,-5.3632,-5.0162,-4.9293,-4.7844,-4.5822,-4.4292,-4.3978,-4.4536,-4.391,-4.391,-4.4384,-4.4384,-4.3842,-4.298,-4.2354,-4.166,-4.0933,-4.0307,-4.007,-4.007,-4.007,-4.007,-4.007,-4.007,-4.007,-4.007,-4.007,-4.007,-4.007,-4.007,-4.007,-4.0121,-4.0221,-4.0254,-4.0254,-4.0254,-4.0254,-4.0204,-4.0121,-4.007,-4.0237,-4.078,-4.0903,-4.0949,-4.1178,-4.1133,-4.1223,-4.1707,-4.0984,-4.0908,-4.236,-4.2616,-4.2902,-4.3444,-4.3497,-4.3497,-4.3497,-4.3497,-4.3424,-4.3296,-4.3277,-4.3277,-4.3277,-4.3277,-4.3351,-4.3497,-4.3351,-4.2892,-4.2084,-4.1956,-4.113,-3.968,-3.968,-3.9331,-3.0808,-3.1442,-3.2078,-3.2422,-3.2945,-3.3295,-3.2521,-3.3496,-3.4258,-3.3194,-3.3874,-3.4504,-3.4084,-3.4614,-3.5308,-3.6016,-3.766,-3.9637,-4.1866,-4.3645,-4.5468,-4.7333,-4.776,-4.8356,-4.9513,-5.035,-5.0988,-5.1371,-5.2509,-5.3206,-5.3206,-5.3959,-5.495,-5.6143,-5.6583,-5.662,-5.6235,-5.5794,-5.3843,-5.0408,-4.9371,-4.7724,-4.5442,-4.4477,-4.4231,-4.4553,-4.4181,-4.4012,-4.4012,-4.4418,-4.3656,-4.2269,-4.2286,-4.1593,-4.0578,-4.0206,-4.007,-4.007,-4.007,-4.007,-4.007,-4.007,-4.007,-4.007,-4.007,-4.007,-4.007,-4.007,-4.007,-4.007,-4.007,-4.007,-4.007,-4.007,-4.007,-4.007,-4.007,-4.007,-4.0237,-4.078,-4.0903,-4.0995,-4.1313,-4.1133,-4.0995,-4.1313,-4.0642,-4.0514,-4.1639,-4.2038,-4.2541,-4.341,-4.3497,-4.3497,-4.3497,-4.3497,-4.3497,-4.3497,-4.3497,-4.3497,-4.3497,-4.3497,-4.3497,-4.3497,-4.3497,-4.3094,-4.2304,-4.2304,-4.146,-3.99,-3.99,-3.946,-2.9909,-3.066,-3.1411,-3.2109,-3.2405,-3.2276,-3.1413,-3.1949,-3.2525,-3.2141,-3.2337,-3.2821,-3.369,-3.4124,-3.4419,-3.4494,-3.6139,-3.8091,-4.0054,-4.2068,-4.3967,-4.5771,-4.6505,-4.7233,-4.8081,-4.9306,-5.0322,-5.1018,-5.2399,-5.3206,-5.3206,-5.3812,-5.4583,-5.5556,-5.6216,-5.6547,-5.6547,-5.5752,-5.3754,-5.0512,-4.9266,-4.7471,-4.5267,-4.4644,-4.4333,-4.4316,-4.4164,-4.3741,-4.3217,-4.3842,-4.3047,-4.1474,-4.1897,-4.1339,-4.0307,-4.0138,-4.007,-4.007,-4.007,-4.007,-4.007,-4.007,-4.007,-4.007,-4.007,-4.007,-4.007,-4.007,-4.007,-4.007,-4.007,-4.007,-4.007,-4.007,-4.007,-4.0121,-4.0254,-4.0154,-4.0237,-4.078,-4.0827,-4.0874,-4.1358,-4.1059,-4.075,-4.075,-4.0368,-4.0286,-4.0827,-4.1446,-4.2185,-4.3214,-4.3444,-4.3497,-4.3497,-4.3497,-4.3497,-4.3497,-4.3497,-4.3497,-4.3497,-4.3497,-4.3497,-4.3497,-4.3497,-4.3185,-4.2561,-4.2561,-4.1809,-4.0396,-4.023,-3.9827,-2.9303,-2.9927,-3.0598,-3.141,-3.2099,-3.2214,-3.0892,-3.1643,-3.2231,-3.0935,-3.1715,-3.2426,-3.18,-3.2707,-3.3818,-3.449,-3.5274,-3.706,-4.0612,-4.2344,-4.4366,-4.728,-4.8101,-4.9017,-5.0461,-5.0705,-5.1121,-5.1825,-5.2711,-5.3206,-5.3206,-5.328,-5.4014,-5.5537,-5.5666,-5.5702,-5.5702,-5.5054,-5.2816,-4.9088,-4.8312,-4.6786,-4.4648,-4.3842,-4.3521,-4.3487,-4.2794,-4.2455,-4.2405,-4.2472,-4.2388,-4.2134,-4.1542,-4.1221,-4.1018,-4.0341,-4.007,-4.007,-4.007,-4.007,-4.007,-4.007,-4.007,-4.007,-4.007,-4.007,-4.007,-4.007,-4.007,-4.007,-4.007,-4.007,-4.007,-4.007,-4.007,-4.0254,-4.0733,-4.0449,-4.0237,-4.078,-4.0497,-4.0204,-4.0254,-4.0204,-4.0154,-4.0154,-4.0121,-4.0286,-4.0827,-4.1446,-4.2062,-4.2693,-4.3214,-4.3497,-4.3497,-4.3497,-4.3497,-4.3497,-4.3497,-4.3497,-4.3497,-4.3497,-4.3497,-4.3497,-4.3497,-4.3442,-4.3387,-4.3387,-4.2928,-4.2066,-4.1332,-4.0965,-2.8246,-2.9465,-3.0524,-3.1278,-3.1344,-3.0997,-3.0137,-3.0619,-3.123,-3.1179,-3.1899,-3.274,-3.319,-3.3412,-3.3713,-3.4442,-3.5121,-3.662,-3.9478,-4.0729,-4.2501,-4.5528,-4.6089,-4.7143,-4.9399,-5.0049,-5.0998,-5.259,-5.3023,-5.3206,-5.3206,-5.3206,-5.372,-5.484,-5.5335,-5.5592,-5.5592,-5.4923,-5.2916,-4.9593,-4.84,-4.6436,-4.3876,-4.4045,-4.3606,-4.2743,-4.2912,-4.2709,-4.2286,-4.2286,-4.2033,-4.161,-4.1322,-4.0933,-4.0493,-4.0189,-4.007,-4.007,-4.007,-4.007,-4.007,-4.007,-4.007,-4.007,-4.007,-4.007,-4.007,-4.007,-4.007,-4.007,-4.007,-4.007,-4.007,-4.007,-4.007,-4.0171,-4.0368,-4.0237,-4.0171,-4.0368,-4.0254,-4.007,-4.007,-4.007,-4.007,-4.007,-4.007,-4.0286,-4.0827,-4.1446,-4.2021,-4.2616,-4.3178,-4.3497,-4.3497,-4.3497,-4.3497,-4.3497,-4.3497,-4.3497,-4.3497,-4.3497,-4.3497,-4.3497,-4.3497,-4.3497,-4.3497,-4.3497,-4.3075,-4.2286,-4.1974,-4.157,-2.7198,-2.8759,-3.009,-3.0967,-3.0633,-2.9939,-2.9432,-2.9724,-3.0371,-3.1149,-3.1997,-3.2935,-3.4034,-3.4038,-3.4057,-3.4767,-3.5453,-3.6755,-3.9005,-3.9952,-4.1373,-4.3927,-4.4451,-4.5651,-4.8222,-4.9788,-5.1437,-5.3396,-5.3335,-5.3206,-5.3206,-5.3206,-5.3573,-5.4363,-5.495,-5.5244,-5.5244,-5.4333,-5.2502,-4.9717,-4.824,-4.6079,-4.3436,-4.3995,-4.3403,-4.1999,-4.2523,-4.2337,-4.1644,-4.1644,-4.1339,-4.0865,-4.0865,-4.0544,-4.007,-4.007,-4.007,-4.007,-4.007,-4.007,-4.007,-4.007,-4.007,-4.007,-4.007,-4.007,-4.007,-4.007,-4.007,-4.007,-4.007,-4.007,-4.007,-4.007,-4.007,-4.007,-4.007,-4.007,-4.007,-4.007,-4.007,-4.007,-4.007,-4.007,-4.007,-4.007,-4.007,-4.0286,-4.0827,-4.1446,-4.2021,-4.2616,-4.3178,-4.3497,-4.3497,-4.3497,-4.3497,-4.3497,-4.3497,-4.3497,-4.3497,-4.3497,-4.3497,-4.3497,-4.3497,-4.3497,-4.3497,-4.3497,-4.3204,-4.2653,-4.2415,-4.2011,-2.6051,-2.7728,-2.9226,-3.0245,-3.0043,-2.9415,-2.8757,-2.9149,-2.9788,-3.0472,-3.165,-3.28,-3.3489,-3.412,-3.4806,-3.5597,-3.6312,-3.755,-3.98,-4.073,-4.1745,-4.325,-4.4113,-4.5448,-4.7625,-5.0418,-5.2707,-5.4264,-5.3665,-5.3206,-5.3206,-5.3206,-5.3573,-5.4363,-5.4418,-5.4418,-5.4418,-5.3028,-5.1155,-4.8901,-4.7485,-4.5602,-4.342,-4.342,-4.2625,-4.1221,-4.1221,-4.0798,-4.0104,-4.0104,-4.0104,-4.0087,-4.0087,-4.0087,-4.007,-4.007,-4.007,-4.007,-4.007,-4.007,-4.007,-4.007,-4.007,-4.007,-4.007,-4.007,-4.007,-4.007,-4.007,-4.007,-4.007,-4.007,-4.007,-4.007,-4.007,-4.007,-4.007,-4.007,-4.007,-4.007,-4.007,-4.007,-4.007,-4.007,-4.007,-4.007,-4.007,-4.0286,-4.0827,-4.1446,-4.2021,-4.2616,-4.3178,-4.3497,-4.3497,-4.3497,-4.3497,-4.3497,-4.3497,-4.3497,-4.3497,-4.3497,-4.3497,-4.3497,-4.3497,-4.3497,-4.3497,-4.3497,-4.3497,-4.3461,-4.2671,-4.2304,-2.4641,-2.5827,-2.6833,-2.8216,-2.7951,-2.759,-2.8357,-2.9358,-3.0453,-3.167,-3.336,-3.4582,-3.4349,-3.4847,-3.5562,-3.6307,-3.7082,-3.8142,-3.9851,-4.1153,-4.2692,-4.4739,-4.7888,-5.0149,-5.0789,-5.2092,-5.3297,-5.4375,-5.3661,-5.3445,-5.3995,-5.35,-5.3573,-5.4363,-5.4399,-5.417,-5.3653,-5.2255,-5.0399,-4.812,-4.6725,-4.4857,-4.2675,-4.3183,-4.232,-4.046,-4.0984,-4.1068,-4.0798,-4.029,-4.0392,-4.0798,-4.029,-4.007,-4.007,-4.007,-4.007,-4.007,-4.007,-4.007,-4.007,-4.007,-4.007,-4.007,-4.007,-4.007,-4.007,-4.007,-4.007,-4.007,-4.007,-4.007,-4.007,-4.007,-4.007,-4.007,-4.007,-4.007,-4.007,-4.007,-4.007,-4.007,-4.007,-4.007,-4.007,-4.007,-4.0417,-4.0874,-4.1446,-4.2021,-4.2637,-4.3178,-4.341,-4.3497,-4.3497,-4.3497,-4.3497,-4.3497,-4.3497,-4.3497,-4.3497,-4.3497,-4.3497,-4.3497,-4.3497,-4.3497,-4.3497,-4.3497,-4.3497,-4.3479,-4.3222,-4.3112,0.0,-2.5163,-2.5983,-2.698,-2.6862,-2.6765,-2.7875,-2.9109,-3.05,-3.2154,-3.3924,-3.5133,-3.5001,-3.5551,-3.6295,-3.7118,-3.7833,-3.8836,-4.0307,-4.1779,-4.3555,-4.5838,-4.9061,-5.1356,-5.2258,-5.2892,-5.3738,-5.4821,-5.4143,-5.3739,-5.394,-5.3482,-5.3573,-5.4363,-5.4106,-5.346,-5.243,-5.1298,-4.9626,-4.7384,-4.5964,-4.4231,-4.2303,-4.2506,-4.1677,-4.0104,-4.0578,-4.0781,0.0,-4.0273,-4.0358,-4.073,-4.0257,-4.007,-4.007,-4.007,-4.007,-4.007,-4.007,-4.007,-4.007,-4.007,-4.007,-4.007,-4.007,-4.007,-4.007,-4.007,-4.007,-4.007,-4.007,-4.007,-4.007,-4.007,-4.007,-4.007,-4.007,-4.007,-4.007,-4.007,-4.007,-4.007,-4.007,-4.007,-4.0171,-4.0368,-4.0703,-4.1223,-4.2021,-4.248,-4.2902,-4.3444,-4.3497,-4.3497,-4.3497,-4.3497,-4.3497,-4.3497,-4.3497,-4.3497,-4.3497,-4.3497,-4.3497,-4.3497,-4.3497,-4.3497,-4.3497,-4.3497,-4.3497,-4.3497,-4.3497,-4.3497,0.0,-2.5301,-2.6116,-2.6377,-2.6452,-2.6645,-2.735,-2.8521,0.0,-3.2109,-3.3539,-3.4638,-3.5402,-3.619,-3.6979,-3.7694,-3.8483,-3.9512,-4.1001,-4.2658,-4.4519,-4.6616,-4.8369,-5.0171,-5.2112,-5.3051,-5.4164,-5.5587,-5.4913,-5.4106,-5.3427,-5.328,-5.3555,-5.4289,-5.3592,-5.251,-5.1012,-5.0267,-4.8782,-4.6533,-4.5179,-4.369,-4.2185,-4.1508,-4.0798,-4.007,-4.007,-4.007,-4.007,-4.007,-4.007,-4.007,-4.007,-4.007,-4.007,-4.007,-4.007,-4.007,-4.007,-4.007,-4.007,-4.007,-4.007,-4.007,-4.007,-4.007,-4.007,-4.007,-4.007,-4.007,-4.007,-4.007,-4.007,-4.007,-4.007,-4.007,-4.007,-4.007,-4.007,-4.007,-4.007,-4.0121,-4.0171,-4.0171,-4.0319,-4.0856,-4.0995,-4.1446,-4.2577,-4.2732,-4.2939,-4.3444,-4.3497,-4.3497,-4.3497,-4.3497,-4.3497,-4.3497,-4.3497,-4.3497,-4.3497,-4.3497,-4.3497,-4.3497,-4.3497,-4.3497,-4.3497,-4.3497,-4.3497,-4.3497,-4.3497,-4.3497,-2.3822,0.0,-2.38,-2.4802,-2.5091,-2.5515,0.0,0.0,-3.0061,-3.2109,0.0,0.0,-3.4672,-3.5465,-3.6208,-3.6955,-3.8151,-3.9512,-4.1001,-4.4468,-4.7056,-4.7597,-5.1011,-5.2805,-5.1695,-5.3727,-5.5566,-5.6518,-5.5231,-5.4583,-5.5005,-5.3867,-5.3298,-5.3482,-5.3316,-5.2526,-5.1176,-4.9852,-4.7786,-4.5052,-4.4156,-4.2912,-4.1457,-4.1288,-4.0798,-4.007,-4.007,-4.007,-4.007,-4.007,-4.007,-4.007,-4.007,-4.007,-4.007,-4.007,-4.007,-4.007,-4.007,-4.007,-4.007,-4.007,-4.007,-4.007,-4.007,-4.007,-4.007,-4.007,-4.007,-4.007,-4.007,-4.007,-4.007,-4.007,-4.007,-4.007,-4.007,-4.007,-4.007,-4.007,-4.007,-4.0254,-4.0655,-4.0685,-4.092,-4.149,-4.1979,-4.2382,-4.2655,-4.305,-4.3375,-4.3497,-4.3497,-4.3497,-4.3497,-4.3497,-4.3497,-4.3497,-4.3497,-4.3497,-4.3497,-4.3497,-4.3497,-4.3497,-4.3497,-4.3497,-4.3497,-4.3497,-4.3497,-4.3497,-4.3497,-4.3497,-2.3767,-2.3537,-2.3596,-2.4014,-2.4612,-2.5424,-2.6732,0.0,0.0,0.0,0.0,0.0,0.0,0.0,-3.6319,-3.6759,-3.8301,-4.0121,-4.1965,-4.481,-4.7421,-4.9247,-5.1841,-5.3572,-5.3845,-5.531,-5.64,-5.6806,-5.5688,-5.5133,-5.5574,-5.4069,-5.339,-5.3739,-5.339,-5.2227,-5.0143,-4.9309,-4.728,-4.4045,-4.3267,-4.2303,-4.1187,-4.0849,-4.046,-4.007,-4.007,-4.007,-4.007,-4.007,-4.007,-4.007,-4.007,-4.007,-4.007,-4.007,-4.007,-4.007,-4.007,-4.007,-4.007,-4.007,-4.007,-4.007,-4.007,-4.007,-4.007,-4.007,-4.007,-4.007,-4.007,-4.007,-4.007,-4.007,-4.007,-4.007,-4.007,-4.007,-4.007,-4.007,-4.007,-4.0204,-4.0497,-4.075,-4.1087,-4.1707,-4.2302,-4.2788,-4.3014,-4.3339,-4.3497,-4.3497,-4.3497,-4.3497,-4.3497,-4.3497,-4.3497,-4.3497,-4.3497,-4.3497,-4.3497,-4.3497,-4.3497,-4.3497,-4.3497,-4.3497,-4.3497,-4.3497,-4.3497,-4.3497,-4.3497,-4.3497,-2.3879,-2.4193,-2.456,-2.4003,-2.4807,-2.5879,-2.6485,0.0,0.0,0.0,0.0,0.0,0.0,-3.5067,-3.6851,-3.7081,-3.9075,-4.1374,-4.36,-4.528,-4.7486,-5.0728,-5.2124,-5.3762,-5.614,-5.6798,-5.7061,-5.6997,-5.6106,-5.5592,-5.5592,-5.4069,-5.3518,-5.4197,-5.3573,-5.1809,-4.895,-4.8777,-4.6895,-4.3234,-4.2489,-4.1745,-4.1018,-4.0358,-4.007,-4.007,-4.007,-4.007,-4.007,-4.007,-4.007,-4.007,-4.007,-4.007,-4.007,-4.007,-4.007,-4.007,-4.007,-4.007,-4.007,-4.007,-4.007,-4.007,-4.007,-4.007,-4.007,-4.007,-4.007,-4.007,-4.007,-4.007,-4.007,-4.007,-4.007,-4.007,-4.007,-4.007,-4.007,-4.007,-4.007,-4.0171,-4.0336,-4.075,-4.1251,-4.1979,-4.2501,-4.2976,-4.3444,-4.3497,-4.3497,-4.3497,-4.3497,-4.3497,-4.3497,-4.3497,-4.3497,-4.3497,-4.3497,-4.3497,-4.3497,-4.3497,-4.3497,-4.3497,-4.3497,-4.3497,-4.3497,-4.3497,-4.3497,-4.3497,-4.3497,-4.3497,-2.4552,-2.507,-2.5772,-2.5246,-2.5746,-2.6516,-2.7148,0.0,0.0,0.0,0.0,0.0,0.0,-3.5684,-3.7197,-3.8364,-4.1033,-4.3654,-4.589,-4.863,-5.0349,-5.0293,-5.3757,-5.5584,-5.417,-5.6343,-5.7831,-5.7831,-5.6436,-5.5592,-5.5592,-5.4069,-5.328,-5.339,-5.328,-5.1809,-4.895,-4.8293,-4.6108,-4.2455,-4.1728,-4.0984,-4.0257,-4.0121,-4.007,-4.007,-4.007,-4.007,-4.007,-4.007,-4.007,-4.007,-4.007,-4.007,-4.007,-4.007,-4.007,-4.007,-4.007,-4.007,-4.007,-4.007,-4.007,-4.007,-4.007,-4.007,-4.007,-4.007,-4.007,-4.007,-4.007,-4.007,-4.007,-4.007,-4.007,-4.007,-4.007,-4.007,-4.007,-4.007,-4.007,-4.0434,-4.1375,-4.1639,-4.2003,-4.3069,-4.3321,-4.341,-4.3497,-4.3497,-4.3497,-4.3497,-4.3497,-4.3497,-4.3497,-4.3497,-4.3497,-4.3497,-4.3497,-4.3497,-4.3497,-4.3497,-4.3497,-4.3497,-4.3497,-4.3497,-4.3497,-4.3497,-4.3497,-4.3497,-4.3497,-4.3497,-2.4552,-2.4581,-2.4894,-2.5308,-2.6233,-2.7205,-2.7816,-2.8717,0.0,0.0,0.0,0.0,0.0,-3.5826,-3.7498,-3.979,-4.197,-4.3906,-4.5285,-4.7656,-4.9742,-5.1131,-5.344,-5.5166,-5.5861,-5.6777,-5.7354,-5.7354,-5.5849,-5.5133,-5.5574,-5.4491,-5.3849,-5.3849,-5.3849,-5.2245,-4.895,-4.7743,-4.5495,-4.2286,-4.1542,-4.0798,-4.007,-4.007,-4.007,-4.007,-4.007,-4.007,-4.007,-4.007,-4.007,-4.007,-4.007,-4.007,-4.007,-4.007,-4.007,-4.007,-4.007,-4.007,-4.007,-4.007,-4.007,-4.007,-4.007,-4.007,-4.007,-4.007,-4.007,-4.007,-4.007,-4.007,-4.007,-4.007,-4.007,-4.007,-4.007,-4.007,-4.007,-4.007,-4.0319,-4.0703,-4.1223,-4.1853,-4.2462,-4.2976,-4.3321,-4.3497,-4.3497,-4.3497,-4.3497,-4.3497,-4.3497,-4.3497,-4.3497,-4.3497,-4.3497,-4.3497,-4.3497,-4.3497,-4.3497,-4.3497,-4.3497,-4.3497,-4.3497,-4.3497,-4.3497,-4.3497,-4.3497,-4.3497,-4.3497,-4.3497,-2.443,-2.4322,-2.4399,-2.5219,0.0,-2.7693,-2.8451,-2.9366,0.0,0.0,0.0,0.0,0.0,-3.6337,-3.8204,-4.0985,-4.2821,-4.4338,-4.5589,-4.7553,-4.997,-5.2897,-5.3812,-5.5281,-5.8049,-5.7475,-5.697,-5.697,-5.5386,-5.4748,-5.5556,-5.4656,-5.4216,-5.4399,-5.3866,-5.201,-4.8666,-4.6944,-4.4823,-4.2286,-4.1373,-4.0646,-4.007,-4.007,-4.007,-4.007,-4.007,-4.007,-4.007,-4.007,-4.007,-4.007,-4.007,-4.007,-4.007,-4.007,-4.007,-4.007,-4.007,-4.007,-4.007,-4.007,-4.007,-4.007,-4.007,-4.007,-4.007,-4.007,-4.007,-4.007,-4.007,-4.007,-4.007,-4.007,-4.007,-4.007,-4.007,-4.007,-4.007,-4.007,-4.0546,-4.0967,-4.1087,-4.1979,-4.275,-4.2864,-4.325,-4.3497,-4.3497,-4.3497,-4.3497,-4.3497,-4.3497,-4.3497,-4.3497,-4.3497,-4.3497,-4.3497,-4.3497,-4.3497,-4.3497,-4.3497,-4.3497,-4.3497,-4.3497,-4.3497,-4.3497,-4.3497,-4.3497,-4.3497,-4.3497,-4.3497,-2.4552,-2.5199,-2.5923,-2.5581,-2.6467,0.0,-2.9022,-3.0698,0.0,-3.3178,0.0,-3.5497,-3.6384,-3.7818,-3.9574,-4.1778,-4.3984,-4.6382,-4.9036,-5.1427,-5.3645,-5.5782,-5.6718,-5.7752,-5.9154,-5.8184,-5.7463,-5.7463,-5.5544,-5.4748,-5.5556,-5.4124,-5.3628,-5.4381,-5.2344,-5.0135,-4.7814,-4.5716,-4.3837,-4.2269,-4.0849,-4.0121,-4.007,-4.007,-4.007,-4.007,-4.007,-4.007,-4.007,-4.007,-4.007,-4.007,-4.007,-4.007,-4.007,-4.007,-4.007,-4.007,-4.007,-4.007,-4.007,-4.007,-4.007,-4.007,-4.007,-4.007,-4.007,-4.007,-4.007,-4.007,-4.007,-4.007,-4.007,-4.007,-4.007,-4.007,-4.007,-4.007,-4.007,-4.007,-4.058,-4.1139,-4.1639,-4.2262,-4.2864,-4.3375,-4.3497,-4.3497,-4.3497,-4.3497,-4.3497,-4.3497,-4.3497,-4.3497,-4.3497,-4.3497,-4.3497,-4.3497,-4.3497,-4.3497,-4.3497,-4.3497,-4.3497,-4.3497,-4.3497,-4.3497,-4.3497,-4.3497,-4.3497,-4.3497,-4.3497,-4.3497,-2.4348,-2.5099,-2.5859,-2.6063,-2.7399,0.0,0.0,-3.1847,-3.3567,-3.3857,-3.5728,-3.7498,-3.7879,-3.9783,-4.1323,-4.136,-4.3973,-4.6829,-4.9099,-5.1389,-5.3621,-5.5672,-5.6192,-5.677,-5.7736,-5.6668,-5.5956,-5.5956,-5.4492,-5.3884,-5.4454,-5.4128,-5.3741,-5.3269,-5.1828,-4.9729,-4.6986,-4.4879,-4.3062,-4.1593,-4.0578,-4.007,-4.007,-4.007,-4.007,-4.007,-4.007,-4.007,-4.007,-4.007,-4.007,-4.007,-4.007,-4.007,-4.007,-4.007,-4.007,-4.007,-4.007,-4.007,-4.007,-4.007,-4.007,-4.007,-4.007,-4.007,-4.007,-4.007,-4.007,-4.007,-4.007,-4.007,-4.007,-4.007,-4.007,-4.007,-4.007,-4.007,-4.007,-4.007,-4.0861,-4.1552,-4.1768,-4.258,-4.325,-4.3479,-4.3497,-4.3497,-4.3497,-4.3497,-4.3497,-4.3497,-4.3497,-4.3497,-4.3497,-4.3497,-4.3497,-4.3497,-4.3497,-4.3497,-4.3497,-4.3497,-4.3497,-4.3497,-4.3497,-4.3497,-4.3497,-4.3497,-4.3497,-4.3497,-4.3497,-4.3497,-2.4368,-2.5011,-2.5637,-2.6081,0.0,0.0,-3.0945,-3.3037,-3.5177,-3.6218,-3.8028,-3.9423,-3.9368,-4.0854,-4.2051,-4.2037,-4.4754,-4.7618,-4.9787,-5.1892,-5.3883,-5.5719,-5.592,-5.6304,-5.7248,-5.5937,-5.5141,-5.5438,-5.4056,-5.3553,-5.4368,-5.4031,-5.3484,-5.2735,-5.0696,-4.8411,-4.5887,-4.3771,-4.2088,-4.0849,-4.0324,-4.007,-4.007,-4.007,-4.007,-4.007,-4.007,-4.007,-4.007,-4.007,-4.007,-4.007,-4.007,-4.007,-4.007,-4.007,-4.007,-4.007,-4.007,-4.007,-4.007,-4.007,-4.007,-4.007,-4.007,-4.007,-4.007,-4.007,-4.007,-4.007,-4.007,-4.007,-4.007,-4.007,-4.007,-4.007,-4.007,-4.007,-4.007,-4.007,-4.103,-4.181,-4.181,-4.2734,-4.3497,-4.3497,-4.3497,-4.3497,-4.3497,-4.3497,-4.3497,-4.3497,-4.3497,-4.3497,-4.3497,-4.3497,-4.3497,-4.3497,-4.3497,-4.3497,-4.3497,-4.3497,-4.3497,-4.3497,-4.3497,-4.3497,-4.3497,-4.3497,-4.3497,-4.3497,-4.3497,-4.3497,-2.4642,-2.5013,-2.5431,0.0,0.0,0.0,-3.2481,-3.4433,-3.7112,-4.0762,-4.1505,-4.1337,-4.0788,-4.0724,-4.1572,-4.4066,-4.6542,-4.9008,-5.1619,-5.3428,-5.4962,-5.6224,-5.6393,-5.6888,-5.8143,-5.6326,-5.5431,-5.6317,-5.4379,-5.3924,-5.5616,-5.3727,-5.2679,-5.289,-4.8731,-4.5852,-4.4483,-4.2296,-4.0815,-4.007,-4.007,-4.007,-4.007,-4.007,-4.007,-4.007,-4.007,-4.007,-4.007,-4.007,-4.007,-4.007,-4.007,-4.007,-4.007,-4.007,-4.007,-4.007,-4.007,-4.007,-4.007,-4.007,-4.007,-4.007,-4.007,-4.007,-4.007,-4.007,-4.007,-4.007,-4.007,-4.007,-4.007,-4.007,-4.007,-4.007,-4.007,-4.007,-4.007,-4.0138,-4.103,-4.181,-4.181,-4.2734,-4.3497,-4.3497,-4.3497,-4.3497,-4.3497,-4.3497,-4.3497,-4.3497,-4.3497,-4.3497,-4.3497,-4.3497,-4.3497,-4.3497,-4.3497,-4.3497,-4.3497,-4.3497,-4.3497,-4.3497,-4.3497,-4.3497,-4.3497,-4.3497,-4.3497,-4.3497,-4.3497,-4.3497,-2.5802,-2.6733,0.0,-2.8705,0.0,0.0,0.0,-3.6527,0.0,-4.063,-4.1204,-4.1212,-4.1247,-4.274,-4.3889,-4.3671,-4.6754,-4.9717,-5.1368,-5.3011,-5.4535,-5.5758,-5.5397,-5.5212,-5.5607,-5.4259,-5.367,-5.4516,-5.3716,-5.3804,-5.5199,-5.3579,-5.2082,-5.0894,-4.753,-4.4812,-4.2905,-4.1271,-4.0307,-4.007,-4.007,-4.007,-4.007,-4.007,-4.007,-4.007,-4.007,-4.007,-4.007,-4.007,-4.007,-4.007,-4.007,-4.007,-4.007,-4.007,-4.007,-4.007,-4.007,-4.007,-4.007,-4.007,-4.007,-4.007,-4.007,-4.007,-4.007,-4.007,-4.007,-4.007,-4.007,-4.007,-4.007,-4.007,-4.007,-4.007,-4.007,-4.007,-4.0204,-4.0577,-4.1268,-4.1937,-4.2342,-4.305,-4.3497,-4.3497,-4.3497,-4.3497,-4.3497,-4.3497,-4.3497,-4.3497,-4.3497,-4.3497,-4.3497,-4.3497,-4.3497,-4.3497,-4.3497,-4.3497,-4.3497,-4.3497,-4.3497,-4.3497,-4.3497,-4.3497,-4.3497,-4.3497,-4.3497,-4.3497,-4.3497,-4.3497,-2.6808,-2.767,0.0,-3.0067,-3.2227,-3.4735,-3.7637,-3.8868,-3.9893,-4.1693,-4.2047,-4.2109,-4.2267,-4.366,-4.4792,-4.4817,-4.7636,-5.0349,-5.1905,-5.3556,-5.489,-5.5605,-5.4991,-5.4491,-5.4491,-5.3184,-5.2666,-5.3489,-5.3353,-5.3484,-5.4058,-5.2504,-5.0761,-4.8955,-4.5479,-4.3075,-4.181,-4.0341,-3.9782,-4.007,-4.007,-4.007,-4.007,-4.007,-4.007,-4.007,-4.007,-4.007,-4.007,-4.007,-4.007,-4.007,-4.007,-4.007,-4.007,-4.007,-4.007,-4.007,-4.007,-4.007,-4.007,-4.007,-4.007,-4.007,-4.007,-4.007,-4.007,-4.007,-4.007,-4.007,-4.007,-4.007,-4.007,-4.007,-4.007,-4.007,-4.007,-4.007,-4.0237,-4.078,-4.1402,-4.1979,-4.2616,-4.3124,-4.3497,-4.3497,-4.3497,-4.3369,-4.3057,-4.3296,-4.3497,-4.3497,-4.3497,-4.3497,-4.3497,-4.3497,-4.3497,-4.3497,-4.3497,-4.3497,-4.3497,-4.3497,-4.3497,-4.3497,-4.3497,-4.3497,-4.3497,-4.3497,-4.3497,-4.3497,-4.3497,-4.3497,-2.7642,-2.8155,0.0,-3.0335,-3.2873,0.0,-3.8859,-4.1171,-4.281,-4.3191,-4.3387,-4.3513,-4.3548,-4.3947,-4.4915,-4.6814,-4.8903,-5.0945,-5.2911,-5.4547,-5.5544,-5.564,-5.4831,-5.4274,-5.4274,-5.2717,-5.2085,-5.295,-5.3047,-5.2922,-5.2621,-5.087,-4.9026,-4.7161,-4.3201,-4.107,-4.0981,-3.9648,-3.9315,-4.0003,-4.007,-4.007,-4.007,-4.007,-4.007,-4.007,-4.007,-4.007,-4.007,-4.007,-4.007,-4.007,-4.007,-4.007,-4.007,-4.007,-4.007,-4.007,-4.007,-4.007,-4.007,-4.007,-4.007,-4.007,-4.007,-4.007,-4.007,-4.007,-4.007,-4.007,-4.007,-4.007,-4.007,-4.007,-4.007,-4.007,-4.007,-4.0121,-4.0336,-4.0874,-4.149,-4.2062,-4.2655,-4.3178,-4.3461,-4.3387,-4.3314,-4.3039,-4.2378,-4.2928,-4.3406,-4.3479,-4.3497,-4.3497,-4.3497,-4.3497,-4.3497,-4.3497,-4.3497,-4.3497,-4.3497,-4.3497,-4.3497,-4.3497,-4.3497,-4.3497,-4.3497,-4.3497,-4.3497,-4.3497,-4.3497,-4.3497,-2.8867,-2.9835,0.0,0.0,-3.53,-3.8286,-4.0041,-4.1604,-4.2502,-4.1763,-4.2616,-4.3563,-4.3849,-4.5282,-4.6671,-4.7381,-4.9743,-5.191,-5.3028,-5.3794,-5.4467,-5.5135,-5.362,-5.2542,-5.2542,-5.1282,-5.0818,-5.1663,-5.2001,-5.2288,-5.2583,-5.0293,-4.8192,-4.6386,-4.3497,-4.1136,-3.9388,-3.9694,-3.961,-3.9139,-3.9782,-4.007,-4.007,-4.007,-4.007,-4.007,-4.007,-4.007,-4.007,-4.007,-4.007,-4.007,-4.007,-4.007,-4.007,-4.007,-4.007,-4.007,-4.007,-4.007,-4.007,-4.007,-4.007,-4.007,-4.007,-4.007,-4.007,-4.007,-4.007,-4.007,-4.007,-4.007,-4.007,-4.007,-4.007,-4.007,-4.007,-4.0417,-4.092,-4.149,-4.208,-4.2675,-4.325,-4.341,-4.3277,-4.2653,-4.2029,-4.1791,-4.2249,-4.2451,-4.28,-4.3424,-4.3497,-4.3497,-4.3497,-4.3497,-4.3497,-4.3497,-4.3497,-4.3497,-4.3497,-4.3497,-4.3497,-4.3497,-4.3497,-4.3497,-4.3497,-4.3497,-4.3497,-4.3497,-4.3497,-4.3497,-2.9316,0.0,0.0,-3.4303,0.0,-3.8787,-4.0631,-4.1905,-4.2687,-4.2511,-4.3167,-4.3804,-4.3986,-4.5178,-4.6345,-4.6889,-4.8717,-5.047,-5.1552,-5.2212,-5.2863,-5.3537,-5.2654,-5.1843,-5.1477,-5.079,-5.0487,-5.0722,-5.1127,-5.1002,-5.0166,-4.8431,-4.6464,-4.4306,-4.1868,-4.0256,-3.9489,-3.9489,-3.9489,-3.9489,-3.9901,-4.007,-4.007,-4.007,-4.007,-4.007,-4.007,-4.007,-4.007,-4.007,-4.007,-4.007,-4.007,-4.007,-4.007,-4.007,-4.007,-4.007,-4.007,-4.007,-4.007,-4.007,-4.007,-4.007,-4.007,-4.007,-4.007,-4.007,-4.0286,-4.0497,-4.0497,-4.072,-4.0891,-4.0891,-4.0672,-4.0497,-4.0497,-4.092,-4.149,-4.2121,-4.248,-4.2864,-4.341,-4.3167,-4.2653,-4.1864,-4.1387,-4.1111,-4.1148,-4.1827,-4.2304,-4.2359,-4.3039,-4.3332,-4.2947,-4.3277,-4.3497,-4.3497,-4.3497,-4.3497,-4.3497,-4.3497,-4.3497,-4.3497,-4.3497,-4.3497,-4.3497,-4.3497,-4.3497,-4.3497,-4.3497,-4.3497,-2.9406,0.0,-3.3048,-3.5671,-3.7086,0.0,-4.0546,-4.1934,-4.3003,-4.3662,-4.3964,-4.4117,-4.4175,-4.4802,-4.5516,-4.6205,-4.7258,-4.8429,-4.9649,-5.0425,-5.109,-5.1635,-5.1613,-5.1337,-5.066,-5.0466,-5.0269,-4.991,-5.0203,-4.9488,-4.7425,-4.6286,-4.4599,-4.2246,-4.0188,-3.9368,-3.9901,-3.9251,-3.9185,-3.9716,-3.9834,-3.9952,-4.007,-3.9952,-3.9952,-4.007,-4.007,-4.007,-4.007,-4.007,-4.007,-4.007,-4.007,-4.007,-4.007,-4.007,-4.007,-4.007,-4.007,-4.007,-4.007,-4.007,-4.007,-4.007,-4.007,-4.007,-4.0121,-4.0204,-4.0577,-4.0903,-4.1041,-4.1446,-4.175,-4.1664,-4.1358,-4.1041,-4.0903,-4.1358,-4.1937,-4.244,-4.2693,-4.2939,-4.3286,-4.2697,-4.1912,-4.1254,-4.1034,-4.0738,-4.0194,-4.1277,-4.1846,-4.1185,-4.2286,-4.2873,-4.2341,-4.291,-4.3332,-4.3479,-4.3497,-4.3497,-4.3497,-4.3497,-4.3497,-4.3497,-4.3497,-4.3497,-4.3497,-4.3497,-4.3497,-4.3497,-4.3497,-4.3497,0.0,0.0,-3.3384,0.0,-3.6934,-3.8164,-3.9192,-4.1158,-4.2835,-4.2947,-4.3783,-4.4606,-4.49,-4.5605,-4.6186,-4.6282,-4.7067,-4.7899,-4.8526,-4.8969,-4.951,-5.0337,-5.012,-4.9878,-4.9767,-4.9373,-4.9108,-4.9043,-4.8792,-4.8164,-4.702,-4.5036,-4.3388,-4.2228,-4.0728,-3.9662,-3.9086,-3.8991,-3.869,-3.8107,-3.8791,-3.9462,-4.0054,-3.9428,-3.9478,-4.007,-4.007,-4.007,-4.007,-4.007,-4.007,-4.007,-4.007,-4.007,-4.007,-4.007,-4.007,-4.007,-4.007,-4.007,-4.007,-4.007,-4.007,-4.007,-4.007,-4.007,-4.0204,-4.0655,-4.0856,-4.1041,-4.1534,-4.175,-4.1664,-4.1133,-4.1358,-4.1534,-4.0995,-4.1358,-4.1793,-4.1895,-4.2734,-4.325,-4.2864,-4.2083,-4.1468,-4.1378,-4.0782,-4.0472,-4.0881,-4.1148,-4.124,-4.113,-4.1295,-4.1662,-4.2249,-4.2396,-4.2763,-4.3442,-4.3497,-4.3497,-4.3497,-4.3497,-4.3497,-4.3497,-4.3497,-4.3497,-4.3497,-4.3497,-4.3497,-4.3497,-4.3497,-4.3497,-3.0231,-3.1395,-3.2906,0.0,-3.6273,-3.7174,-3.9282,-4.0793,-4.1901,-4.251,-4.345,-4.4349,-4.4979,-4.5382,-4.563,-4.563,-4.5779,-4.607,-4.6542,-4.7124,-4.7754,-4.8382,-4.9139,-4.9389,-4.8912,-4.9103,-4.9176,-4.8934,-4.784,-4.6746,-4.5767,-4.3859,-4.2251,-4.1045,-4.0441,-3.9699,-3.8956,-3.8991,-3.8621,-3.7886,-3.8216,-3.8548,-3.8853,-3.8531,-3.9005,-4.0054,-3.9648,-3.9698,-4.007,-4.007,-4.007,-4.007,-4.007,-4.007,-4.007,-4.007,-4.007,-4.007,-4.007,-4.007,-4.007,-4.007,-4.007,-4.007,-4.007,-4.0336,-4.0625,-4.081,-4.1402,-4.1979,-4.2262,-4.2541,-4.26,-4.2062,-4.2121,-4.2038,-4.1087,-4.1358,-4.181,-4.181,-4.2226,-4.2483,-4.2244,-4.1502,-4.0967,-4.0967,-4.0249,-3.9781,-3.991,-4.0324,-4.0391,-3.9832,-4.0983,-4.1735,-4.1644,-4.2451,-4.3112,-4.3461,-4.3497,-4.3497,-4.3497,-4.3497,-4.3497,-4.3497,-4.3497,-4.3497,-4.3497,-4.3497,-4.3497,-4.3497,-4.3497,-4.3497,0.0,0.0,-3.2223,-3.4925,-3.5621,-3.6321,-3.9064,-4.0244,-4.1014,-4.1895,-4.2778,-4.3577,-4.4205,-4.468,-4.4943,-4.483,-4.4612,-4.4515,-4.4761,-4.5463,-4.6089,-4.6471,-4.7774,-4.8398,-4.7755,-4.8269,-4.8457,-4.7957,-4.6554,-4.5251,-4.4193,-4.2703,-4.1254,-3.9867,-3.98,-3.9462,-3.8717,-3.8531,-3.8159,-3.7618,-3.7618,-3.7719,-3.7905,-3.7719,-3.8311,-3.9495,-3.8954,-3.914,-3.98,-3.98,-3.9918,-4.007,-4.007,-4.007,-4.007,-4.007,-4.007,-4.007,-4.007,-4.007,-4.007,-4.007,-4.007,-4.007,-4.007,-4.0497,-4.0949,-4.1087,-4.1895,-4.275,-4.2864,-4.3105,-4.3178,-4.2598,-4.2342,-4.1997,-4.1087,-4.1251,-4.1578,-4.1578,-4.1725,-4.175,-4.1578,-4.1059,-4.069,-4.069,-4.0155,-3.9734,-3.9607,-4.0131,-4.0202,-3.9397,-4.0928,-4.1827,-4.1442,-4.2506,-4.3277,-4.3479,-4.3497,-4.3497,-4.3497,-4.3497,-4.3497,-4.3497,-4.3497,-4.3497,-4.3497,-4.3497,-4.3497,-4.3497,-4.3497,-4.3497,0.0,-3.0523,0.0,-3.3895,-3.5056,-3.6048,-3.7662,-3.9283,-4.0528,-4.092,-4.1633,-4.22,-4.2257,-4.3555,-4.4501,-4.4117,-4.4028,-4.3931,-4.3618,-4.4285,-4.4818,-4.4837,-4.559,-4.6067,-4.603,-4.6067,-4.5882,-4.5367,-4.4505,-4.3531,-4.2405,-4.1452,-4.038,-3.9122,-3.9056,-3.87,-3.7973,-3.7246,-3.6874,-3.684,-3.684,-3.7212,-3.7889,-3.7161,-3.7263,-3.8024,-3.7973,-3.8379,-3.9056,-3.9056,-3.9462,-4.007,-4.007,-4.007,-4.007,-4.007,-4.007,-4.007,-4.007,-4.007,-4.007,-4.007,-4.007,-4.007,-4.007,-4.0497,-4.1041,-4.1578,-4.2203,-4.2826,-4.3339,-4.3105,-4.2616,-4.1979,-4.1402,-4.0995,-4.0903,-4.0903,-4.0949,-4.0949,-4.1402,-4.1621,-4.1041,-4.0915,-4.0897,-4.0897,-4.0863,-4.0937,-4.1243,-4.1284,-4.1216,-4.0991,-4.1093,-4.146,-4.2176,-4.2304,-4.269,-4.3442,-4.3497,-4.3497,-4.3497,-4.3497,-4.3497,-4.3497,-4.3497,-4.3497,-4.3497,-4.3497,-4.3497,-4.3497,-4.3497,-4.3497,0.0,0.0,0.0,-3.2582,-3.3493,-3.439,-3.5927,-3.7393,-3.8507,-3.8777,-3.997,-4.0929,-4.0929,-4.2323,-4.339,-4.3245,-4.3484,-4.3646,-4.3513,-4.4361,-4.5008,-4.5008,-4.5972,-4.6488,-4.6264,-4.6231,-4.59,-4.516,-4.3978,-4.2979,-4.2228,-4.1071,-3.9946,-3.9022,-3.8988,-3.8413,-3.7195,-3.6417,-3.6028,-3.6028,-3.5537,-3.5453,-3.5707,-3.5436,-3.547,-3.574,-3.6231,-3.7415,-3.8954,-3.8481,-3.9005,-4.002,-3.9563,-3.9665,-4.007,-4.007,-4.007,-4.0003,-3.9546,-3.9681,-3.9918,-3.8988,-3.9326,-3.9986,-3.9529,-4.0388,-4.1534,-4.175,-4.2483,-4.3178,-4.3032,-4.2864,-4.244,-4.1525,-4.0832,-4.0368,-4.0368,-4.0368,-4.0368,-4.0368,-4.0546,-4.0642,-4.0417,-4.0368,-4.0368,-4.0368,-4.0368,-4.0538,-4.0854,-4.0887,-4.0915,-4.1068,-4.157,-4.1992,-4.2286,-4.2763,-4.3185,-4.3461,-4.3497,-4.3497,-4.3497,-4.3497,-4.3497,-4.3497,-4.3497,-4.3497,-4.3497,-4.3497,-4.3497,-4.3497,-4.3497,-4.3497,-2.8463,0.0,0.0,-3.1157,-3.2004,-3.2769,-3.3817,-3.5173,-3.629,-3.6581,-3.7966,-3.9213,-3.9441,-4.0774,-4.1902,-4.2198,-4.2484,-4.2782,-4.3057,-4.386,-4.45,-4.478,-4.5612,-4.6055,-4.5618,-4.5345,-4.4835,-4.393,-4.2804,-4.2027,-4.166,-4.0429,-3.914,-3.7905,-3.7618,-3.6891,-3.5656,-3.4936,-3.4578,-3.4578,-3.3879,-3.3539,-3.3539,-3.3744,-3.386,-3.3894,-3.4843,-3.64,-3.821,-3.7736,-3.8396,-3.9648,-3.892,-3.9225,-4.0054,-3.98,-3.9715,-3.9681,-3.9445,-3.9512,-3.9597,-3.887,-3.9292,-3.9986,-3.9512,-4.0388,-4.149,-4.149,-4.2167,-4.2865,-4.2501,-4.2262,-4.1853,-4.0926,-4.0402,-4.007,-4.007,-4.007,-4.007,-4.007,-4.007,-4.007,-4.007,-4.007,-4.007,-4.007,-4.007,-4.0343,-4.0934,-4.1007,-4.1181,-4.1576,-4.2119,-4.2429,-4.2429,-4.2904,-4.3304,-4.3497,-4.3497,-4.3497,-4.3497,-4.3497,-4.3497,-4.3497,-4.3497,-4.3497,-4.3497,-4.3497,-4.3497,-4.3497,-4.3497,-4.3497,0.0,0.0,0.0,-2.9697,-3.0589,-3.1258,-3.134,-3.2683,-3.4049,-3.4427,-3.5711,-3.6973,-3.7731,-3.8951,-4.012,-4.0877,-4.1042,-4.1387,-4.2158,-4.2563,-4.3096,-4.3867,-4.4336,-4.4436,-4.402,-4.3245,-4.2358,-4.145,-4.0891,-4.0583,-4.0541,-3.9502,-3.7889,-3.569,-3.4861,-3.4117,-3.3364,-3.2779,-3.2496,-3.2451,-3.185,-3.1566,-3.1582,-3.2288,-3.256,-3.2641,-3.4006,-3.5404,-3.6738,-3.6738,-3.7618,-3.8886,-3.8176,-3.8785,-3.9969,-3.9276,-3.9005,-3.9089,-3.9766,-3.9563,-3.9106,-3.9766,-4.002,-4.007,-4.0054,-4.048,-4.0903,-4.0903,-4.1358,-4.181,-4.1768,-4.1313,-4.075,-4.0204,-4.007,-4.007,-4.007,-4.0054,-4.0054,-4.007,-4.007,-4.007,-4.007,-4.007,-4.007,-4.007,-4.0121,-4.0514,-4.1682,-4.181,-4.2038,-4.2616,-4.2711,-4.2711,-4.2711,-4.2711,-4.2939,-4.3463,-4.3497,-4.3497,-4.3497,-4.3497,-4.3497,-4.3497,-4.3497,-4.3497,-4.3497,-4.3497,-4.3497,-4.3497,-4.3497,-4.3497,-2.781,0.0,0.0,0.0,0.0,0.0,-2.9969,-3.1033,-3.2198,-3.2754,-3.4324,-3.5768,-3.6417,-3.7574,-3.8531,-3.8767,-4.0108,-4.1185,-4.1405,-4.2414,-4.3224,-4.3469,-4.3853,-4.3942,-4.3514,-4.2557,-4.1527,-4.0601,-4.0378,-4.0128,-3.977,-3.8069,-3.6635,-3.5639,-3.437,-3.3422,-3.2752,-3.2585,-3.2253,-3.1819,-3.1162,-3.0812,-3.0844,-3.1502,-3.1807,-3.1887,-3.3255,-3.4399,-3.5257,-3.5727,-3.684,-3.8176,-3.799,-3.8481,-3.9326,-3.9648,-3.9445,-3.8937,-3.8616,-3.8717,-3.8853,-3.7973,-3.8785,-3.9986,-3.9462,-4.0021,-4.0903,-4.0903,-4.1358,-4.1707,-4.1268,-4.075,-4.0286,-4.0121,-4.007,-4.007,-4.007,-3.9665,-3.9445,-3.9969,-4.007,-4.007,-4.007,-4.007,-4.007,-4.007,-4.0417,-4.0967,-4.1707,-4.2162,-4.2519,-4.2655,-4.2711,-4.2711,-4.2711,-4.2711,-4.2939,-4.3463,-4.3497,-4.3497,-4.3497,-4.3497,-4.3497,-4.3497,-4.3497,-4.3497,-4.3497,-4.3497,-4.3497,-4.3497,-4.3497,-4.3497,-2.7625,-2.786,-2.814,-2.814,0.0,0.0,-2.7952,-2.9005,-3.0166,-3.0264,-3.1993,-3.371,-3.4392,-3.5463,-3.6381,-3.6684,-3.7989,-3.9343,-4.0441,-4.1577,-4.2366,-4.2577,-4.3046,-4.3156,-4.2641,-4.1688,-4.0822,-4.0122,-3.9842,-3.924,-3.8175,-3.6921,-3.5636,-3.4295,-3.316,-3.2267,-3.1605,-3.1083,-3.0669,-3.0291,-2.9642,-2.9295,-2.9326,-2.998,-3.0448,-3.0775,-3.2179,-3.3173,-3.3836,-3.48,-3.6068,-3.7432,-3.7432,-3.7889,-3.8633,-3.936,-3.9157,-3.8565,-3.8751,-3.8886,-3.8903,-3.8345,-3.9022,-4.0003,-3.958,-3.9995,-4.0577,-4.0577,-4.0797,-4.103,-4.0672,-4.0319,-4.007,-4.007,-3.9834,-3.9715,-4.0003,-3.9512,-3.9208,-3.9935,-3.9834,-3.9715,-4.002,-4.007,-4.007,-4.007,-4.0368,-4.0797,-4.1358,-4.1707,-4.2038,-4.2302,-4.2121,-4.2162,-4.2673,-4.248,-4.2675,-4.3444,-4.3497,-4.3497,-4.3497,-4.3497,-4.3497,-4.3497,-4.3497,-4.341,-4.3178,-4.341,-4.3497,-4.3479,-4.325,-4.3178,-2.7625,-2.7619,-2.7679,-2.7679,-2.779,0.0,-2.6228,-2.7263,-2.8369,-2.7922,-2.9608,-3.1451,-3.2248,-3.3303,-3.4263,-3.4898,-3.55,-3.6738,-3.9195,-4.0244,-4.0898,-4.1306,-4.1954,-4.2128,-4.1539,-4.0719,-4.0102,-3.9785,-3.9179,-3.8114,-3.6435,-3.5975,-3.4681,-3.2347,-3.1558,-3.082,-3.0093,-2.8978,-2.8292,-2.8148,-2.7765,-2.7575,-2.7488,-2.8301,-2.9026,-2.9678,-3.1006,-3.1975,-3.2695,-3.3887,-3.5197,-3.6451,-3.6629,-3.7071,-3.778,-3.8553,-3.8468,-3.8096,-3.9495,-3.9529,-3.9106,-3.9749,-4.0003,-4.007,-4.007,-4.002,-3.9952,-3.9952,-3.9952,-3.9969,-4.0054,-4.007,-4.007,-4.007,-3.9529,-3.9191,-3.9918,-3.9445,-3.9106,-3.9918,-3.9495,-3.9191,-3.9834,-3.9952,-3.9952,-3.9952,-4.012,-4.0368,-4.0827,-4.0949,-4.1223,-4.175,-4.1313,-4.1446,-4.2616,-4.2203,-4.2364,-4.3444,-4.3497,-4.3497,-4.3497,-4.3497,-4.3497,-4.3497,-4.3444,-4.3124,-4.2616,-4.3087,-4.3321,-4.3321,-4.2808,-4.2616,-2.7625,-2.7979,-2.8397,-2.8397,-2.8801,0.0,-2.8203,-2.8306,-2.8697,-2.9064,-2.9982,-3.1065,-3.2272,-3.3447,-3.4305,-3.4439,-3.4918,-3.5781,-3.7122,-3.8786,-3.9814,-3.9666,-4.0368,-4.0779,-4.0644,-3.9663,-3.9001,-3.8927,-3.8242,-3.7301,-3.6143,-3.4836,-3.3579,-3.233,-3.0633,-2.9428,-2.8785,-2.8054,-2.7174,-2.6111,-2.714,-2.7306,-2.6765,-2.8551,-2.946,-2.9654,-3.099,-3.1942,-3.2641,-3.2895,-3.3487,-3.4313,-3.5465,-3.5973,-3.6291,-3.7675,-3.803,-3.7965,-3.8874,-3.9106,-3.9005,-3.9157,-3.9597,-4.007,-4.007,-3.9665,-3.9208,-3.9208,-3.9208,-3.9343,-3.9935,-4.007,-4.007,-4.007,-3.9529,-3.9191,-3.9918,-3.9039,-3.8514,-3.9817,-3.9495,-3.9039,-3.9174,-3.9208,-3.9208,-3.9208,-4.0072,-4.078,-4.0903,-4.1313,-4.1664,-4.181,-4.1707,-4.1895,-4.2655,-4.2577,-4.2808,-4.3444,-4.3497,-4.3497,-4.3497,-4.3497,-4.3497,-4.3497,-4.3069,-4.2559,-4.1979,-4.2103,-4.2144,-4.2144,-4.2021,-4.1979,-2.8083,-2.8083,-2.8173,-2.8517,-2.8846,0.0,0.0,-2.8861,-2.9087,-2.9037,-2.929,-2.9657,-3.0281,-3.0768,-3.1461,-3.2646,-3.3008,-3.3793,-3.5625,-3.7398,-3.8501,-3.8554,-3.9258,-3.9695,-3.9552,-3.9031,-3.8578,-3.83,-3.7189,-3.611,-3.5164,-3.3829,-3.2544,-3.1357,-3.0044,-2.8774,-2.7517,-2.7185,-2.6314,-2.4986,-2.6007,-2.6496,-2.6539,-2.7954,-2.8912,-2.9639,-3.0597,-3.1423,-3.2064,-3.2437,-3.2586,-3.2726,-3.4523,-3.5178,-3.5348,-3.6859,-3.7588,-3.7903,-3.8667,-3.9177,-3.9529,-3.9529,-3.9783,-4.007,-4.007,-3.9817,-3.9529,-3.9529,-3.9529,-3.9614,-3.9986,-4.007,-4.007,-4.007,-3.9242,-3.8751,-3.9834,-3.8937,-3.8345,-3.9783,-3.9495,-3.9106,-3.9478,-3.9529,-3.9529,-3.9529,-4.0097,-4.0497,-4.0497,-4.0767,-4.115,-4.1768,-4.1552,-4.1853,-4.3014,-4.2864,-4.2939,-4.3463,-4.3497,-4.3497,-4.3497,-4.3497,-4.3375,-4.3105,-4.2244,-4.1664,-4.1358,-4.1059,-4.1241,-4.1793,-4.149,-4.1358,-2.8786,-2.8472,-2.8278,-2.8831,-2.9071,-2.9131,0.0,0.0,0.0,-2.9086,-2.8686,-2.8541,-2.867,-2.8353,-2.8799,-3.0806,-3.1046,-3.1883,-3.4264,-3.5873,-3.7041,-3.7666,-3.8314,-3.87,-3.8634,-3.8492,-3.8267,-3.7946,-3.6332,-3.508,-3.4359,-3.2966,-3.161,-3.0335,-2.9335,-2.8077,-2.6582,-2.6265,-2.5508,-2.4298,-2.5039,-2.5618,-2.6096,-2.6999,-2.8144,-2.9431,-3.0134,-3.083,-3.1539,-3.216,-3.2064,-3.1685,-3.3544,-3.434,-3.4541,-3.6055,-3.709,-3.7937,-3.8834,-3.9558,-4.007,-4.007,-4.007,-4.0054,-3.9918,-3.9868,-3.9868,-3.9868,-3.9868,-3.9901,-4.0037,-4.007,-4.007,-4.007,-3.9073,-3.8481,-3.9783,-3.9039,-3.8514,-3.9817,-3.9597,-3.9343,-3.9783,-3.9868,-3.9868,-3.9868,-3.9986,-4.007,-4.007,-4.007,-4.0563,-4.1682,-4.1393,-4.1743,-4.3214,-4.2939,-4.2864,-4.3142,-4.3178,-4.3178,-4.3178,-4.3178,-4.2903,-4.2342,-4.1402,-4.0856,-4.0733,-4.0336,-4.0546,-4.1464,-4.0967,-4.075,-2.9475,-2.9819,-3.0193,-3.0268,-3.0746,-3.0989,-3.0432,0.0,-3.0372,-3.0298,0.0,-2.939,-2.9952,0.0,0.0,-3.0225,-3.0422,-3.0954,-3.2633,-3.3909,-3.5287,-3.6967,-3.7305,-3.7646,-3.8262,-3.7749,-3.7506,-3.7859,-3.6006,-3.4871,-3.4836,-3.2444,-3.0853,-3.0335,-2.7998,-2.6645,-2.6426,-2.526,-2.4259,-2.3437,-2.4763,-2.5119,-2.4607,-2.6397,-2.7709,-2.8581,-2.9812,-3.0763,-3.1539,-3.1582,-3.1582,-3.1597,-3.2459,-3.3172,-3.3773,-3.5355,-3.6701,-3.7995,-3.9473,-4.002,-4.007,-4.007,-4.007,-3.9952,-3.9309,-3.9106,-3.9106,-3.9106,-3.9106,-3.9276,-3.9918,-4.007,-4.007,-4.007,-3.9462,-3.9089,-3.9901,-3.9445,-3.9106,-3.9918,-4.0003,-3.9766,-3.9208,-3.9106,-3.9106,-3.9106,-3.9665,-4.007,-4.007,-4.007,-4.0563,-4.1682,-4.1768,-4.1979,-4.2732,-4.275,-4.2519,-4.2021,-4.2003,-4.2003,-4.2003,-4.2003,-4.1707,-4.1133,-4.0949,-4.0655,-4.0204,-4.0121,-4.0171,-4.0286,-4.0204,-4.0204,-3.0612,-3.0357,-3.0148,-3.0911,-3.1016,-3.0971,-3.1076,-3.1106,-3.1106,-3.1106,0.0,0.0,0.0,0.0,0.0,0.0,-3.024,-3.0969,-3.2859,-3.3212,-3.4153,-3.6482,-3.6626,-3.6671,-3.6986,-3.6873,-3.6863,-3.6999,-3.5791,-3.4567,-3.3567,-3.1845,-3.0377,-2.9271,-2.7776,-2.6435,-2.5328,-2.4682,-2.3794,-2.2744,-2.3657,-2.4163,-2.4332,-2.5888,-2.6955,-2.7778,-2.9528,-3.0524,-3.0837,-3.1278,-3.1482,-3.1569,-3.2276,-3.2943,-3.3652,-3.5136,-3.66,-3.7921,-3.9049,-3.9714,-4.007,-4.007,-4.007,-4.002,-3.9715,-3.9631,-3.9631,-3.9631,-3.9631,-3.9698,-4.0003,-4.007,-4.007,-4.007,-3.9529,-3.9191,-3.9918,-3.9512,-3.9208,-3.9935,-4.007,-3.9986,-3.9681,-3.9631,-3.9631,-3.9631,-3.9884,-4.007,-4.007,-4.007,-4.0417,-4.1178,-4.1268,-4.1534,-4.2121,-4.2162,-4.208,-4.181,-4.181,-4.181,-4.181,-4.1446,-4.1178,-4.0903,-4.0577,-4.0319,-4.007,-4.007,-4.007,-4.007,-4.007,-4.007,-3.1106,-3.0552,-3.0103,-3.124,-3.115,-3.0911,-3.1362,-3.1351,-3.1161,-3.1161,-2.9827,0.0,0.0,0.0,-2.825,-2.9839,0.0,-3.0894,-3.2715,-3.273,-3.3472,-3.5726,-3.5992,-3.5994,-3.5966,-3.6144,-3.6185,-3.6062,-3.5052,-3.3846,-3.2507,-3.1007,-2.9615,-2.8225,-2.7324,-2.606,-2.445,-2.3927,-2.3255,-2.2535,-2.2698,-2.3261,-2.4275,-2.5266,-2.6272,-2.7209,-2.9102,-3.0072,-3.0329,-3.1161,-3.1482,-3.1541,-3.2258,-3.2811,-3.3442,-3.4985,-3.626,-3.7303,-3.8277,-3.8978,-3.9454,-3.9454,-3.9493,-3.953,-3.9715,-3.9767,-3.9817,-4.002,-4.007,-4.007,-4.007,-4.007,-4.007,-4.007,-3.9681,-3.9428,-3.9969,-3.9665,-3.9445,-3.9969,-4.007,-4.007,-4.007,-4.007,-4.007,-4.007,-4.007,-4.007,-4.007,-4.007,-4.0286,-4.0856,-4.0903,-4.1087,-4.1534,-4.1534,-4.149,-4.1331,-4.1331,-4.1331,-4.1331,-4.092,-4.0703,-4.0703,-4.0286,-4.007,-4.007,-4.007,-4.007,-4.007,-4.007,-4.007,-3.0537,-3.0507,-3.0642,-3.136,-3.1452,-3.1452,-3.1482,-3.0896,-3.0329,-3.0329,-2.8939,-2.7986,-2.8812,-2.8298,-2.8247,-3.004,-3.0283,0.0,0.0,-3.2176,-3.3161,-3.4574,-3.5321,-3.5684,-3.5646,-3.5616,-3.5528,-3.5251,-3.3573,-3.2474,-3.2235,-2.9891,-2.8225,-2.746,-2.6158,-2.5106,-2.4323,-2.2774,-2.2372,-2.3053,-2.231,-2.2663,-2.4054,-2.462,-2.5602,-2.7006,-2.8411,-2.9504,-3.0329,-3.1161,-3.1482,-3.1541,-3.2258,-3.2527,-3.2811,-3.4831,-3.5608,-3.5895,-3.7335,-3.7863,-3.7863,-3.7863,-3.7848,-3.8018,-3.871,-3.9005,-3.9174,-3.9884,-4.007,-4.007,-4.007,-4.007,-4.007,-4.007,-4.0054,-4.0054,-4.007,-4.0054,-4.0054,-4.007,-4.007,-4.007,-4.007,-4.007,-4.007,-4.007,-4.007,-4.007,-4.007,-4.007,-4.0286,-4.0856,-4.0903,-4.0903,-4.0949,-4.0949,-4.0703,-4.0221,-4.0171,-4.0171,-4.0171,-4.0121,-4.0121,-4.0121,-4.0121,-4.007,-4.007,-4.007,-4.007,-4.007,-4.007,-4.007,-3.1719,-3.1524,-3.1345,-3.2018,-3.1412,-3.0703,-3.0703,-2.9757,-2.9012,-2.9358,-2.8685,-2.822,-2.8856,-2.9254,-2.9628,-3.0208,-3.0777,-3.1219,0.0,-3.1682,-3.2194,-3.3135,-3.3892,-3.4195,-3.3631,-3.3634,-3.363,-3.3501,-3.2526,-3.1496,-3.0537,-2.8759,-2.7455,-2.682,-2.5439,-2.4253,-2.3441,-2.2408,-2.1753,-2.1479,-2.2096,-2.2687,-2.3159,-2.4648,-2.562,-2.614,-2.817,-2.9192,-2.9566,-3.0896,-3.1482,-3.1541,-3.2258,-3.2243,-3.2077,-3.4229,-3.5236,-3.5804,-3.7277,-3.7822,-3.7822,-3.7822,-3.7496,-3.728,-3.7974,-3.8226,-3.8488,-3.9176,-3.9698,-3.9952,-3.9437,-3.9731,-3.9969,-3.9437,-3.9714,-4.007,-4.007,-4.007,-4.007,-4.007,-4.007,-4.007,-4.007,-4.007,-4.007,-4.007,-4.007,-4.007,-4.007,-4.007,-4.0154,-4.0368,-4.0368,-4.0368,-4.0368,-4.0368,-4.0286,-4.0121,-4.007,-4.007,-4.007,-4.007,-4.007,-4.007,-4.007,-4.007,-4.007,-4.007,-4.007,-4.007,-4.007,-4.007,-3.0804,-3.0555,-3.0351,-3.0878,-3.024,-2.9562,-2.9562,-2.8627,-2.7898,-2.8434,-2.8066,-2.7786,-2.8518,-2.9302,-2.994,-3.0323,-3.0998,-3.1482,0.0,-3.1482,-3.1631,-3.2108,-3.2801,-3.31,-3.2614,-3.2817,-3.2685,-3.1921,-3.1464,-3.0747,-2.9632,-2.8232,-2.7167,-2.6489,-2.5018,-2.369,-2.2603,-2.1518,-2.0974,-2.1049,-2.1876,-2.2692,-2.3502,-2.4921,-2.5899,-2.6422,-2.8265,-2.9192,-2.9566,-3.097,-3.1616,-3.1898,-3.2093,-3.2048,-3.2062,-3.3663,-3.4651,-3.5355,-3.658,-3.7011,-3.7011,-3.7011,-3.6704,-3.6499,-3.7135,-3.7622,-3.8041,-3.8789,-3.9531,-3.9952,-3.9489,-3.9714,-3.9969,-3.9437,-3.9714,-4.007,-4.007,-4.007,-4.007,-4.007,-4.007,-4.007,-4.007,-4.007,-4.007,-4.007,-4.007,-4.007,-4.007,-4.007,-4.007,-4.007,-4.007,-4.007,-4.007,-4.007,-4.007,-4.007,-4.007,-4.007,-4.007,-4.007,-4.0324,-4.0849,-4.0341,-4.0341,-4.0865,-4.0341,-4.007,-4.007,-4.007,-4.007]}]]